<?xml version='1.0' encoding='UTF-8'?><gpx version="1.1" creator="JPX - https://github.com/jenetics/jpx" xmlns="http://www.topografix.com/GPX/1/1"><trk><trkseg><trkpt lat="47.2398745427771" lon="0.8418347554972317"><ele>94.0</ele><time>2026-04-26T16:14:07Z</time></trkpt><trkpt lat="47.23984150953781" lon="0.8419156949278608"><ele>94.0</ele><time>2026-04-26T16:14:08Z</time></trkpt><trkpt lat="47.239748269436355" lon="0.8419623111960096"><ele>94.0</ele><time>2026-04-26T16:14:10Z</time></trkpt><trkpt lat="47.23968410174301" lon="0.84202125104634"><ele>94.0</ele><time>2026-04-26T16:14:12Z</time></trkpt><trkpt lat="47.239613665019036" lon="0.8420665112225941"><ele>94.0</ele><time>2026-04-26T16:14:14Z</time></trkpt><trkpt lat="47.23953843236785" lon="0.8421231482911883"><ele>94.0</ele><time>2026-04-26T16:14:16Z</time></trkpt><trkpt lat="47.23943451988324" lon="0.8422160342233873"><ele>93.75</ele><time>2026-04-26T16:14:37Z</time></trkpt><trkpt lat="47.239324965590264" lon="0.8422918814543014"><ele>93.5</ele><time>2026-04-26T16:14:38Z</time></trkpt><trkpt lat="47.23920278829397" lon="0.8423853916969121"><ele>93.25</ele><time>2026-04-26T16:14:39Z</time></trkpt><trkpt lat="47.239076429845966" lon="0.842479583512257"><ele>93.0</ele><time>2026-04-26T16:14:40Z</time></trkpt><trkpt lat="47.2389447444399" lon="0.8425769843506175"><ele>93.0</ele><time>2026-04-26T16:14:41Z</time></trkpt><trkpt lat="47.238818298422444" lon="0.8426507828374445"><ele>93.0</ele><time>2026-04-26T16:14:42Z</time></trkpt><trkpt lat="47.238688695879034" lon="0.8427177951302336"><ele>93.0</ele><time>2026-04-26T16:14:43Z</time></trkpt><trkpt lat="47.23855549024636" lon="0.8428026187821295"><ele>93.0</ele><time>2026-04-26T16:14:44Z</time></trkpt><trkpt lat="47.23843404881388" lon="0.8428889387768178"><ele>93.0</ele><time>2026-04-26T16:14:45Z</time></trkpt><trkpt lat="47.23830732388506" lon="0.843018038450553"><ele>93.0</ele><time>2026-04-26T16:14:46Z</time></trkpt><trkpt lat="47.238169032435884" lon="0.8431335716519784"><ele>93.0</ele><time>2026-04-26T16:14:47Z</time></trkpt><trkpt lat="47.23801917534855" lon="0.8432414431903341"><ele>93.0</ele><time>2026-04-26T16:14:48Z</time></trkpt><trkpt lat="47.23786398770311" lon="0.8433497069863636"><ele>93.0</ele><time>2026-04-26T16:14:49Z</time></trkpt><trkpt lat="47.23770424143162" lon="0.8434496553681429"><ele>93.0</ele><time>2026-04-26T16:14:50Z</time></trkpt><trkpt lat="47.237540806333556" lon="0.8435667450782205"><ele>93.33333333333333</ele><time>2026-04-26T16:14:51Z</time></trkpt><trkpt lat="47.237372530901055" lon="0.8436850501057102"><ele>93.66666666666666</ele><time>2026-04-26T16:14:52Z</time></trkpt><trkpt lat="47.23720263506165" lon="0.8438097263841362"><ele>94.0</ele><time>2026-04-26T16:14:53Z</time></trkpt><trkpt lat="47.23702649325249" lon="0.8439218128317599"><ele>94.0</ele><time>2026-04-26T16:14:54Z</time></trkpt><trkpt lat="47.23685334754306" lon="0.8440505776225566"><ele>94.0</ele><time>2026-04-26T16:14:55Z</time></trkpt><trkpt lat="47.2366833806797" lon="0.844187840847085"><ele>94.0</ele><time>2026-04-26T16:14:56Z</time></trkpt><trkpt lat="47.23650588913555" lon="0.8443137195526912"><ele>94.0</ele><time>2026-04-26T16:14:57Z</time></trkpt><trkpt lat="47.236333006139375" lon="0.8444446080816558"><ele>94.0</ele><time>2026-04-26T16:14:58Z</time></trkpt><trkpt lat="47.23615874855429" lon="0.844565014887453"><ele>94.0</ele><time>2026-04-26T16:14:59Z</time></trkpt><trkpt lat="47.235981794952394" lon="0.8446813125612584"><ele>94.0</ele><time>2026-04-26T16:15:00Z</time></trkpt><trkpt lat="47.235808638295566" lon="0.8448008803239094"><ele>94.0</ele><time>2026-04-26T16:15:01Z</time></trkpt><trkpt lat="47.23563719755223" lon="0.844935984115953"><ele>94.0</ele><time>2026-04-26T16:15:02Z</time></trkpt><trkpt lat="47.235468968185984" lon="0.8450649325363694"><ele>93.0</ele><time>2026-04-26T16:15:03Z</time></trkpt><trkpt lat="47.23530675599945" lon="0.8452017901191895"><ele>92.0</ele><time>2026-04-26T16:15:04Z</time></trkpt><trkpt lat="47.23513851717707" lon="0.8453248983695079"><ele>91.0</ele><time>2026-04-26T16:15:05Z</time></trkpt><trkpt lat="47.23497247152558" lon="0.8454327702868617"><ele>91.0</ele><time>2026-04-26T16:15:06Z</time></trkpt><trkpt lat="47.234838758529015" lon="0.8455318550854356"><ele>91.0</ele><time>2026-04-26T16:15:07Z</time></trkpt><trkpt lat="47.23471906813293" lon="0.8456075388213834"><ele>91.0</ele><time>2026-04-26T16:15:08Z</time></trkpt><trkpt lat="47.234617480592725" lon="0.8456518369850369"><ele>91.0</ele><time>2026-04-26T16:15:09Z</time></trkpt><trkpt lat="47.23453801616927" lon="0.84571950093853"><ele>91.4</ele><time>2026-04-26T16:15:10Z</time></trkpt><trkpt lat="47.234467251031305" lon="0.8457769395878296"><ele>91.8</ele><time>2026-04-26T16:15:11Z</time></trkpt><trkpt lat="47.23438635280436" lon="0.8458291861078534"><ele>92.2</ele><time>2026-04-26T16:15:12Z</time></trkpt><trkpt lat="47.2343066299024" lon="0.8459015161790175"><ele>92.60000000000001</ele><time>2026-04-26T16:15:13Z</time></trkpt><trkpt lat="47.234221157455316" lon="0.8459676726862527"><ele>93.0</ele><time>2026-04-26T16:15:14Z</time></trkpt><trkpt lat="47.23413820730739" lon="0.8460535088469473"><ele>93.0</ele><time>2026-04-26T16:15:15Z</time></trkpt><trkpt lat="47.23404274344426" lon="0.8461087348260017"><ele>93.0</ele><time>2026-04-26T16:15:16Z</time></trkpt><trkpt lat="47.23393848941846" lon="0.8461853203207906"><ele>93.0</ele><time>2026-04-26T16:15:17Z</time></trkpt><trkpt lat="47.23381689852896" lon="0.846256564406096"><ele>93.0</ele><time>2026-04-26T16:15:18Z</time></trkpt><trkpt lat="47.23369125539921" lon="0.8463570526868381"><ele>93.0</ele><time>2026-04-26T16:15:19Z</time></trkpt><trkpt lat="47.23355529195496" lon="0.8464497914549366"><ele>93.0</ele><time>2026-04-26T16:15:20Z</time></trkpt><trkpt lat="47.233418754152716" lon="0.8465435341899469"><ele>93.0</ele><time>2026-04-26T16:15:21Z</time></trkpt><trkpt lat="47.23327697501132" lon="0.8466320675337403"><ele>93.0</ele><time>2026-04-26T16:15:22Z</time></trkpt><trkpt lat="47.233129768605075" lon="0.8467214676830793"><ele>93.0</ele><time>2026-04-26T16:15:23Z</time></trkpt><trkpt lat="47.23298792186483" lon="0.846826182384447"><ele>93.0</ele><time>2026-04-26T16:15:24Z</time></trkpt><trkpt lat="47.232843873043414" lon="0.8469422670867579"><ele>93.0</ele><time>2026-04-26T16:15:25Z</time></trkpt><trkpt lat="47.23269271210667" lon="0.8470411675468918"><ele>93.0</ele><time>2026-04-26T16:15:26Z</time></trkpt><trkpt lat="47.23253756937955" lon="0.8471508247856672"><ele>93.0</ele><time>2026-04-26T16:15:27Z</time></trkpt><trkpt lat="47.23238122611815" lon="0.8472624542247087"><ele>93.33333333333333</ele><time>2026-04-26T16:15:28Z</time></trkpt><trkpt lat="47.23222585159899" lon="0.8473768702746308"><ele>93.66666666666666</ele><time>2026-04-26T16:15:29Z</time></trkpt><trkpt lat="47.23206582453977" lon="0.8474868167543237"><ele>94.0</ele><time>2026-04-26T16:15:29.999Z</time></trkpt><trkpt lat="47.2319055438812" lon="0.8475984052083653"><ele>93.66666666666666</ele><time>2026-04-26T16:15:30.999Z</time></trkpt><trkpt lat="47.231748362640516" lon="0.8477167854940899"><ele>93.33333333333333</ele><time>2026-04-26T16:15:31.999Z</time></trkpt><trkpt lat="47.23160752825591" lon="0.8478132038459085"><ele>93.0</ele><time>2026-04-26T16:15:32.999Z</time></trkpt><trkpt lat="47.231486615993475" lon="0.8479042447120481"><ele>93.0</ele><time>2026-04-26T16:15:33.999Z</time></trkpt><trkpt lat="47.23137738765175" lon="0.8479818761011853"><ele>93.0</ele><time>2026-04-26T16:15:34.999Z</time></trkpt><trkpt lat="47.23128431626887" lon="0.8480964042829682"><ele>93.0</ele><time>2026-04-26T16:15:35.999Z</time></trkpt><trkpt lat="47.23118385384059" lon="0.8482408213517999"><ele>93.0</ele><time>2026-04-26T16:15:36.999Z</time></trkpt><trkpt lat="47.231062866978725" lon="0.8483779118916107"><ele>93.33333333333333</ele><time>2026-04-26T16:15:37.999Z</time></trkpt><trkpt lat="47.23094843260959" lon="0.8485253379097603"><ele>93.66666666666666</ele><time>2026-04-26T16:15:38.999Z</time></trkpt><trkpt lat="47.23083397842202" lon="0.8486764432162797"><ele>94.0</ele><time>2026-04-26T16:15:39.999Z</time></trkpt><trkpt lat="47.23071341445434" lon="0.8488200363888077"><ele>94.0</ele><time>2026-04-26T16:15:40.999Z</time></trkpt><trkpt lat="47.2305927599407" lon="0.8489720148748978"><ele>94.0</ele><time>2026-04-26T16:15:41.999Z</time></trkpt><trkpt lat="47.23047287836086" lon="0.8491251563672151"><ele>94.0</ele><time>2026-04-26T16:15:42.999Z</time></trkpt><trkpt lat="47.230352915688" lon="0.8492778451494553"><ele>94.0</ele><time>2026-04-26T16:15:43.999Z</time></trkpt><trkpt lat="47.23025222677935" lon="0.849401956410873"><ele>94.0</ele><time>2026-04-26T16:15:44.999Z</time></trkpt><trkpt lat="47.230174815834395" lon="0.8495139146688804"><ele>94.0</ele><time>2026-04-26T16:15:45.999Z</time></trkpt><trkpt lat="47.23010493426481" lon="0.8496148353408975"><ele>94.0</ele><time>2026-04-26T16:15:46.999Z</time></trkpt><trkpt lat="47.230043481204504" lon="0.8496977388579919"><ele>94.0</ele><time>2026-04-26T16:15:47.999Z</time></trkpt><trkpt lat="47.22999039545538" lon="0.8497496063551395"><ele>94.0</ele><time>2026-04-26T16:15:48.999Z</time></trkpt><trkpt lat="47.229922187496825" lon="0.8498357845548583"><ele>94.0</ele><time>2026-04-26T16:15:50.999Z</time></trkpt><trkpt lat="47.22987202093787" lon="0.8498998649082883"><ele>94.0</ele><time>2026-04-26T16:16:29Z</time></trkpt><trkpt lat="47.22976391377082" lon="0.8500035599387811"><ele>94.0</ele><time>2026-04-26T16:16:31Z</time></trkpt><trkpt lat="47.22967612068138" lon="0.8500908051342242"><ele>94.0</ele><time>2026-04-26T16:16:32Z</time></trkpt><trkpt lat="47.22958804757417" lon="0.850201637095772"><ele>94.25</ele><time>2026-04-26T16:16:33Z</time></trkpt><trkpt lat="47.229468820599784" lon="0.8503471391420446"><ele>94.5</ele><time>2026-04-26T16:16:34Z</time></trkpt><trkpt lat="47.22937119708236" lon="0.8504780516250783"><ele>94.75</ele><time>2026-04-26T16:16:35Z</time></trkpt><trkpt lat="47.22926183430273" lon="0.850642850648705"><ele>95.0</ele><time>2026-04-26T16:16:36Z</time></trkpt><trkpt lat="47.22913453022412" lon="0.8507950256111417"><ele>95.0</ele><time>2026-04-26T16:16:37Z</time></trkpt><trkpt lat="47.22900541710885" lon="0.8509440126413024"><ele>95.0</ele><time>2026-04-26T16:16:38Z</time></trkpt><trkpt lat="47.228874973305814" lon="0.8511066245058607"><ele>95.0</ele><time>2026-04-26T16:16:39Z</time></trkpt><trkpt lat="47.228734846986704" lon="0.8512786635083326"><ele>95.0</ele><time>2026-04-26T16:16:40Z</time></trkpt><trkpt lat="47.22859723912545" lon="0.8514569540067772"><ele>95.0</ele><time>2026-04-26T16:16:41Z</time></trkpt><trkpt lat="47.22848393764478" lon="0.8515928932187659"><ele>95.0</ele><time>2026-04-26T16:16:42Z</time></trkpt><trkpt lat="47.22840268101177" lon="0.8517031348791065"><ele>95.0</ele><time>2026-04-26T16:16:43Z</time></trkpt><trkpt lat="47.228342656463724" lon="0.8517958495996759"><ele>95.0</ele><time>2026-04-26T16:16:44Z</time></trkpt><trkpt lat="47.22838272114155" lon="0.8519326953630015"><ele>95.0</ele><time>2026-04-26T16:16:46Z</time></trkpt><trkpt lat="47.228498460903864" lon="0.8518812192279781"><ele>95.0</ele><time>2026-04-26T16:16:48Z</time></trkpt><trkpt lat="47.228571157990245" lon="0.8519642124640502"><ele>95.0</ele><time>2026-04-26T16:16:49Z</time></trkpt><trkpt lat="47.22865442182846" lon="0.8520438427748988"><ele>95.0</ele><time>2026-04-26T16:16:50Z</time></trkpt><trkpt lat="47.22875209801078" lon="0.8521262247959692"><ele>95.0</ele><time>2026-04-26T16:16:51Z</time></trkpt><trkpt lat="47.2288563790087" lon="0.8522182802034423"><ele>95.0</ele><time>2026-04-26T16:16:52Z</time></trkpt><trkpt lat="47.22896068968461" lon="0.852313721173505"><ele>95.0</ele><time>2026-04-26T16:16:53Z</time></trkpt><trkpt lat="47.229074134532176" lon="0.8524165984379589"><ele>95.0</ele><time>2026-04-26T16:16:54Z</time></trkpt><trkpt lat="47.229192341284985" lon="0.8525209664288278"><ele>95.0</ele><time>2026-04-26T16:16:55Z</time></trkpt><trkpt lat="47.22931433891928" lon="0.852635136129263"><ele>95.0</ele><time>2026-04-26T16:16:56Z</time></trkpt><trkpt lat="47.22944070853983" lon="0.8527417094046562"><ele>95.0</ele><time>2026-04-26T16:16:57Z</time></trkpt><trkpt lat="47.22956504244006" lon="0.8528584238748936"><ele>95.0</ele><time>2026-04-26T16:16:58Z</time></trkpt><trkpt lat="47.22969411544385" lon="0.8529678247531239"><ele>94.33333333333334</ele><time>2026-04-26T16:16:59Z</time></trkpt><trkpt lat="47.22982546341022" lon="0.8530908133777612"><ele>93.66666666666667</ele><time>2026-04-26T16:17:00Z</time></trkpt><trkpt lat="47.229962006156136" lon="0.8532007370342138"><ele>93.0</ele><time>2026-04-26T16:17:01Z</time></trkpt><trkpt lat="47.23009560038286" lon="0.8533171120777768"><ele>93.0</ele><time>2026-04-26T16:17:02Z</time></trkpt><trkpt lat="47.23022565247935" lon="0.8534383624633264"><ele>93.0</ele><time>2026-04-26T16:17:03Z</time></trkpt><trkpt lat="47.230367111740186" lon="0.8535513685662053"><ele>93.0</ele><time>2026-04-26T16:17:04Z</time></trkpt><trkpt lat="47.23049789189534" lon="0.8536696484564944"><ele>93.33333333333333</ele><time>2026-04-26T16:17:05Z</time></trkpt><trkpt lat="47.230629064532394" lon="0.8537895428530625"><ele>93.66666666666666</ele><time>2026-04-26T16:17:06Z</time></trkpt><trkpt lat="47.23076165400542" lon="0.85390528685312"><ele>94.0</ele><time>2026-04-26T16:17:07Z</time></trkpt><trkpt lat="47.23089713187748" lon="0.8540160620985096"><ele>94.0</ele><time>2026-04-26T16:17:08Z</time></trkpt><trkpt lat="47.23102562650959" lon="0.854138600928285"><ele>94.0</ele><time>2026-04-26T16:17:09Z</time></trkpt><trkpt lat="47.23115652613952" lon="0.8542556614374536"><ele>94.0</ele><time>2026-04-26T16:17:10Z</time></trkpt><trkpt lat="47.231285947398" lon="0.8543687423501977"><ele>94.0</ele><time>2026-04-26T16:17:11Z</time></trkpt><trkpt lat="47.2314187731714" lon="0.8544866706200008"><ele>94.0</ele><time>2026-04-26T16:17:12Z</time></trkpt><trkpt lat="47.231547948435775" lon="0.8546010091548909"><ele>94.0</ele><time>2026-04-26T16:17:13Z</time></trkpt><trkpt lat="47.23167187201363" lon="0.8547181271142754"><ele>94.0</ele><time>2026-04-26T16:17:14Z</time></trkpt><trkpt lat="47.23180048997735" lon="0.8548273421612156"><ele>94.0</ele><time>2026-04-26T16:17:15Z</time></trkpt><trkpt lat="47.23192148337503" lon="0.854929296021385"><ele>94.0</ele><time>2026-04-26T16:17:16Z</time></trkpt><trkpt lat="47.232033233879385" lon="0.8550261582517221"><ele>94.0</ele><time>2026-04-26T16:17:17Z</time></trkpt><trkpt lat="47.2321489529688" lon="0.8551288514074467"><ele>94.0</ele><time>2026-04-26T16:17:18Z</time></trkpt><trkpt lat="47.232261570051485" lon="0.8552318677742689"><ele>94.0</ele><time>2026-04-26T16:17:19Z</time></trkpt><trkpt lat="47.23237434501578" lon="0.8553372471607724"><ele>94.0</ele><time>2026-04-26T16:17:20Z</time></trkpt><trkpt lat="47.232490157296866" lon="0.8554334517106815"><ele>94.0</ele><time>2026-04-26T16:17:21Z</time></trkpt><trkpt lat="47.23259980176333" lon="0.8555424125227957"><ele>94.0</ele><time>2026-04-26T16:17:22Z</time></trkpt><trkpt lat="47.23271593010839" lon="0.8556431412706982"><ele>94.0</ele><time>2026-04-26T16:17:23Z</time></trkpt><trkpt lat="47.232828323567176" lon="0.85574334462443"><ele>94.0</ele><time>2026-04-26T16:17:24Z</time></trkpt><trkpt lat="47.23294526017237" lon="0.8558379945861867"><ele>94.0</ele><time>2026-04-26T16:17:25Z</time></trkpt><trkpt lat="47.23306143997531" lon="0.8559244626852303"><ele>93.75</ele><time>2026-04-26T16:17:26Z</time></trkpt><trkpt lat="47.233179381415916" lon="0.8560074401129587"><ele>93.5</ele><time>2026-04-26T16:17:27Z</time></trkpt><trkpt lat="47.2332940025051" lon="0.8560968453163551"><ele>93.25</ele><time>2026-04-26T16:17:28Z</time></trkpt><trkpt lat="47.233418955286766" lon="0.8561747679319366"><ele>93.0</ele><time>2026-04-26T16:17:29Z</time></trkpt><trkpt lat="47.23354834057191" lon="0.8562622075789196"><ele>93.0</ele><time>2026-04-26T16:17:30Z</time></trkpt><trkpt lat="47.233678121143775" lon="0.8563511089882175"><ele>93.0</ele><time>2026-04-26T16:17:31Z</time></trkpt><trkpt lat="47.23380966522854" lon="0.8564296502968857"><ele>93.0</ele><time>2026-04-26T16:17:32Z</time></trkpt><trkpt lat="47.2339377238771" lon="0.8565063646826079"><ele>93.0</ele><time>2026-04-26T16:17:33Z</time></trkpt><trkpt lat="47.23405852677934" lon="0.8565905975765733"><ele>92.75</ele><time>2026-04-26T16:17:34Z</time></trkpt><trkpt lat="47.23418420799345" lon="0.8566641335917122"><ele>92.5</ele><time>2026-04-26T16:17:35Z</time></trkpt><trkpt lat="47.23430468895523" lon="0.8567413913589336"><ele>92.25</ele><time>2026-04-26T16:17:36Z</time></trkpt><trkpt lat="47.234426955764995" lon="0.8568302139359883"><ele>92.0</ele><time>2026-04-26T16:17:37Z</time></trkpt><trkpt lat="47.23455114439414" lon="0.8569091645280382"><ele>92.0</ele><time>2026-04-26T16:17:38Z</time></trkpt><trkpt lat="47.234666784123" lon="0.8569953940278212"><ele>92.0</ele><time>2026-04-26T16:17:38.999Z</time></trkpt><trkpt lat="47.23478549313796" lon="0.8570834197749451"><ele>92.0</ele><time>2026-04-26T16:17:39.999Z</time></trkpt><trkpt lat="47.23490480919976" lon="0.8571594486819667"><ele>92.0</ele><time>2026-04-26T16:17:40.999Z</time></trkpt><trkpt lat="47.23502722766774" lon="0.8572419151079194"><ele>92.0</ele><time>2026-04-26T16:17:41.999Z</time></trkpt><trkpt lat="47.23514922328042" lon="0.8573294973135854"><ele>92.0</ele><time>2026-04-26T16:17:42.999Z</time></trkpt><trkpt lat="47.23527325711935" lon="0.8574099987633291"><ele>92.0</ele><time>2026-04-26T16:17:43.999Z</time></trkpt><trkpt lat="47.235396038098905" lon="0.857496398470813"><ele>92.0</ele><time>2026-04-26T16:17:44.999Z</time></trkpt><trkpt lat="47.23552338794719" lon="0.8575698079030188"><ele>91.75</ele><time>2026-04-26T16:17:45.999Z</time></trkpt><trkpt lat="47.2356502280013" lon="0.8576518973750663"><ele>91.5</ele><time>2026-04-26T16:17:46.999Z</time></trkpt><trkpt lat="47.235774840580156" lon="0.8577358340699344"><ele>91.25</ele><time>2026-04-26T16:17:47.999Z</time></trkpt><trkpt lat="47.23589413233534" lon="0.8578304192576616"><ele>91.0</ele><time>2026-04-26T16:17:48.999Z</time></trkpt><trkpt lat="47.2360189984433" lon="0.8579203946989031"><ele>91.0</ele><time>2026-04-26T16:17:49.999Z</time></trkpt><trkpt lat="47.236130713779275" lon="0.858001964541663"><ele>91.0</ele><time>2026-04-26T16:17:50.999Z</time></trkpt><trkpt lat="47.236241911820024" lon="0.8580816266760573"><ele>91.0</ele><time>2026-04-26T16:17:51.999Z</time></trkpt><trkpt lat="47.23635974804585" lon="0.8581610758818778"><ele>91.0</ele><time>2026-04-26T16:17:52.999Z</time></trkpt><trkpt lat="47.23647257600507" lon="0.8582334940811446"><ele>91.25</ele><time>2026-04-26T16:17:53.999Z</time></trkpt><trkpt lat="47.23657604424823" lon="0.8583384649547043"><ele>91.5</ele><time>2026-04-26T16:17:54.999Z</time></trkpt><trkpt lat="47.2366836956904" lon="0.858436594592155"><ele>91.75</ele><time>2026-04-26T16:17:55.999Z</time></trkpt><trkpt lat="47.23679915041084" lon="0.858530548026066"><ele>92.0</ele><time>2026-04-26T16:17:56.999Z</time></trkpt><trkpt lat="47.23691083521724" lon="0.8586268991213594"><ele>92.25</ele><time>2026-04-26T16:17:57.999Z</time></trkpt><trkpt lat="47.23702922673551" lon="0.8587278225610462"><ele>92.5</ele><time>2026-04-26T16:17:58.999Z</time></trkpt><trkpt lat="47.23714903376178" lon="0.8588260635649657"><ele>92.75</ele><time>2026-04-26T16:17:59.999Z</time></trkpt><trkpt lat="47.23726372544767" lon="0.8589340977777705"><ele>93.0</ele><time>2026-04-26T16:18:00.999Z</time></trkpt><trkpt lat="47.23738329910034" lon="0.8590299570357646"><ele>92.75</ele><time>2026-04-26T16:18:01.999Z</time></trkpt><trkpt lat="47.2374955811455" lon="0.8591324119154684"><ele>92.5</ele><time>2026-04-26T16:18:02.999Z</time></trkpt><trkpt lat="47.23759808782672" lon="0.8592383515995072"><ele>92.25</ele><time>2026-04-26T16:18:03.999Z</time></trkpt><trkpt lat="47.23769515240119" lon="0.8593336268904108"><ele>92.0</ele><time>2026-04-26T16:18:04.999Z</time></trkpt><trkpt lat="47.237786835179406" lon="0.8594266011914629"><ele>92.0</ele><time>2026-04-26T16:18:06Z</time></trkpt><trkpt lat="47.237880796864715" lon="0.8595140313779012"><ele>92.0</ele><time>2026-04-26T16:18:07Z</time></trkpt><trkpt lat="47.237979188167294" lon="0.8595931011294158"><ele>92.0</ele><time>2026-04-26T16:18:08Z</time></trkpt><trkpt lat="47.23807247510913" lon="0.8596730263552209"><ele>92.0</ele><time>2026-04-26T16:18:09Z</time></trkpt><trkpt lat="47.23816918661171" lon="0.859766845429936"><ele>92.0</ele><time>2026-04-26T16:18:10Z</time></trkpt><trkpt lat="47.23826501193887" lon="0.8598733148614688"><ele>92.0</ele><time>2026-04-26T16:18:11Z</time></trkpt><trkpt lat="47.238366799809384" lon="0.8599698413220893"><ele>92.0</ele><time>2026-04-26T16:18:12Z</time></trkpt><trkpt lat="47.238469537645074" lon="0.8600654362612905"><ele>92.0</ele><time>2026-04-26T16:18:13Z</time></trkpt><trkpt lat="47.2385771193325" lon="0.8601693163849224"><ele>92.0</ele><time>2026-04-26T16:18:14Z</time></trkpt><trkpt lat="47.238679757312" lon="0.8602874856125178"><ele>92.0</ele><time>2026-04-26T16:18:15Z</time></trkpt><trkpt lat="47.23879099631438" lon="0.8604052482096104"><ele>92.0</ele><time>2026-04-26T16:18:16Z</time></trkpt><trkpt lat="47.23890511543771" lon="0.8605135911309142"><ele>92.0</ele><time>2026-04-26T16:18:17Z</time></trkpt><trkpt lat="47.23902445738783" lon="0.8606296172408251"><ele>92.0</ele><time>2026-04-26T16:18:18Z</time></trkpt><trkpt lat="47.239142116034955" lon="0.860752611883722"><ele>91.75</ele><time>2026-04-26T16:18:19Z</time></trkpt><trkpt lat="47.23926247041796" lon="0.860868618510496"><ele>91.5</ele><time>2026-04-26T16:18:20Z</time></trkpt><trkpt lat="47.23938893806419" lon="0.860994527365089"><ele>91.25</ele><time>2026-04-26T16:18:21Z</time></trkpt><trkpt lat="47.23950936986822" lon="0.8611329547789259"><ele>91.0</ele><time>2026-04-26T16:18:22Z</time></trkpt><trkpt lat="47.23963156894054" lon="0.8612698200566936"><ele>91.0</ele><time>2026-04-26T16:18:23Z</time></trkpt><trkpt lat="47.23975675711688" lon="0.8614085182630691"><ele>91.0</ele><time>2026-04-26T16:18:24Z</time></trkpt><trkpt lat="47.239881238618274" lon="0.8615449246233013"><ele>91.0</ele><time>2026-04-26T16:18:25Z</time></trkpt><trkpt lat="47.24000309715037" lon="0.8616753983433594"><ele>90.75</ele><time>2026-04-26T16:18:26Z</time></trkpt><trkpt lat="47.24012442069775" lon="0.8617916797125555"><ele>90.5</ele><time>2026-04-26T16:18:27Z</time></trkpt><trkpt lat="47.2402399039177" lon="0.8619104632487365"><ele>90.25</ele><time>2026-04-26T16:18:28Z</time></trkpt><trkpt lat="47.240353814151746" lon="0.8620289973748593"><ele>90.0</ele><time>2026-04-26T16:18:29Z</time></trkpt><trkpt lat="47.24045921253507" lon="0.8621534854116588"><ele>90.0</ele><time>2026-04-26T16:18:30Z</time></trkpt><trkpt lat="47.2405674887701" lon="0.862257806947516"><ele>90.0</ele><time>2026-04-26T16:18:31Z</time></trkpt><trkpt lat="47.24065882511171" lon="0.862360028792791"><ele>90.0</ele><time>2026-04-26T16:18:32Z</time></trkpt><trkpt lat="47.24074262115691" lon="0.8624295472249112"><ele>90.0</ele><time>2026-04-26T16:18:33Z</time></trkpt><trkpt lat="47.24080337911966" lon="0.8624873884779696"><ele>90.0</ele><time>2026-04-26T16:18:34Z</time></trkpt><trkpt lat="47.24085193254544" lon="0.8625498953001559"><ele>90.2</ele><time>2026-04-26T16:18:48Z</time></trkpt><trkpt lat="47.24091398675887" lon="0.8626400128866558"><ele>90.4</ele><time>2026-04-26T16:19:24Z</time></trkpt><trkpt lat="47.24100703272593" lon="0.8627625816083319"><ele>90.6</ele><time>2026-04-26T16:19:26Z</time></trkpt><trkpt lat="47.24106303919857" lon="0.8628248899996727"><ele>90.8</ele><time>2026-04-26T16:19:27Z</time></trkpt><trkpt lat="47.24113825372815" lon="0.8629034933054599"><ele>91.0</ele><time>2026-04-26T16:19:29Z</time></trkpt><trkpt lat="47.24117613272702" lon="0.8630165859950985"><ele>91.0</ele><time>2026-04-26T16:19:30Z</time></trkpt><trkpt lat="47.2412033561448" lon="0.863107464619782"><ele>91.0</ele><time>2026-04-26T16:19:31Z</time></trkpt><trkpt lat="47.241236555991314" lon="0.8631972320825764"><ele>91.0</ele><time>2026-04-26T16:19:32Z</time></trkpt><trkpt lat="47.24136398961211" lon="0.863314932777681"><ele>91.0</ele><time>2026-04-26T16:19:33Z</time></trkpt><trkpt lat="47.241460948826884" lon="0.8634510402425396"><ele>91.0</ele><time>2026-04-26T16:19:34Z</time></trkpt><trkpt lat="47.24156128058447" lon="0.863598616485916"><ele>90.33333333333333</ele><time>2026-04-26T16:19:35Z</time></trkpt><trkpt lat="47.24166689036011" lon="0.8637482379371441"><ele>89.66666666666667</ele><time>2026-04-26T16:19:36Z</time></trkpt><trkpt lat="47.2417783361283" lon="0.8638966465227504"><ele>89.0</ele><time>2026-04-26T16:19:37Z</time></trkpt><trkpt lat="47.24189140135911" lon="0.8640536459787549"><ele>89.0</ele><time>2026-04-26T16:19:38Z</time></trkpt><trkpt lat="47.24200535563078" lon="0.8642184423449102"><ele>89.0</ele><time>2026-04-26T16:19:39Z</time></trkpt><trkpt lat="47.24212387019924" lon="0.8643773140268477"><ele>89.0</ele><time>2026-04-26T16:19:40Z</time></trkpt><trkpt lat="47.24223922998511" lon="0.8645330084794784"><ele>89.0</ele><time>2026-04-26T16:19:41Z</time></trkpt><trkpt lat="47.24232878529357" lon="0.8646607926164602"><ele>89.0</ele><time>2026-04-26T16:19:42Z</time></trkpt><trkpt lat="47.24241049805058" lon="0.8647709736551835"><ele>89.0</ele><time>2026-04-26T16:19:43Z</time></trkpt><trkpt lat="47.24246763077687" lon="0.8648495585888982"><ele>89.0</ele><time>2026-04-26T16:19:44Z</time></trkpt><trkpt lat="47.24253373413792" lon="0.864932341503209"><ele>89.0</ele><time>2026-04-26T16:19:46Z</time></trkpt><trkpt lat="47.24252618430897" lon="0.8650486404861836"><ele>89.0</ele><time>2026-04-26T16:19:49.999Z</time></trkpt><trkpt lat="47.242460121457505" lon="0.8651776419276589"><ele>89.0</ele><time>2026-04-26T16:20:00.999Z</time></trkpt><trkpt lat="47.242410807739226" lon="0.8652761270511659"><ele>89.0</ele><time>2026-04-26T16:20:01.999Z</time></trkpt><trkpt lat="47.24234561608757" lon="0.8653953651995706"><ele>89.0</ele><time>2026-04-26T16:20:02.999Z</time></trkpt><trkpt lat="47.2422699986393" lon="0.8655461869661859"><ele>89.0</ele><time>2026-04-26T16:20:03.999Z</time></trkpt><trkpt lat="47.24220405333075" lon="0.8656807211499116"><ele>89.0</ele><time>2026-04-26T16:20:04.999Z</time></trkpt><trkpt lat="47.24214276983723" lon="0.8658263700057124"><ele>89.0</ele><time>2026-04-26T16:20:05.999Z</time></trkpt><trkpt lat="47.242118180460416" lon="0.8659952678384124"><ele>89.0</ele><time>2026-04-26T16:20:06.999Z</time></trkpt><trkpt lat="47.24211323401659" lon="0.8661631145153647"><ele>89.0</ele><time>2026-04-26T16:20:07.999Z</time></trkpt><trkpt lat="47.24216051499896" lon="0.8663260744808094"><ele>89.25</ele><time>2026-04-26T16:20:08.999Z</time></trkpt><trkpt lat="47.24217339822608" lon="0.8665060389026199"><ele>89.5</ele><time>2026-04-26T16:20:09.999Z</time></trkpt><trkpt lat="47.24218599429178" lon="0.8666926157491692"><ele>89.75</ele><time>2026-04-26T16:20:10.999Z</time></trkpt><trkpt lat="47.24220744579358" lon="0.866873555268768"><ele>90.0</ele><time>2026-04-26T16:20:12Z</time></trkpt><trkpt lat="47.24222236405503" lon="0.8670546917707941"><ele>90.0</ele><time>2026-04-26T16:20:13Z</time></trkpt><trkpt lat="47.24223534881858" lon="0.8672369920998125"><ele>90.0</ele><time>2026-04-26T16:20:14Z</time></trkpt><trkpt lat="47.242247704377995" lon="0.8674133393492222"><ele>90.0</ele><time>2026-04-26T16:20:15Z</time></trkpt><trkpt lat="47.242262294226414" lon="0.8675725276312095"><ele>90.0</ele><time>2026-04-26T16:20:16Z</time></trkpt><trkpt lat="47.24226609140808" lon="0.8677025243827946"><ele>90.0</ele><time>2026-04-26T16:20:17Z</time></trkpt><trkpt lat="47.24225646460277" lon="0.8677987653194508"><ele>90.0</ele><time>2026-04-26T16:20:18Z</time></trkpt><trkpt lat="47.24220591031667" lon="0.8678546839147947"><ele>90.0</ele><time>2026-04-26T16:20:19Z</time></trkpt><trkpt lat="47.242083353148686" lon="0.8678667218474516"><ele>90.0</ele><time>2026-04-26T16:20:21Z</time></trkpt><trkpt lat="47.24201991811919" lon="0.8679045448393738"><ele>90.0</ele><time>2026-04-26T16:20:22Z</time></trkpt><trkpt lat="47.24194673604917" lon="0.8679612109584953"><ele>90.0</ele><time>2026-04-26T16:20:23Z</time></trkpt><trkpt lat="47.241864775068535" lon="0.8680149764761895"><ele>90.0</ele><time>2026-04-26T16:20:24Z</time></trkpt><trkpt lat="47.241782911483384" lon="0.8680880196600336"><ele>90.0</ele><time>2026-04-26T16:20:25Z</time></trkpt><trkpt lat="47.241701210403214" lon="0.8681594114695601"><ele>90.0</ele><time>2026-04-26T16:20:26Z</time></trkpt><trkpt lat="47.241611911201524" lon="0.8682424212749886"><ele>90.0</ele><time>2026-04-26T16:20:27Z</time></trkpt><trkpt lat="47.24150638196768" lon="0.8683006608234621"><ele>90.0</ele><time>2026-04-26T16:20:28Z</time></trkpt><trkpt lat="47.24142451692951" lon="0.8683855911951711"><ele>90.0</ele><time>2026-04-26T16:20:29Z</time></trkpt><trkpt lat="47.241340307710324" lon="0.8684839097821733"><ele>90.4</ele><time>2026-04-26T16:20:30Z</time></trkpt><trkpt lat="47.24127284142621" lon="0.8686058799257236"><ele>90.8</ele><time>2026-04-26T16:20:31Z</time></trkpt><trkpt lat="47.241203823931" lon="0.8687192921613444"><ele>91.19999999999999</ele><time>2026-04-26T16:20:32Z</time></trkpt><trkpt lat="47.24113619852356" lon="0.8688272019167891"><ele>91.6</ele><time>2026-04-26T16:20:33Z</time></trkpt><trkpt lat="47.24106152739051" lon="0.8689418941620596"><ele>92.0</ele><time>2026-04-26T16:20:34Z</time></trkpt><trkpt lat="47.24097602901519" lon="0.8690435665483667"><ele>92.0</ele><time>2026-04-26T16:20:35Z</time></trkpt><trkpt lat="47.240899247515294" lon="0.8691586648193235"><ele>92.0</ele><time>2026-04-26T16:20:36Z</time></trkpt><trkpt lat="47.240827445433204" lon="0.869274226198049"><ele>92.0</ele><time>2026-04-26T16:20:37Z</time></trkpt><trkpt lat="47.240753729677515" lon="0.8693817329054315"><ele>92.0</ele><time>2026-04-26T16:20:38Z</time></trkpt><trkpt lat="47.24068800627664" lon="0.8694508923503692"><ele>92.0</ele><time>2026-04-26T16:20:39Z</time></trkpt><trkpt lat="47.24062280606807" lon="0.8694813440066603"><ele>92.16666666666667</ele><time>2026-04-26T16:20:40Z</time></trkpt><trkpt lat="47.240534128860475" lon="0.8695142052963305"><ele>92.33333333333334</ele><time>2026-04-26T16:20:41Z</time></trkpt><trkpt lat="47.2404452132959" lon="0.8695613261427849"><ele>92.5</ele><time>2026-04-26T16:20:42Z</time></trkpt><trkpt lat="47.240363516622935" lon="0.8696264276906094"><ele>92.66666666666667</ele><time>2026-04-26T16:20:43Z</time></trkpt><trkpt lat="47.240275289989704" lon="0.8696844087091175"><ele>92.83333333333333</ele><time>2026-04-26T16:20:44Z</time></trkpt><trkpt lat="47.24021172640195" lon="0.8697356024432467"><ele>93.0</ele><time>2026-04-26T16:20:45Z</time></trkpt><trkpt lat="47.24021345271471" lon="0.8698685483651231"><ele>93.0</ele><time>2026-04-26T16:20:59Z</time></trkpt><trkpt lat="47.24028552837827" lon="0.8700137140418598"><ele>93.0</ele><time>2026-04-26T16:21:01Z</time></trkpt><trkpt lat="47.24031870868707" lon="0.8701194471436955"><ele>93.0</ele><time>2026-04-26T16:21:02Z</time></trkpt><trkpt lat="47.24033209208683" lon="0.8702229737229861"><ele>93.0</ele><time>2026-04-26T16:21:03Z</time></trkpt><trkpt lat="47.240335065116554" lon="0.8703376192251668"><ele>93.0</ele><time>2026-04-26T16:21:04Z</time></trkpt><trkpt lat="47.24032545978502" lon="0.8704630183405686"><ele>93.0</ele><time>2026-04-26T16:21:05Z</time></trkpt><trkpt lat="47.240296056301354" lon="0.8705914307002176"><ele>92.80000000000001</ele><time>2026-04-26T16:21:06Z</time></trkpt><trkpt lat="47.24026214132913" lon="0.8707205048757265"><ele>92.6</ele><time>2026-04-26T16:21:07Z</time></trkpt><trkpt lat="47.24022381667821" lon="0.8708496409043084"><ele>92.4</ele><time>2026-04-26T16:21:08Z</time></trkpt><trkpt lat="47.24019064820274" lon="0.8709866368905731"><ele>92.19999999999999</ele><time>2026-04-26T16:21:09Z</time></trkpt><trkpt lat="47.24016518832671" lon="0.8711280919660017"><ele>92.0</ele><time>2026-04-26T16:21:10Z</time></trkpt><trkpt lat="47.2401654657996" lon="0.8712647702370613"><ele>92.0</ele><time>2026-04-26T16:21:11Z</time></trkpt><trkpt lat="47.24020546927862" lon="0.8713643643172654"><ele>92.0</ele><time>2026-04-26T16:21:12Z</time></trkpt><trkpt lat="47.24026836447515" lon="0.8714375679265518"><ele>92.0</ele><time>2026-04-26T16:21:13Z</time></trkpt><trkpt lat="47.240347042233964" lon="0.8715013903401095"><ele>92.0</ele><time>2026-04-26T16:21:14Z</time></trkpt><trkpt lat="47.24041583847416" lon="0.8715934977837126"><ele>92.0</ele><time>2026-04-26T16:21:15Z</time></trkpt><trkpt lat="47.240491026766136" lon="0.871669629623835"><ele>92.0</ele><time>2026-04-26T16:21:16Z</time></trkpt><trkpt lat="47.24058244222167" lon="0.8717452012879269"><ele>91.8</ele><time>2026-04-26T16:21:17Z</time></trkpt><trkpt lat="47.24068382450499" lon="0.8717975477455674"><ele>91.6</ele><time>2026-04-26T16:21:18Z</time></trkpt><trkpt lat="47.24078030331526" lon="0.8718689960739057"><ele>91.39999999999999</ele><time>2026-04-26T16:21:19Z</time></trkpt><trkpt lat="47.24087905694399" lon="0.8719338934519875"><ele>91.19999999999999</ele><time>2026-04-26T16:21:20Z</time></trkpt><trkpt lat="47.24097414497853" lon="0.8720036250424382"><ele>91.0</ele><time>2026-04-26T16:21:21Z</time></trkpt><trkpt lat="47.2410620124192" lon="0.8720918108456317"><ele>91.0</ele><time>2026-04-26T16:21:22Z</time></trkpt><trkpt lat="47.241153393833095" lon="0.8721805917380844"><ele>91.0</ele><time>2026-04-26T16:21:23Z</time></trkpt><trkpt lat="47.24122883695041" lon="0.8722785483593345"><ele>91.0</ele><time>2026-04-26T16:21:24Z</time></trkpt><trkpt lat="47.24126729063869" lon="0.872425280953806"><ele>91.0</ele><time>2026-04-26T16:21:25Z</time></trkpt><trkpt lat="47.24128904245526" lon="0.8725509524083316"><ele>91.0</ele><time>2026-04-26T16:21:26Z</time></trkpt><trkpt lat="47.241313957252785" lon="0.8726604268119734"><ele>90.33333333333333</ele><time>2026-04-26T16:21:27Z</time></trkpt><trkpt lat="47.24132578460484" lon="0.8727881080231925"><ele>89.66666666666667</ele><time>2026-04-26T16:21:29Z</time></trkpt><trkpt lat="47.24134751013013" lon="0.8729302044651363"><ele>89.0</ele><time>2026-04-26T16:21:32Z</time></trkpt><trkpt lat="47.241115680272095" lon="0.8731265355012944"><ele>89.0</ele><time>2026-04-26T16:21:33Z</time></trkpt><trkpt lat="47.241070344898326" lon="0.8732042994039276"><ele>89.0</ele><time>2026-04-26T16:21:34Z</time></trkpt><trkpt lat="47.24102350809861" lon="0.8733024010451281"><ele>89.0</ele><time>2026-04-26T16:21:35Z</time></trkpt><trkpt lat="47.240967423944" lon="0.8734125858559912"><ele>89.0</ele><time>2026-04-26T16:21:36Z</time></trkpt><trkpt lat="47.240905066947064" lon="0.8735204506911981"><ele>89.0</ele><time>2026-04-26T16:21:37Z</time></trkpt><trkpt lat="47.24083511755022" lon="0.8736555382537315"><ele>89.0</ele><time>2026-04-26T16:21:38Z</time></trkpt><trkpt lat="47.24076123939394" lon="0.873792015093456"><ele>89.0</ele><time>2026-04-26T16:21:39Z</time></trkpt><trkpt lat="47.2406823914088" lon="0.873941968656815"><ele>89.0</ele><time>2026-04-26T16:21:40Z</time></trkpt><trkpt lat="47.24060007272184" lon="0.8740912596323365"><ele>89.0</ele><time>2026-04-26T16:21:41Z</time></trkpt><trkpt lat="47.24051697766182" lon="0.8742406473754619"><ele>89.0</ele><time>2026-04-26T16:21:42Z</time></trkpt><trkpt lat="47.240430590740004" lon="0.8744088131979226"><ele>89.0</ele><time>2026-04-26T16:21:43Z</time></trkpt><trkpt lat="47.240349038357856" lon="0.8745759877988446"><ele>89.0</ele><time>2026-04-26T16:21:44Z</time></trkpt><trkpt lat="47.24025490315605" lon="0.874746628750009"><ele>89.0</ele><time>2026-04-26T16:21:45Z</time></trkpt><trkpt lat="47.240158707756514" lon="0.8749122276126695"><ele>89.0</ele><time>2026-04-26T16:21:46Z</time></trkpt><trkpt lat="47.24006448789602" lon="0.8750944641943574"><ele>89.0</ele><time>2026-04-26T16:21:47Z</time></trkpt><trkpt lat="47.23996929212224" lon="0.8752825211505448"><ele>89.0</ele><time>2026-04-26T16:21:47.999Z</time></trkpt><trkpt lat="47.23987118543978" lon="0.8754601755516961"><ele>89.33333333333334</ele><time>2026-04-26T16:21:48.999Z</time></trkpt><trkpt lat="47.239779017412616" lon="0.8756352915944"><ele>89.66666666666667</ele><time>2026-04-26T16:21:49.999Z</time></trkpt><trkpt lat="47.2396861706722" lon="0.8758091657539548"><ele>90.0</ele><time>2026-04-26T16:21:50.999Z</time></trkpt><trkpt lat="47.239590720625316" lon="0.8759850733185475"><ele>90.33333333333333</ele><time>2026-04-26T16:21:51.999Z</time></trkpt><trkpt lat="47.239493714406464" lon="0.876158403521032"><ele>90.66666666666666</ele><time>2026-04-26T16:21:52.999Z</time></trkpt><trkpt lat="47.239397226609604" lon="0.8763349054522929"><ele>91.0</ele><time>2026-04-26T16:21:53.999Z</time></trkpt><trkpt lat="47.239299469393906" lon="0.876516385246902"><ele>91.0</ele><time>2026-04-26T16:21:54.999Z</time></trkpt><trkpt lat="47.23920524516639" lon="0.8767022561197942"><ele>91.0</ele><time>2026-04-26T16:21:55.999Z</time></trkpt><trkpt lat="47.23911124005421" lon="0.8768710036726862"><ele>91.0</ele><time>2026-04-26T16:21:56.999Z</time></trkpt><trkpt lat="47.239015691276435" lon="0.8770411351828867"><ele>91.0</ele><time>2026-04-26T16:21:57.999Z</time></trkpt><trkpt lat="47.238920489211814" lon="0.8772139740397831"><ele>91.0</ele><time>2026-04-26T16:21:58.999Z</time></trkpt><trkpt lat="47.23883537882225" lon="0.877384278053174"><ele>91.0</ele><time>2026-04-26T16:21:59.999Z</time></trkpt><trkpt lat="47.23874748481243" lon="0.8775518207158542"><ele>91.0</ele><time>2026-04-26T16:22:00.999Z</time></trkpt><trkpt lat="47.2386566580608" lon="0.8777232220395311"><ele>91.0</ele><time>2026-04-26T16:22:01.999Z</time></trkpt><trkpt lat="47.23855758049196" lon="0.8779068550404582"><ele>91.0</ele><time>2026-04-26T16:22:02.999Z</time></trkpt><trkpt lat="47.23846115058667" lon="0.8780999425371275"><ele>91.0</ele><time>2026-04-26T16:22:03.999Z</time></trkpt><trkpt lat="47.238358635736766" lon="0.8782861184949695"><ele>91.0</ele><time>2026-04-26T16:22:04.999Z</time></trkpt><trkpt lat="47.23825643517521" lon="0.8784771607469664"><ele>91.0</ele><time>2026-04-26T16:22:05.999Z</time></trkpt><trkpt lat="47.23815236051925" lon="0.8786708566297233"><ele>91.0</ele><time>2026-04-26T16:22:06.999Z</time></trkpt><trkpt lat="47.23804885849874" lon="0.8788655494776039"><ele>91.0</ele><time>2026-04-26T16:22:07.999Z</time></trkpt><trkpt lat="47.237943480430154" lon="0.8790628941820013"><ele>91.0</ele><time>2026-04-26T16:22:08.999Z</time></trkpt><trkpt lat="47.237837189940244" lon="0.8792612586635421"><ele>91.0</ele><time>2026-04-26T16:22:09.999Z</time></trkpt><trkpt lat="47.23773048618216" lon="0.8794678018244599"><ele>90.66666666666666</ele><time>2026-04-26T16:22:10.999Z</time></trkpt><trkpt lat="47.237620270752" lon="0.8796679172190053"><ele>90.33333333333333</ele><time>2026-04-26T16:22:11.999Z</time></trkpt><trkpt lat="47.237506365319845" lon="0.8798590175517293"><ele>90.0</ele><time>2026-04-26T16:22:12.999Z</time></trkpt><trkpt lat="47.237401859424615" lon="0.8800655078627339"><ele>89.66666666666667</ele><time>2026-04-26T16:22:13.999Z</time></trkpt><trkpt lat="47.23729962778631" lon="0.8802610408431043"><ele>89.33333333333334</ele><time>2026-04-26T16:22:14.999Z</time></trkpt><trkpt lat="47.23719774707035" lon="0.880453086036218"><ele>89.0</ele><time>2026-04-26T16:22:15.999Z</time></trkpt><trkpt lat="47.23709535503741" lon="0.8806502064387799"><ele>89.0</ele><time>2026-04-26T16:22:17Z</time></trkpt><trkpt lat="47.23699734805263" lon="0.880845702261511"><ele>89.0</ele><time>2026-04-26T16:22:18Z</time></trkpt><trkpt lat="47.23689705651044" lon="0.8810434310533681"><ele>89.0</ele><time>2026-04-26T16:22:19Z</time></trkpt><trkpt lat="47.23679617954698" lon="0.8812316897747213"><ele>89.66666666666667</ele><time>2026-04-26T16:22:20Z</time></trkpt><trkpt lat="47.236692601183805" lon="0.8814145883539516"><ele>90.33333333333333</ele><time>2026-04-26T16:22:21Z</time></trkpt><trkpt lat="47.23660023079552" lon="0.881593554168374"><ele>91.0</ele><time>2026-04-26T16:22:22Z</time></trkpt><trkpt lat="47.236501019185845" lon="0.8817825266810733"><ele>90.33333333333333</ele><time>2026-04-26T16:22:23Z</time></trkpt><trkpt lat="47.236405187852206" lon="0.8819677703547275"><ele>89.66666666666667</ele><time>2026-04-26T16:22:24Z</time></trkpt><trkpt lat="47.236312678181385" lon="0.8821476788286491"><ele>89.0</ele><time>2026-04-26T16:22:25Z</time></trkpt><trkpt lat="47.23621638030362" lon="0.8823113993572419"><ele>89.0</ele><time>2026-04-26T16:22:26Z</time></trkpt><trkpt lat="47.236129673216745" lon="0.8824920595459591"><ele>89.0</ele><time>2026-04-26T16:22:27Z</time></trkpt><trkpt lat="47.23603792282752" lon="0.8826735191801832"><ele>89.0</ele><time>2026-04-26T16:22:28Z</time></trkpt><trkpt lat="47.235946366185466" lon="0.8828256374689726"><ele>89.0</ele><time>2026-04-26T16:22:29Z</time></trkpt><trkpt lat="47.23586212846843" lon="0.8829905991318145"><ele>88.75</ele><time>2026-04-26T16:22:30Z</time></trkpt><trkpt lat="47.23577100421334" lon="0.8831552023301529"><ele>88.5</ele><time>2026-04-26T16:22:31Z</time></trkpt><trkpt lat="47.235673906041285" lon="0.8833096714459022"><ele>88.25</ele><time>2026-04-26T16:22:32Z</time></trkpt><trkpt lat="47.23557865217276" lon="0.8834558449903296"><ele>88.0</ele><time>2026-04-26T16:22:33Z</time></trkpt><trkpt lat="47.235459055263576" lon="0.8835383802320389"><ele>87.75</ele><time>2026-04-26T16:22:34Z</time></trkpt><trkpt lat="47.23533255360624" lon="0.8835492048506034"><ele>87.5</ele><time>2026-04-26T16:22:35Z</time></trkpt><trkpt lat="47.235221011459736" lon="0.8835722013989904"><ele>87.25</ele><time>2026-04-26T16:22:36Z</time></trkpt><trkpt lat="47.235105327126654" lon="0.883616525763646"><ele>87.0</ele><time>2026-04-26T16:22:37Z</time></trkpt><trkpt lat="47.23499054014025" lon="0.8836773426919459"><ele>87.0</ele><time>2026-04-26T16:22:38Z</time></trkpt><trkpt lat="47.234875987977176" lon="0.8837549809124697"><ele>87.0</ele><time>2026-04-26T16:22:39Z</time></trkpt><trkpt lat="47.2347648786551" lon="0.8838308702879974"><ele>87.0</ele><time>2026-04-26T16:22:40Z</time></trkpt><trkpt lat="47.234687583086284" lon="0.8838716520119515"><ele>87.0</ele><time>2026-04-26T16:22:41Z</time></trkpt><trkpt lat="47.23461330264777" lon="0.8839815612349974"><ele>87.0</ele><time>2026-04-26T16:23:00Z</time></trkpt><trkpt lat="47.23454562523788" lon="0.8840381961590001"><ele>86.39999999999999</ele><time>2026-04-26T16:23:01Z</time></trkpt><trkpt lat="47.234477216727605" lon="0.8841095929240002"><ele>85.8</ele><time>2026-04-26T16:23:02Z</time></trkpt><trkpt lat="47.23439586607677" lon="0.8841856589850612"><ele>85.2</ele><time>2026-04-26T16:23:03Z</time></trkpt><trkpt lat="47.23430946133778" lon="0.8842670610956063"><ele>84.6</ele><time>2026-04-26T16:23:04Z</time></trkpt><trkpt lat="47.23421499471641" lon="0.8843466991913679"><ele>84.0</ele><time>2026-04-26T16:23:05Z</time></trkpt><trkpt lat="47.23411545091968" lon="0.8844550185206335"><ele>84.0</ele><time>2026-04-26T16:23:06Z</time></trkpt><trkpt lat="47.23400178569498" lon="0.8845421607568722"><ele>84.0</ele><time>2026-04-26T16:23:07Z</time></trkpt><trkpt lat="47.23388692866776" lon="0.8846182922237512"><ele>84.0</ele><time>2026-04-26T16:23:08Z</time></trkpt><trkpt lat="47.23378257938279" lon="0.8846959299356023"><ele>84.0</ele><time>2026-04-26T16:23:09Z</time></trkpt><trkpt lat="47.233687647836305" lon="0.8847543580572603"><ele>83.6</ele><time>2026-04-26T16:23:10Z</time></trkpt><trkpt lat="47.23359735177762" lon="0.8848463728157584"><ele>83.2</ele><time>2026-04-26T16:23:11Z</time></trkpt><trkpt lat="47.23349726346832" lon="0.8849299416312508"><ele>82.8</ele><time>2026-04-26T16:23:12Z</time></trkpt><trkpt lat="47.23340555515857" lon="0.8849904497797155"><ele>82.39999999999999</ele><time>2026-04-26T16:23:13Z</time></trkpt><trkpt lat="47.23332957880752" lon="0.8850354876997579"><ele>82.0</ele><time>2026-04-26T16:23:14Z</time></trkpt><trkpt lat="47.233242222306515" lon="0.8851446165810564"><ele>81.85714285714285</ele><time>2026-04-26T16:23:16Z</time></trkpt><trkpt lat="47.23318317990414" lon="0.885199002035913"><ele>81.71428571428571</ele><time>2026-04-26T16:23:17Z</time></trkpt><trkpt lat="47.23312538508679" lon="0.8852439097916928"><ele>81.57142857142857</ele><time>2026-04-26T16:23:18Z</time></trkpt><trkpt lat="47.233071852871625" lon="0.8853035309630699"><ele>81.42857142857142</ele><time>2026-04-26T16:23:19Z</time></trkpt><trkpt lat="47.233019850072516" lon="0.8853740569594548"><ele>81.28571428571428</ele><time>2026-04-26T16:23:20Z</time></trkpt><trkpt lat="47.2329845469764" lon="0.8854545792829954"><ele>81.14285714285714</ele><time>2026-04-26T16:23:21Z</time></trkpt><trkpt lat="47.23293966062305" lon="0.885537284608609"><ele>81.0</ele><time>2026-04-26T16:23:22Z</time></trkpt><trkpt lat="47.23290344409723" lon="0.8856175149263735"><ele>80.57142857142857</ele><time>2026-04-26T16:23:23Z</time></trkpt><trkpt lat="47.232875774033424" lon="0.8857055698078499"><ele>80.14285714285714</ele><time>2026-04-26T16:23:24Z</time></trkpt><trkpt lat="47.23286576407899" lon="0.8858206904050826"><ele>79.71428571428572</ele><time>2026-04-26T16:23:25Z</time></trkpt><trkpt lat="47.23286625523962" lon="0.8859298698172199"><ele>79.28571428571428</ele><time>2026-04-26T16:23:26Z</time></trkpt><trkpt lat="47.23287363697154" lon="0.8860483578025846"><ele>78.85714285714285</ele><time>2026-04-26T16:23:27Z</time></trkpt><trkpt lat="47.23288001018451" lon="0.8861524295643982"><ele>78.42857142857143</ele><time>2026-04-26T16:23:28Z</time></trkpt><trkpt lat="47.23288028318336" lon="0.886262934656313"><ele>78.0</ele><time>2026-04-26T16:23:29Z</time></trkpt><trkpt lat="47.232880345040186" lon="0.8863748056991718"><ele>78.0</ele><time>2026-04-26T16:23:30Z</time></trkpt><trkpt lat="47.23287127525945" lon="0.8865316323012424"><ele>78.0</ele><time>2026-04-26T16:23:32Z</time></trkpt><trkpt lat="47.2328759220505" lon="0.886634271098905"><ele>78.0</ele><time>2026-04-26T16:23:34Z</time></trkpt><trkpt lat="47.23287697751319" lon="0.8867438941174682"><ele>78.0</ele><time>2026-04-26T16:23:36Z</time></trkpt><trkpt lat="47.23287140201313" lon="0.8869241051522267"><ele>78.0</ele><time>2026-04-26T16:23:38Z</time></trkpt><trkpt lat="47.232845198044025" lon="0.8870244123161382"><ele>78.0</ele><time>2026-04-26T16:23:41Z</time></trkpt><trkpt lat="47.232867493363315" lon="0.8871171951573384"><ele>77.8</ele><time>2026-04-26T16:25:17Z</time></trkpt><trkpt lat="47.23287750171657" lon="0.8872186234401089"><ele>77.6</ele><time>2026-04-26T16:25:18Z</time></trkpt><trkpt lat="47.232867978893616" lon="0.8873273692251707"><ele>77.4</ele><time>2026-04-26T16:25:19Z</time></trkpt><trkpt lat="47.23287582066858" lon="0.887476667666981"><ele>77.2</ele><time>2026-04-26T16:25:20Z</time></trkpt><trkpt lat="47.232896061758495" lon="0.887590211279951"><ele>77.0</ele><time>2026-04-26T16:25:21Z</time></trkpt><trkpt lat="47.23291063269831" lon="0.887772432380748"><ele>76.4</ele><time>2026-04-26T16:25:22Z</time></trkpt><trkpt lat="47.23289409925283" lon="0.887936212837556"><ele>75.80000000000001</ele><time>2026-04-26T16:25:23Z</time></trkpt><trkpt lat="47.23287342815089" lon="0.8880725286183643"><ele>75.2</ele><time>2026-04-26T16:25:24Z</time></trkpt><trkpt lat="47.232859083359784" lon="0.8882283560576235"><ele>74.60000000000001</ele><time>2026-04-26T16:25:25Z</time></trkpt><trkpt lat="47.23283035086966" lon="0.8883811031397506"><ele>74.0</ele><time>2026-04-26T16:25:26Z</time></trkpt><trkpt lat="47.232799797118076" lon="0.8885318066357863"><ele>73.8</ele><time>2026-04-26T16:25:27Z</time></trkpt><trkpt lat="47.232756113291806" lon="0.8886660740123385"><ele>73.60000000000001</ele><time>2026-04-26T16:25:28Z</time></trkpt><trkpt lat="47.232700063969915" lon="0.8887987899768869"><ele>73.4</ele><time>2026-04-26T16:25:29Z</time></trkpt><trkpt lat="47.232654875040225" lon="0.8889217219170085"><ele>73.2</ele><time>2026-04-26T16:25:30Z</time></trkpt><trkpt lat="47.23261773551719" lon="0.8890486240739687"><ele>73.0</ele><time>2026-04-26T16:25:31Z</time></trkpt><trkpt lat="47.232608628453356" lon="0.8891786574469369"><ele>73.0</ele><time>2026-04-26T16:25:32Z</time></trkpt><trkpt lat="47.232629025934095" lon="0.889313368615071"><ele>73.0</ele><time>2026-04-26T16:25:33Z</time></trkpt><trkpt lat="47.232664559303764" lon="0.8894540812634555"><ele>73.0</ele><time>2026-04-26T16:25:34Z</time></trkpt><trkpt lat="47.232698207812646" lon="0.8896143705026615"><ele>73.0</ele><time>2026-04-26T16:25:35Z</time></trkpt><trkpt lat="47.2327526698057" lon="0.8897725096622547"><ele>73.0</ele><time>2026-04-26T16:25:36Z</time></trkpt><trkpt lat="47.23279536934606" lon="0.8899328582952658"><ele>73.0</ele><time>2026-04-26T16:25:37Z</time></trkpt><trkpt lat="47.23283188632236" lon="0.8900864569326042"><ele>73.0</ele><time>2026-04-26T16:25:38Z</time></trkpt><trkpt lat="47.23286553722722" lon="0.8902412498013244"><ele>73.0</ele><time>2026-04-26T16:25:39Z</time></trkpt><trkpt lat="47.232893883189305" lon="0.8903922420568674"><ele>73.0</ele><time>2026-04-26T16:25:40Z</time></trkpt><trkpt lat="47.232909695018094" lon="0.8905390496934492"><ele>73.0</ele><time>2026-04-26T16:25:41Z</time></trkpt><trkpt lat="47.232905382983304" lon="0.8906612584000729"><ele>74.0</ele><time>2026-04-26T16:25:42Z</time></trkpt><trkpt lat="47.23288807083737" lon="0.8907541056988381"><ele>75.0</ele><time>2026-04-26T16:25:43Z</time></trkpt><trkpt lat="47.23283997526018" lon="0.8908855794365587"><ele>76.0</ele><time>2026-04-26T16:25:45Z</time></trkpt><trkpt lat="47.23278590595356" lon="0.8909800032556134"><ele>77.0</ele><time>2026-04-26T16:25:46Z</time></trkpt><trkpt lat="47.23270188652076" lon="0.8910828124745684"><ele>78.0</ele><time>2026-04-26T16:25:47Z</time></trkpt><trkpt lat="47.23260469384239" lon="0.8911822161439021"><ele>78.66666666666667</ele><time>2026-04-26T16:25:48Z</time></trkpt><trkpt lat="47.23250079872432" lon="0.891181735251742"><ele>79.33333333333333</ele><time>2026-04-26T16:25:49Z</time></trkpt><trkpt lat="47.232430595489426" lon="0.8911389682280144"><ele>80.0</ele><time>2026-04-26T16:25:50Z</time></trkpt><trkpt lat="47.232354077501135" lon="0.8911350644697787"><ele>80.66666666666666</ele><time>2026-04-26T16:25:51Z</time></trkpt><trkpt lat="47.23227785033403" lon="0.8911178984296191"><ele>81.33333333333333</ele><time>2026-04-26T16:25:52Z</time></trkpt><trkpt lat="47.23219095145469" lon="0.8911143448493479"><ele>82.0</ele><time>2026-04-26T16:25:53Z</time></trkpt><trkpt lat="47.23209041504227" lon="0.8911079369930279"><ele>82.83333333333333</ele><time>2026-04-26T16:25:54Z</time></trkpt><trkpt lat="47.23199003520322" lon="0.8911188960425291"><ele>83.66666666666666</ele><time>2026-04-26T16:25:55Z</time></trkpt><trkpt lat="47.23191005884175" lon="0.8911761613699377"><ele>84.5</ele><time>2026-04-26T16:25:55.999Z</time></trkpt><trkpt lat="47.23186482365179" lon="0.8912901488821733"><ele>85.33333333333333</ele><time>2026-04-26T16:25:56.999Z</time></trkpt><trkpt lat="47.2318206835196" lon="0.8913921000991608"><ele>86.16666666666667</ele><time>2026-04-26T16:25:57.999Z</time></trkpt><trkpt lat="47.23178552242195" lon="0.8914915134470293"><ele>87.0</ele><time>2026-04-26T16:25:58.999Z</time></trkpt><trkpt lat="47.23175508925937" lon="0.891596922284491"><ele>87.0</ele><time>2026-04-26T16:25:59.999Z</time></trkpt><trkpt lat="47.231724897840756" lon="0.8916916864021309"><ele>87.0</ele><time>2026-04-26T16:26:00.999Z</time></trkpt><trkpt lat="47.231691424107176" lon="0.8917739452122844"><ele>87.0</ele><time>2026-04-26T16:26:01.999Z</time></trkpt><trkpt lat="47.23165799751229" lon="0.8918623242966411"><ele>87.0</ele><time>2026-04-26T16:26:02.999Z</time></trkpt><trkpt lat="47.23158995359667" lon="0.8920110220070337"><ele>87.0</ele><time>2026-04-26T16:26:04.999Z</time></trkpt><trkpt lat="47.23156016405919" lon="0.8920952103793436"><ele>87.0</ele><time>2026-04-26T16:26:05.999Z</time></trkpt><trkpt lat="47.23152927677339" lon="0.8921797672215777"><ele>87.5</ele><time>2026-04-26T16:26:06.999Z</time></trkpt><trkpt lat="47.23150240726557" lon="0.8922742014914201"><ele>88.0</ele><time>2026-04-26T16:26:07.999Z</time></trkpt><trkpt lat="47.231457792977864" lon="0.8923671234430742"><ele>88.5</ele><time>2026-04-26T16:26:08.999Z</time></trkpt><trkpt lat="47.2314111828473" lon="0.8924780393143485"><ele>89.0</ele><time>2026-04-26T16:26:09.999Z</time></trkpt><trkpt lat="47.23136108028118" lon="0.8925995104993846"><ele>89.5</ele><time>2026-04-26T16:26:10.999Z</time></trkpt><trkpt lat="47.23130923032182" lon="0.8927237405604257"><ele>90.0</ele><time>2026-04-26T16:26:11.999Z</time></trkpt><trkpt lat="47.231252695615304" lon="0.8928494849567647"><ele>90.4</ele><time>2026-04-26T16:26:12.999Z</time></trkpt><trkpt lat="47.23119216650775" lon="0.8929792619152099"><ele>90.8</ele><time>2026-04-26T16:26:13.999Z</time></trkpt><trkpt lat="47.23114131531414" lon="0.8931196603806628"><ele>91.19999999999999</ele><time>2026-04-26T16:26:14.999Z</time></trkpt><trkpt lat="47.23107680052261" lon="0.8932560595709166"><ele>91.6</ele><time>2026-04-26T16:26:15.999Z</time></trkpt><trkpt lat="47.23101273345891" lon="0.8933931363326888"><ele>92.0</ele><time>2026-04-26T16:26:16.999Z</time></trkpt><trkpt lat="47.23094732913253" lon="0.8935493220818564"><ele>92.0</ele><time>2026-04-26T16:26:17.999Z</time></trkpt><trkpt lat="47.230878394829496" lon="0.8937006622755531"><ele>92.0</ele><time>2026-04-26T16:26:18.999Z</time></trkpt><trkpt lat="47.230810041109095" lon="0.8938459753236747"><ele>92.0</ele><time>2026-04-26T16:26:19.999Z</time></trkpt><trkpt lat="47.230744902898984" lon="0.8939870730068568"><ele>92.0</ele><time>2026-04-26T16:26:20.999Z</time></trkpt><trkpt lat="47.23068236193061" lon="0.894127532121844"><ele>92.0</ele><time>2026-04-26T16:26:21.999Z</time></trkpt><trkpt lat="47.23062046040842" lon="0.8942652420864302"><ele>92.0</ele><time>2026-04-26T16:26:22.999Z</time></trkpt><trkpt lat="47.23055992570861" lon="0.8944026815925158"><ele>92.0</ele><time>2026-04-26T16:26:23.999Z</time></trkpt><trkpt lat="47.23049776653907" lon="0.8945361018387642"><ele>92.0</ele><time>2026-04-26T16:26:24.999Z</time></trkpt><trkpt lat="47.23043657224583" lon="0.8946664133088685"><ele>92.0</ele><time>2026-04-26T16:26:25.999Z</time></trkpt><trkpt lat="47.23037556764213" lon="0.8948004507690931"><ele>92.0</ele><time>2026-04-26T16:26:26.999Z</time></trkpt><trkpt lat="47.23031145892729" lon="0.8949353354453143"><ele>92.0</ele><time>2026-04-26T16:26:28Z</time></trkpt><trkpt lat="47.23024378551244" lon="0.8950603569130373"><ele>92.0</ele><time>2026-04-26T16:26:29Z</time></trkpt><trkpt lat="47.23018245622419" lon="0.8951911631481141"><ele>92.0</ele><time>2026-04-26T16:26:30Z</time></trkpt><trkpt lat="47.230121197022996" lon="0.8953152061180355"><ele>92.0</ele><time>2026-04-26T16:26:31Z</time></trkpt><trkpt lat="47.230064831419845" lon="0.8954249471000066"><ele>92.0</ele><time>2026-04-26T16:26:32Z</time></trkpt><trkpt lat="47.23000981556565" lon="0.8955350391381871"><ele>92.0</ele><time>2026-04-26T16:26:33Z</time></trkpt><trkpt lat="47.229967099476106" lon="0.8956304966213277"><ele>92.0</ele><time>2026-04-26T16:26:34Z</time></trkpt><trkpt lat="47.22990931911055" lon="0.8957188881240589"><ele>92.0</ele><time>2026-04-26T16:26:35Z</time></trkpt><trkpt lat="47.22986523374068" lon="0.8958219153173367"><ele>92.0</ele><time>2026-04-26T16:26:36Z</time></trkpt><trkpt lat="47.22982130461152" lon="0.8959245773736302"><ele>92.0</ele><time>2026-04-26T16:26:37Z</time></trkpt><trkpt lat="47.22978192505614" lon="0.8960166071161226"><ele>91.66666666666667</ele><time>2026-04-26T16:26:38Z</time></trkpt><trkpt lat="47.22971705944086" lon="0.8961681975925481"><ele>91.33333333333334</ele><time>2026-04-26T16:26:40Z</time></trkpt><trkpt lat="47.229675135886396" lon="0.8962661726395333"><ele>91.0</ele><time>2026-04-26T16:26:41Z</time></trkpt><trkpt lat="47.22963350774206" lon="0.8963634573118741"><ele>90.66666666666667</ele><time>2026-04-26T16:26:42Z</time></trkpt><trkpt lat="47.22958839651818" lon="0.8964688819205519"><ele>90.33333333333333</ele><time>2026-04-26T16:26:43Z</time></trkpt><trkpt lat="47.229550755884816" lon="0.8965568478124212"><ele>90.0</ele><time>2026-04-26T16:26:44Z</time></trkpt><trkpt lat="47.22950847287214" lon="0.8966944839740777"><ele>89.8</ele><time>2026-04-26T16:26:46Z</time></trkpt><trkpt lat="47.22960028074221" lon="0.8968221956798936"><ele>89.6</ele><time>2026-04-26T16:27:58Z</time></trkpt><trkpt lat="47.22968681855769" lon="0.8969014119483981"><ele>89.4</ele><time>2026-04-26T16:27:59Z</time></trkpt><trkpt lat="47.22977345758761" lon="0.8969804519753217"><ele>89.2</ele><time>2026-04-26T16:28:00Z</time></trkpt><trkpt lat="47.22987223790181" lon="0.8970700801030064"><ele>89.0</ele><time>2026-04-26T16:28:01Z</time></trkpt><trkpt lat="47.22997726064505" lon="0.8971646055024605"><ele>88.75</ele><time>2026-04-26T16:28:02Z</time></trkpt><trkpt lat="47.23008341968665" lon="0.8972601536472921"><ele>88.5</ele><time>2026-04-26T16:28:02.999Z</time></trkpt><trkpt lat="47.23020021982968" lon="0.8973676613719184"><ele>88.25</ele><time>2026-04-26T16:28:03.999Z</time></trkpt><trkpt lat="47.230322984825996" lon="0.8974803260890963"><ele>88.0</ele><time>2026-04-26T16:28:04.999Z</time></trkpt><trkpt lat="47.23046335935173" lon="0.8975865878596995"><ele>88.0</ele><time>2026-04-26T16:28:05.999Z</time></trkpt><trkpt lat="47.23058024172532" lon="0.8976955253765614"><ele>88.0</ele><time>2026-04-26T16:28:06.999Z</time></trkpt><trkpt lat="47.230709430523234" lon="0.8978117850184406"><ele>88.0</ele><time>2026-04-26T16:28:07.999Z</time></trkpt><trkpt lat="47.23081152883959" lon="0.8979356133974802"><ele>88.0</ele><time>2026-04-26T16:28:08.999Z</time></trkpt><trkpt lat="47.230906127437024" lon="0.8980254460960654"><ele>88.4</ele><time>2026-04-26T16:28:09.999Z</time></trkpt><trkpt lat="47.23099918229301" lon="0.8980942865479873"><ele>88.80000000000001</ele><time>2026-04-26T16:28:10.999Z</time></trkpt><trkpt lat="47.231088060922424" lon="0.8981815133724564"><ele>89.2</ele><time>2026-04-26T16:28:11.999Z</time></trkpt><trkpt lat="47.2311656224604" lon="0.8982883384907996"><ele>89.6</ele><time>2026-04-26T16:28:12.999Z</time></trkpt><trkpt lat="47.23123556500641" lon="0.8983817374004036"><ele>90.0</ele><time>2026-04-26T16:28:13.999Z</time></trkpt><trkpt lat="47.2312771938152" lon="0.8984722428613879"><ele>89.2</ele><time>2026-04-26T16:28:14.999Z</time></trkpt><trkpt lat="47.23125859548206" lon="0.8985825763052947"><ele>88.4</ele><time>2026-04-26T16:28:15.999Z</time></trkpt><trkpt lat="47.23125851326839" lon="0.8987222737550403"><ele>87.6</ele><time>2026-04-26T16:28:16.999Z</time></trkpt><trkpt lat="47.23125445983465" lon="0.8988878704829164"><ele>86.8</ele><time>2026-04-26T16:28:17.999Z</time></trkpt><trkpt lat="47.23125617189641" lon="0.899071253368385"><ele>86.0</ele><time>2026-04-26T16:28:18.999Z</time></trkpt><trkpt lat="47.23126752738903" lon="0.8992753144743076"><ele>84.75</ele><time>2026-04-26T16:28:19.999Z</time></trkpt><trkpt lat="47.231284165395586" lon="0.8994979909311864"><ele>83.5</ele><time>2026-04-26T16:28:20.999Z</time></trkpt><trkpt lat="47.23130266328753" lon="0.8997145173720927"><ele>82.25</ele><time>2026-04-26T16:28:21.999Z</time></trkpt><trkpt lat="47.23131282115872" lon="0.8999123582925209"><ele>81.0</ele><time>2026-04-26T16:28:22.999Z</time></trkpt><trkpt lat="47.23130909459047" lon="0.900087320234055"><ele>79.6</ele><time>2026-04-26T16:28:23.999Z</time></trkpt><trkpt lat="47.23128697985144" lon="0.9002554103085697"><ele>78.19999999999999</ele><time>2026-04-26T16:28:24.999Z</time></trkpt><trkpt lat="47.23125126989853" lon="0.9004146321870036"><ele>76.80000000000001</ele><time>2026-04-26T16:28:25.999Z</time></trkpt><trkpt lat="47.23121183441997" lon="0.900569167841194"><ele>75.4</ele><time>2026-04-26T16:28:26.999Z</time></trkpt><trkpt lat="47.23118230242853" lon="0.9006942182251926"><ele>74.0</ele><time>2026-04-26T16:28:27.999Z</time></trkpt><trkpt lat="47.23116055772214" lon="0.9007862941181486"><ele>72.25</ele><time>2026-04-26T16:28:28.999Z</time></trkpt><trkpt lat="47.23115273369801" lon="0.9009534500802936"><ele>70.5</ele><time>2026-04-26T16:28:34Z</time></trkpt><trkpt lat="47.2310997575797" lon="0.9011057499113316"><ele>68.75</ele><time>2026-04-26T16:28:35Z</time></trkpt><trkpt lat="47.23102635062881" lon="0.9012869531970473"><ele>67.0</ele><time>2026-04-26T16:28:36Z</time></trkpt><trkpt lat="47.23094983585821" lon="0.9014829532781022"><ele>67.0</ele><time>2026-04-26T16:28:37Z</time></trkpt><trkpt lat="47.23086590207184" lon="0.9016947168635846"><ele>67.0</ele><time>2026-04-26T16:28:38Z</time></trkpt><trkpt lat="47.230777378327915" lon="0.9019176999235576"><ele>67.0</ele><time>2026-04-26T16:28:39Z</time></trkpt><trkpt lat="47.23069053653784" lon="0.9021512930418882"><ele>67.33333333333333</ele><time>2026-04-26T16:28:40Z</time></trkpt><trkpt lat="47.23059962682935" lon="0.9023874118563814"><ele>67.66666666666667</ele><time>2026-04-26T16:28:41Z</time></trkpt><trkpt lat="47.23051066280094" lon="0.9026383015217352"><ele>68.0</ele><time>2026-04-26T16:28:42Z</time></trkpt><trkpt lat="47.23042430159907" lon="0.9029027380505886"><ele>67.33333333333334</ele><time>2026-04-26T16:28:43Z</time></trkpt><trkpt lat="47.23035500175141" lon="0.9031811920680929"><ele>66.66666666666667</ele><time>2026-04-26T16:28:44Z</time></trkpt><trkpt lat="47.23028045011139" lon="0.9034663950532572"><ele>66.0</ele><time>2026-04-26T16:28:45Z</time></trkpt><trkpt lat="47.23021596540162" lon="0.9037668820218672"><ele>66.0</ele><time>2026-04-26T16:28:46Z</time></trkpt><trkpt lat="47.23015009816173" lon="0.9040654012562331"><ele>66.0</ele><time>2026-04-26T16:28:47Z</time></trkpt><trkpt lat="47.23008202433833" lon="0.9043675840088569"><ele>66.0</ele><time>2026-04-26T16:28:48Z</time></trkpt><trkpt lat="47.23001970507178" lon="0.9046661279272157"><ele>66.0</ele><time>2026-04-26T16:28:49Z</time></trkpt><trkpt lat="47.22995298508283" lon="0.9049669353332376"><ele>66.0</ele><time>2026-04-26T16:28:50Z</time></trkpt><trkpt lat="47.22988000008255" lon="0.9052603806191706"><ele>66.0</ele><time>2026-04-26T16:28:51Z</time></trkpt><trkpt lat="47.22978236909688" lon="0.9055210466409382"><ele>66.0</ele><time>2026-04-26T16:28:52Z</time></trkpt><trkpt lat="47.22965876434796" lon="0.9057390980263306"><ele>66.0</ele><time>2026-04-26T16:28:53Z</time></trkpt><trkpt lat="47.229543660879806" lon="0.9059617850041238"><ele>66.0</ele><time>2026-04-26T16:28:54Z</time></trkpt><trkpt lat="47.22939802165947" lon="0.9061192199393229"><ele>65.66666666666667</ele><time>2026-04-26T16:28:55Z</time></trkpt><trkpt lat="47.22926871590987" lon="0.9062706184274127"><ele>65.33333333333334</ele><time>2026-04-26T16:28:56Z</time></trkpt><trkpt lat="47.229129958019286" lon="0.9064564841861088"><ele>65.0</ele><time>2026-04-26T16:28:57Z</time></trkpt><trkpt lat="47.2290064664402" lon="0.9067051295736438"><ele>66.66666666666667</ele><time>2026-04-26T16:28:58Z</time></trkpt><trkpt lat="47.228883008522786" lon="0.9069093590131589"><ele>68.33333333333333</ele><time>2026-04-26T16:28:59Z</time></trkpt><trkpt lat="47.22876573237193" lon="0.9071137445709196"><ele>70.0</ele><time>2026-04-26T16:29:00Z</time></trkpt><trkpt lat="47.22866216266628" lon="0.9073380994219294"><ele>70.0</ele><time>2026-04-26T16:29:01Z</time></trkpt><trkpt lat="47.22857061774333" lon="0.9075694844888023"><ele>70.0</ele><time>2026-04-26T16:29:02Z</time></trkpt><trkpt lat="47.22847394931543" lon="0.9078247859377554"><ele>70.0</ele><time>2026-04-26T16:29:03Z</time></trkpt><trkpt lat="47.228384786949334" lon="0.9080994928606475"><ele>69.6</ele><time>2026-04-26T16:29:04Z</time></trkpt><trkpt lat="47.22835309473635" lon="0.9081822429026055"><ele>69.2</ele><time>2026-04-26T16:29:05Z</time></trkpt><trkpt lat="47.22830402656775" lon="0.9083567589297978"><ele>68.8</ele><time>2026-04-26T16:29:06Z</time></trkpt><trkpt lat="47.22826881642621" lon="0.9085237145604356"><ele>68.4</ele><time>2026-04-26T16:29:07Z</time></trkpt><trkpt lat="47.228236359549996" lon="0.908695439176257"><ele>68.0</ele><time>2026-04-26T16:29:08Z</time></trkpt><trkpt lat="47.22820775418794" lon="0.9088645556648967"><ele>68.0</ele><time>2026-04-26T16:29:09Z</time></trkpt><trkpt lat="47.228182390288744" lon="0.909027483241957"><ele>68.0</ele><time>2026-04-26T16:29:10Z</time></trkpt><trkpt lat="47.22815806818847" lon="0.9091661522437082"><ele>68.0</ele><time>2026-04-26T16:29:11Z</time></trkpt><trkpt lat="47.22814115655825" lon="0.9092801856279942"><ele>68.0</ele><time>2026-04-26T16:29:12Z</time></trkpt><trkpt lat="47.2281306564539" lon="0.9093789863591785"><ele>68.0</ele><time>2026-04-26T16:29:13Z</time></trkpt><trkpt lat="47.22811668200956" lon="0.9094851469536238"><ele>68.0</ele><time>2026-04-26T16:29:14Z</time></trkpt><trkpt lat="47.22810445392927" lon="0.9095868462081929"><ele>68.0</ele><time>2026-04-26T16:29:15Z</time></trkpt><trkpt lat="47.22810019288635" lon="0.9097067710789956"><ele>68.0</ele><time>2026-04-26T16:29:16Z</time></trkpt><trkpt lat="47.2281078928561" lon="0.90984077899077"><ele>68.0</ele><time>2026-04-26T16:29:17Z</time></trkpt><trkpt lat="47.22812352228876" lon="0.9100039617921852"><ele>68.0</ele><time>2026-04-26T16:29:18Z</time></trkpt><trkpt lat="47.228085730428575" lon="0.9101640792950807"><ele>68.0</ele><time>2026-04-26T16:29:19Z</time></trkpt><trkpt lat="47.22806938093793" lon="0.910333957377296"><ele>67.6</ele><time>2026-04-26T16:29:20Z</time></trkpt><trkpt lat="47.228055472999756" lon="0.9104796517656613"><ele>67.19999999999999</ele><time>2026-04-26T16:29:21Z</time></trkpt><trkpt lat="47.22805715789054" lon="0.910617717494857"><ele>66.8</ele><time>2026-04-26T16:29:22Z</time></trkpt><trkpt lat="47.22805538857679" lon="0.9107656514666624"><ele>66.39999999999999</ele><time>2026-04-26T16:29:23Z</time></trkpt><trkpt lat="47.228048811684694" lon="0.9109097571931162"><ele>66.0</ele><time>2026-04-26T16:29:24Z</time></trkpt><trkpt lat="47.228042447315815" lon="0.9110500659757286"><ele>65.8</ele><time>2026-04-26T16:29:25Z</time></trkpt><trkpt lat="47.22803521446325" lon="0.9111964989055241"><ele>65.6</ele><time>2026-04-26T16:29:26Z</time></trkpt><trkpt lat="47.22802558212335" lon="0.9113393683923813"><ele>65.4</ele><time>2026-04-26T16:29:27Z</time></trkpt><trkpt lat="47.22801691959184" lon="0.911478750233467"><ele>65.2</ele><time>2026-04-26T16:29:28Z</time></trkpt><trkpt lat="47.22800576842536" lon="0.9116060685737017"><ele>65.0</ele><time>2026-04-26T16:29:29Z</time></trkpt><trkpt lat="47.22799218083442" lon="0.9117460092983289"><ele>64.8</ele><time>2026-04-26T16:29:30Z</time></trkpt><trkpt lat="47.2279828390339" lon="0.9118644401603798"><ele>64.6</ele><time>2026-04-26T16:29:31Z</time></trkpt><trkpt lat="47.22795495860531" lon="0.912004741842326"><ele>64.4</ele><time>2026-04-26T16:29:32Z</time></trkpt><trkpt lat="47.22793403399817" lon="0.9121448798586652"><ele>64.2</ele><time>2026-04-26T16:29:33Z</time></trkpt><trkpt lat="47.227907372721994" lon="0.9122916857122132"><ele>64.0</ele><time>2026-04-26T16:29:34Z</time></trkpt><trkpt lat="47.22787866336374" lon="0.9124332560884137"><ele>64.16666666666666</ele><time>2026-04-26T16:29:35Z</time></trkpt><trkpt lat="47.22784423842566" lon="0.9125750182118204"><ele>64.33333333333333</ele><time>2026-04-26T16:29:36Z</time></trkpt><trkpt lat="47.22781617893605" lon="0.9126888904571844"><ele>64.5</ele><time>2026-04-26T16:29:37Z</time></trkpt><trkpt lat="47.2277829287239" lon="0.9127913145071214"><ele>64.66666666666667</ele><time>2026-04-26T16:29:38Z</time></trkpt><trkpt lat="47.22774745067921" lon="0.9128969323902488"><ele>64.83333333333334</ele><time>2026-04-26T16:29:40Z</time></trkpt><trkpt lat="47.227709293453806" lon="0.9129819528093482"><ele>65.0</ele><time>2026-04-26T16:29:42Z</time></trkpt><trkpt lat="47.2276939220768" lon="0.9130837328649213"><ele>65.0</ele><time>2026-04-26T16:29:48Z</time></trkpt><trkpt lat="47.22780504755771" lon="0.913268267463897"><ele>65.0</ele><time>2026-04-26T16:29:51Z</time></trkpt><trkpt lat="47.2278353035954" lon="0.9133625806032827"><ele>65.0</ele><time>2026-04-26T16:29:53Z</time></trkpt><trkpt lat="47.2279338423729" lon="0.9136316634614313"><ele>65.0</ele><time>2026-04-26T16:29:55Z</time></trkpt><trkpt lat="47.22795058982445" lon="0.9137565628666939"><ele>64.83333333333334</ele><time>2026-04-26T16:29:56Z</time></trkpt><trkpt lat="47.22796311311593" lon="0.9138763810742421"><ele>64.66666666666667</ele><time>2026-04-26T16:29:57Z</time></trkpt><trkpt lat="47.22796956333864" lon="0.9140004480673032"><ele>64.5</ele><time>2026-04-26T16:29:58Z</time></trkpt><trkpt lat="47.22797470865238" lon="0.9141238298690615"><ele>64.33333333333333</ele><time>2026-04-26T16:29:59Z</time></trkpt><trkpt lat="47.227979845341885" lon="0.9142433958626637"><ele>64.16666666666666</ele><time>2026-04-26T16:30:00Z</time></trkpt><trkpt lat="47.22799557465185" lon="0.9143500543802049"><ele>64.0</ele><time>2026-04-26T16:30:01Z</time></trkpt><trkpt lat="47.22797851571893" lon="0.9144914787655188"><ele>63.83333333333333</ele><time>2026-04-26T16:30:03Z</time></trkpt><trkpt lat="47.22795169050699" lon="0.9146410916476573"><ele>63.666666666666664</ele><time>2026-04-26T16:31:11Z</time></trkpt><trkpt lat="47.227923809676675" lon="0.9147444010971704"><ele>63.5</ele><time>2026-04-26T16:31:12Z</time></trkpt><trkpt lat="47.22787542301432" lon="0.9148477582414036"><ele>63.33333333333333</ele><time>2026-04-26T16:31:13Z</time></trkpt><trkpt lat="47.22783008641609" lon="0.9149575817697607"><ele>63.166666666666664</ele><time>2026-04-26T16:31:14Z</time></trkpt><trkpt lat="47.2277967518357" lon="0.915037327992067"><ele>63.0</ele><time>2026-04-26T16:31:15Z</time></trkpt><trkpt lat="47.22776713308145" lon="0.915121139196113"><ele>63.0</ele><time>2026-04-26T16:31:16Z</time></trkpt><trkpt lat="47.227723177310104" lon="0.9152229990548513"><ele>63.0</ele><time>2026-04-26T16:31:17Z</time></trkpt><trkpt lat="47.2278234607321" lon="0.9153839223677165"><ele>63.0</ele><time>2026-04-26T16:31:22Z</time></trkpt><trkpt lat="47.22791036692541" lon="0.9153991911548133"><ele>63.0</ele><time>2026-04-26T16:31:23Z</time></trkpt><trkpt lat="47.22799035507841" lon="0.9154505881427472"><ele>63.0</ele><time>2026-04-26T16:31:24Z</time></trkpt><trkpt lat="47.228095616016965" lon="0.9154652256183848"><ele>62.5</ele><time>2026-04-26T16:31:25Z</time></trkpt><trkpt lat="47.22820930438492" lon="0.9155091884707275"><ele>62.0</ele><time>2026-04-26T16:31:26Z</time></trkpt><trkpt lat="47.228331462279414" lon="0.9155556129123392"><ele>61.5</ele><time>2026-04-26T16:31:27Z</time></trkpt><trkpt lat="47.228457526952454" lon="0.9156012066776955"><ele>61.0</ele><time>2026-04-26T16:31:28Z</time></trkpt><trkpt lat="47.22858806890995" lon="0.9156726235055059"><ele>61.0</ele><time>2026-04-26T16:31:29Z</time></trkpt><trkpt lat="47.22872553572345" lon="0.9157240166736544"><ele>61.0</ele><time>2026-04-26T16:31:30Z</time></trkpt><trkpt lat="47.228871833907945" lon="0.9157587074557347"><ele>61.0</ele><time>2026-04-26T16:31:31Z</time></trkpt><trkpt lat="47.229018657123184" lon="0.9158174322358974"><ele>61.0</ele><time>2026-04-26T16:31:32Z</time></trkpt><trkpt lat="47.229168878551995" lon="0.9158741601611095"><ele>61.666666666666664</ele><time>2026-04-26T16:31:33Z</time></trkpt><trkpt lat="47.22932282876714" lon="0.9159181838687809"><ele>62.33333333333333</ele><time>2026-04-26T16:31:34Z</time></trkpt><trkpt lat="47.22948194875165" lon="0.9159633485112256"><ele>63.0</ele><time>2026-04-26T16:31:35Z</time></trkpt><trkpt lat="47.22964085750893" lon="0.916006095977608"><ele>63.0</ele><time>2026-04-26T16:31:36Z</time></trkpt><trkpt lat="47.22978218128707" lon="0.9160341350980177"><ele>63.0</ele><time>2026-04-26T16:31:37Z</time></trkpt><trkpt lat="47.22990557958628" lon="0.9160574851590098"><ele>63.0</ele><time>2026-04-26T16:31:38Z</time></trkpt><trkpt lat="47.23000766616542" lon="0.9160789770844625"><ele>63.0</ele><time>2026-04-26T16:31:39Z</time></trkpt><trkpt lat="47.230101483017314" lon="0.9161062743693446"><ele>63.0</ele><time>2026-04-26T16:31:40Z</time></trkpt><trkpt lat="47.230186957445156" lon="0.9161275576285987"><ele>63.0</ele><time>2026-04-26T16:31:41Z</time></trkpt><trkpt lat="47.23026111134246" lon="0.9161421089078543"><ele>63.0</ele><time>2026-04-26T16:31:42Z</time></trkpt><trkpt lat="47.230326276868404" lon="0.9161565521876469"><ele>63.0</ele><time>2026-04-26T16:31:43Z</time></trkpt><trkpt lat="47.23043558790903" lon="0.9161815349239055"><ele>63.0</ele><time>2026-04-26T16:31:45Z</time></trkpt><trkpt lat="47.23054515176706" lon="0.9162037113317278"><ele>63.0</ele><time>2026-04-26T16:31:47Z</time></trkpt><trkpt lat="47.23061386048967" lon="0.9162175517940663"><ele>63.0</ele><time>2026-04-26T16:31:48Z</time></trkpt><trkpt lat="47.23068578970029" lon="0.916236047957438"><ele>63.0</ele><time>2026-04-26T16:31:49Z</time></trkpt><trkpt lat="47.230759986435075" lon="0.9162532061678693"><ele>63.0</ele><time>2026-04-26T16:31:50Z</time></trkpt><trkpt lat="47.23083731278364" lon="0.9162716861480549"><ele>63.0</ele><time>2026-04-26T16:31:51Z</time></trkpt><trkpt lat="47.230926752117774" lon="0.9162929905515546"><ele>63.0</ele><time>2026-04-26T16:31:52Z</time></trkpt><trkpt lat="47.23102884739028" lon="0.9163167767871201"><ele>63.0</ele><time>2026-04-26T16:31:53Z</time></trkpt><trkpt lat="47.231131957775816" lon="0.9163378706489229"><ele>63.0</ele><time>2026-04-26T16:31:54Z</time></trkpt><trkpt lat="47.23123619565815" lon="0.9163638272495399"><ele>63.0</ele><time>2026-04-26T16:31:55Z</time></trkpt><trkpt lat="47.23133592016431" lon="0.9163857542993219"><ele>63.0</ele><time>2026-04-26T16:31:56Z</time></trkpt><trkpt lat="47.23143282717605" lon="0.9164052090988253"><ele>63.0</ele><time>2026-04-26T16:31:57Z</time></trkpt><trkpt lat="47.231527848384616" lon="0.9164318874283609"><ele>63.0</ele><time>2026-04-26T16:31:58Z</time></trkpt><trkpt lat="47.23162270356699" lon="0.9164450174383267"><ele>63.4</ele><time>2026-04-26T16:31:59Z</time></trkpt><trkpt lat="47.23171982161011" lon="0.9164684288009601"><ele>63.8</ele><time>2026-04-26T16:32:00Z</time></trkpt><trkpt lat="47.2318240103781" lon="0.9164870013665719"><ele>64.2</ele><time>2026-04-26T16:32:01Z</time></trkpt><trkpt lat="47.23192902078661" lon="0.9165044174614753"><ele>64.6</ele><time>2026-04-26T16:32:02Z</time></trkpt><trkpt lat="47.23202727835877" lon="0.9165245273016592"><ele>65.0</ele><time>2026-04-26T16:32:03Z</time></trkpt><trkpt lat="47.232115087485504" lon="0.916553535094345"><ele>65.0</ele><time>2026-04-26T16:32:04Z</time></trkpt><trkpt lat="47.23219039445849" lon="0.9165880029924218"><ele>65.0</ele><time>2026-04-26T16:32:05Z</time></trkpt><trkpt lat="47.232266620157326" lon="0.9166440397749759"><ele>65.0</ele><time>2026-04-26T16:32:06Z</time></trkpt><trkpt lat="47.232332934668946" lon="0.9167287133456284"><ele>65.0</ele><time>2026-04-26T16:32:07Z</time></trkpt><trkpt lat="47.232382242608985" lon="0.916839927468668"><ele>65.0</ele><time>2026-04-26T16:32:08Z</time></trkpt><trkpt lat="47.232403811679866" lon="0.9169612700180696"><ele>65.0</ele><time>2026-04-26T16:32:09Z</time></trkpt><trkpt lat="47.232410020259536" lon="0.917089279510705"><ele>66.0</ele><time>2026-04-26T16:32:10Z</time></trkpt><trkpt lat="47.232410090609214" lon="0.9172204659801994"><ele>67.0</ele><time>2026-04-26T16:32:11Z</time></trkpt><trkpt lat="47.232410901730724" lon="0.9173647737394939"><ele>68.0</ele><time>2026-04-26T16:32:12Z</time></trkpt><trkpt lat="47.2324156491059" lon="0.9175011395948185"><ele>69.0</ele><time>2026-04-26T16:32:13Z</time></trkpt><trkpt lat="47.2324209341241" lon="0.9176372890519805"><ele>70.0</ele><time>2026-04-26T16:32:14Z</time></trkpt><trkpt lat="47.23242697024358" lon="0.9177882096381089"><ele>70.0</ele><time>2026-04-26T16:32:15Z</time></trkpt><trkpt lat="47.23242946711204" lon="0.9179346037442893"><ele>70.0</ele><time>2026-04-26T16:32:16Z</time></trkpt><trkpt lat="47.232439181603766" lon="0.9180517510150941"><ele>70.0</ele><time>2026-04-26T16:32:17Z</time></trkpt><trkpt lat="47.23247448231984" lon="0.9181421304752757"><ele>70.0</ele><time>2026-04-26T16:32:18Z</time></trkpt><trkpt lat="47.23252900046907" lon="0.9182147527222334"><ele>70.0</ele><time>2026-04-26T16:32:19Z</time></trkpt><trkpt lat="47.23258148237573" lon="0.9182766756799764"><ele>70.0</ele><time>2026-04-26T16:32:20Z</time></trkpt><trkpt lat="47.23264334100889" lon="0.9183228257602667"><ele>70.0</ele><time>2026-04-26T16:32:21Z</time></trkpt><trkpt lat="47.23271028260868" lon="0.9183678018033186"><ele>70.0</ele><time>2026-04-26T16:32:22Z</time></trkpt><trkpt lat="47.23278819761205" lon="0.9184225961917408"><ele>70.0</ele><time>2026-04-26T16:32:23Z</time></trkpt><trkpt lat="47.23287453073384" lon="0.9184824191685483"><ele>70.0</ele><time>2026-04-26T16:32:23.999Z</time></trkpt><trkpt lat="47.23296839662103" lon="0.9185459082987006"><ele>70.0</ele><time>2026-04-26T16:32:24.999Z</time></trkpt><trkpt lat="47.23306663163958" lon="0.9186091828499717"><ele>73.5</ele><time>2026-04-26T16:32:25.999Z</time></trkpt><trkpt lat="47.23316987403203" lon="0.9186756957415811"><ele>77.0</ele><time>2026-04-26T16:32:26.999Z</time></trkpt><trkpt lat="47.23327462058106" lon="0.9187363241901286"><ele>80.5</ele><time>2026-04-26T16:32:27.999Z</time></trkpt><trkpt lat="47.233385508308665" lon="0.9187869594900502"><ele>84.0</ele><time>2026-04-26T16:32:28.999Z</time></trkpt><trkpt lat="47.233502052395096" lon="0.9188406102765043"><ele>84.0</ele><time>2026-04-26T16:32:29.999Z</time></trkpt><trkpt lat="47.23361914525118" lon="0.9188885117478541"><ele>84.0</ele><time>2026-04-26T16:32:30.999Z</time></trkpt><trkpt lat="47.23373510957953" lon="0.9189367288112704"><ele>84.0</ele><time>2026-04-26T16:32:31.999Z</time></trkpt><trkpt lat="47.233854224812895" lon="0.91897780402099"><ele>84.0</ele><time>2026-04-26T16:32:32.999Z</time></trkpt><trkpt lat="47.233974127227945" lon="0.9190185147479966"><ele>84.5</ele><time>2026-04-26T16:32:33.999Z</time></trkpt><trkpt lat="47.23408926475472" lon="0.9190697492797908"><ele>85.0</ele><time>2026-04-26T16:32:34.999Z</time></trkpt><trkpt lat="47.23420742298523" lon="0.9191112272395703"><ele>85.5</ele><time>2026-04-26T16:32:35.999Z</time></trkpt><trkpt lat="47.23433221839588" lon="0.9191553282322059"><ele>86.0</ele><time>2026-04-26T16:32:36.999Z</time></trkpt><trkpt lat="47.2344710307677" lon="0.9192081672909174"><ele>87.0</ele><time>2026-04-26T16:32:37.999Z</time></trkpt><trkpt lat="47.23461183847557" lon="0.9192629594502058"><ele>88.0</ele><time>2026-04-26T16:32:38.999Z</time></trkpt><trkpt lat="47.234758627626356" lon="0.9193160181405109"><ele>89.0</ele><time>2026-04-26T16:32:39.999Z</time></trkpt><trkpt lat="47.23490552433587" lon="0.9193678816677937"><ele>90.0</ele><time>2026-04-26T16:32:40.999Z</time></trkpt><trkpt lat="47.23504947686153" lon="0.9194235228785425"><ele>90.0</ele><time>2026-04-26T16:32:41.999Z</time></trkpt><trkpt lat="47.23518021535861" lon="0.9194732965321171"><ele>90.0</ele><time>2026-04-26T16:32:42.999Z</time></trkpt><trkpt lat="47.23529496477501" lon="0.9195180186124129"><ele>90.0</ele><time>2026-04-26T16:32:43.999Z</time></trkpt><trkpt lat="47.23538449074495" lon="0.9195498037093781"><ele>90.0</ele><time>2026-04-26T16:32:45Z</time></trkpt><trkpt lat="47.23546474214753" lon="0.9196861423006787"><ele>90.0</ele><time>2026-04-26T16:32:47Z</time></trkpt><trkpt lat="47.23543380350096" lon="0.9198338531133158"><ele>90.0</ele><time>2026-04-26T16:32:48Z</time></trkpt><trkpt lat="47.23544399492241" lon="0.9199972265222777"><ele>90.0</ele><time>2026-04-26T16:32:49Z</time></trkpt><trkpt lat="47.23546440310512" lon="0.920181844479139"><ele>90.0</ele><time>2026-04-26T16:32:50Z</time></trkpt><trkpt lat="47.23546017465505" lon="0.9203703999130476"><ele>90.75</ele><time>2026-04-26T16:32:51Z</time></trkpt><trkpt lat="47.2354679321237" lon="0.9205761151615188"><ele>91.5</ele><time>2026-04-26T16:32:52Z</time></trkpt><trkpt lat="47.23547539398347" lon="0.92078275766491"><ele>92.25</ele><time>2026-04-26T16:32:53Z</time></trkpt><trkpt lat="47.23547545375985" lon="0.9209858526710683"><ele>93.0</ele><time>2026-04-26T16:32:54Z</time></trkpt><trkpt lat="47.23550061160374" lon="0.9211826832674778"><ele>93.0</ele><time>2026-04-26T16:32:55Z</time></trkpt><trkpt lat="47.23552376202989" lon="0.9213066670177148"><ele>93.0</ele><time>2026-04-26T16:32:56Z</time></trkpt><trkpt lat="47.235545027685" lon="0.9214138795213699"><ele>93.0</ele><time>2026-04-26T16:32:57Z</time></trkpt><trkpt lat="47.2355922905015" lon="0.9214798613654999"><ele>93.0</ele><time>2026-04-26T16:32:58Z</time></trkpt><trkpt lat="47.23552027941775" lon="0.9216474770857076"><ele>93.0</ele><time>2026-04-26T16:32:59Z</time></trkpt><trkpt lat="47.23565371602466" lon="0.921753503289992"><ele>94.2</ele><time>2026-04-26T16:33:02Z</time></trkpt><trkpt lat="47.23575016174166" lon="0.9218081355713309"><ele>95.4</ele><time>2026-04-26T16:33:03Z</time></trkpt><trkpt lat="47.235856794222386" lon="0.9218785626924518"><ele>96.60000000000001</ele><time>2026-04-26T16:33:04Z</time></trkpt><trkpt lat="47.235956440814626" lon="0.9219324495715844"><ele>97.80000000000001</ele><time>2026-04-26T16:33:05Z</time></trkpt><trkpt lat="47.23604796787732" lon="0.9219962114216078"><ele>99.0</ele><time>2026-04-26T16:33:06Z</time></trkpt><trkpt lat="47.236119972004495" lon="0.9220355872017891"><ele>99.0</ele><time>2026-04-26T16:33:07Z</time></trkpt><trkpt lat="47.23621425853581" lon="0.9221138748976603"><ele>99.0</ele><time>2026-04-26T16:33:09Z</time></trkpt><trkpt lat="47.236292647658324" lon="0.9220150744392392"><ele>99.0</ele><time>2026-04-26T16:33:11Z</time></trkpt><trkpt lat="47.23629948740365" lon="0.9218846608784832"><ele>99.0</ele><time>2026-04-26T16:33:12Z</time></trkpt><trkpt lat="47.236365147609" lon="0.9218481728128688"><ele>99.0</ele><time>2026-04-26T16:33:14Z</time></trkpt><trkpt lat="47.23638435995917" lon="0.921992152295683"><ele>99.0</ele><time>2026-04-26T16:33:16Z</time></trkpt><trkpt lat="47.23639292271064" lon="0.9220983088989156"><ele>99.0</ele><time>2026-04-26T16:33:17Z</time></trkpt><trkpt lat="47.23640543152112" lon="0.9222457107203265"><ele>99.0</ele><time>2026-04-26T16:33:18Z</time></trkpt><trkpt lat="47.23642139956919" lon="0.9224171381499453"><ele>99.0</ele><time>2026-04-26T16:33:19Z</time></trkpt><trkpt lat="47.23643394852663" lon="0.9226062685770166"><ele>99.0</ele><time>2026-04-26T16:33:20Z</time></trkpt><trkpt lat="47.23645506447316" lon="0.9227923674100299"><ele>99.5</ele><time>2026-04-26T16:33:21Z</time></trkpt><trkpt lat="47.23653200370264" lon="0.9229339800475335"><ele>100.0</ele><time>2026-04-26T16:33:22Z</time></trkpt><trkpt lat="47.23662427849879" lon="0.9230474828497162"><ele>100.5</ele><time>2026-04-26T16:33:23Z</time></trkpt><trkpt lat="47.236709422932336" lon="0.9231831221182006"><ele>101.0</ele><time>2026-04-26T16:33:24Z</time></trkpt><trkpt lat="47.236787867715016" lon="0.9233249169330334"><ele>101.5</ele><time>2026-04-26T16:33:25Z</time></trkpt><trkpt lat="47.236868406717385" lon="0.9234745898976608"><ele>102.0</ele><time>2026-04-26T16:33:26Z</time></trkpt><trkpt lat="47.23693158154342" lon="0.923620768275504"><ele>102.5</ele><time>2026-04-26T16:33:27Z</time></trkpt><trkpt lat="47.23698025110001" lon="0.9237744926536318"><ele>103.0</ele><time>2026-04-26T16:33:28Z</time></trkpt><trkpt lat="47.23703285869643" lon="0.9239144164271917"><ele>103.0</ele><time>2026-04-26T16:33:29Z</time></trkpt><trkpt lat="47.23708955676102" lon="0.9240646820296535"><ele>103.0</ele><time>2026-04-26T16:33:30Z</time></trkpt><trkpt lat="47.237162490620285" lon="0.9242337395716023"><ele>103.0</ele><time>2026-04-26T16:33:31Z</time></trkpt><trkpt lat="47.237228883012094" lon="0.9244088831590206"><ele>103.0</ele><time>2026-04-26T16:33:32Z</time></trkpt><trkpt lat="47.237299734037855" lon="0.9245946941709384"><ele>103.0</ele><time>2026-04-26T16:33:33Z</time></trkpt><trkpt lat="47.23735155102092" lon="0.9247934080283483"><ele>103.0</ele><time>2026-04-26T16:33:34Z</time></trkpt><trkpt lat="47.23736572228145" lon="0.9249986922250908"><ele>103.0</ele><time>2026-04-26T16:33:35Z</time></trkpt><trkpt lat="47.23736159407955" lon="0.9252204668268078"><ele>103.0</ele><time>2026-04-26T16:33:36Z</time></trkpt><trkpt lat="47.23740227012028" lon="0.9254360016682817"><ele>103.66666666666667</ele><time>2026-04-26T16:33:37Z</time></trkpt><trkpt lat="47.237448308782454" lon="0.925659653800782"><ele>104.33333333333334</ele><time>2026-04-26T16:33:38Z</time></trkpt><trkpt lat="47.23748108002746" lon="0.9258952093353751"><ele>105.0</ele><time>2026-04-26T16:33:39Z</time></trkpt><trkpt lat="47.237497880357076" lon="0.9261446898412561"><ele>105.0</ele><time>2026-04-26T16:33:40Z</time></trkpt><trkpt lat="47.237513786961834" lon="0.9263661370764376"><ele>105.0</ele><time>2026-04-26T16:33:41Z</time></trkpt><trkpt lat="47.23751182093099" lon="0.9265559472740736"><ele>105.0</ele><time>2026-04-26T16:33:42Z</time></trkpt><trkpt lat="47.237542307820995" lon="0.926722147524544"><ele>105.0</ele><time>2026-04-26T16:33:43Z</time></trkpt><trkpt lat="47.237599988319644" lon="0.9268676458114988"><ele>104.75</ele><time>2026-04-26T16:33:44Z</time></trkpt><trkpt lat="47.23766736242412" lon="0.9269913174770337"><ele>104.5</ele><time>2026-04-26T16:33:45Z</time></trkpt><trkpt lat="47.23774116331035" lon="0.9271114038256402"><ele>104.25</ele><time>2026-04-26T16:33:46Z</time></trkpt><trkpt lat="47.23782502655146" lon="0.9272295769211328"><ele>104.0</ele><time>2026-04-26T16:33:47Z</time></trkpt><trkpt lat="47.237930210739556" lon="0.9273372885602992"><ele>104.0</ele><time>2026-04-26T16:33:48Z</time></trkpt><trkpt lat="47.23802382106723" lon="0.9274779580545579"><ele>104.0</ele><time>2026-04-26T16:33:49Z</time></trkpt><trkpt lat="47.238112758793584" lon="0.927621610552912"><ele>104.0</ele><time>2026-04-26T16:33:50Z</time></trkpt><trkpt lat="47.23820933501296" lon="0.9277732833938496"><ele>104.0</ele><time>2026-04-26T16:33:51Z</time></trkpt><trkpt lat="47.23830577275071" lon="0.9279339507741653"><ele>104.25</ele><time>2026-04-26T16:33:52Z</time></trkpt><trkpt lat="47.23837652375262" lon="0.9280715745811844"><ele>104.5</ele><time>2026-04-26T16:33:53Z</time></trkpt><trkpt lat="47.238412060048105" lon="0.9281853595723139"><ele>104.75</ele><time>2026-04-26T16:33:54Z</time></trkpt><trkpt lat="47.23842451133016" lon="0.9283487129468299"><ele>105.0</ele><time>2026-04-26T16:33:55Z</time></trkpt><trkpt lat="47.23840662404993" lon="0.9285550292930197"><ele>105.0</ele><time>2026-04-26T16:33:56Z</time></trkpt><trkpt lat="47.23838267314444" lon="0.9287603177698588"><ele>105.0</ele><time>2026-04-26T16:33:57Z</time></trkpt><trkpt lat="47.23835469986103" lon="0.9289729123677983"><ele>105.0</ele><time>2026-04-26T16:33:58Z</time></trkpt><trkpt lat="47.2383318315155" lon="0.9291998347561483"><ele>105.0</ele><time>2026-04-26T16:33:59Z</time></trkpt><trkpt lat="47.238306512985794" lon="0.929444699839874"><ele>104.75</ele><time>2026-04-26T16:34:00Z</time></trkpt><trkpt lat="47.23828566591756" lon="0.9296908065305161"><ele>104.5</ele><time>2026-04-26T16:34:01Z</time></trkpt><trkpt lat="47.238256857429434" lon="0.9299100854300343"><ele>104.25</ele><time>2026-04-26T16:34:02Z</time></trkpt><trkpt lat="47.23823619998443" lon="0.9300973224780152"><ele>104.0</ele><time>2026-04-26T16:34:03Z</time></trkpt><trkpt lat="47.23821902198479" lon="0.9302639463163624"><ele>103.80000000000001</ele><time>2026-04-26T16:34:04Z</time></trkpt><trkpt lat="47.238204335632524" lon="0.9303898156821564"><ele>103.60000000000001</ele><time>2026-04-26T16:34:05Z</time></trkpt><trkpt lat="47.2381774863569" lon="0.9304972559045938"><ele>103.4</ele><time>2026-04-26T16:34:07Z</time></trkpt><trkpt lat="47.23809129004107" lon="0.9305615566098467"><ele>103.2</ele><time>2026-04-26T16:34:08Z</time></trkpt><trkpt lat="47.23800176477506" lon="0.9306891473394868"><ele>103.0</ele><time>2026-04-26T16:34:09Z</time></trkpt><trkpt lat="47.23790207533468" lon="0.9308312239650572"><ele>103.0</ele><time>2026-04-26T16:34:10Z</time></trkpt><trkpt lat="47.237798233003595" lon="0.9309792192918627"><ele>103.0</ele><time>2026-04-26T16:34:11Z</time></trkpt><trkpt lat="47.23768745723233" lon="0.9311370960740416"><ele>103.0</ele><time>2026-04-26T16:34:12Z</time></trkpt><trkpt lat="47.23757587669157" lon="0.9312979376892491"><ele>103.0</ele><time>2026-04-26T16:34:12.999Z</time></trkpt><trkpt lat="47.23747503812146" lon="0.9314843036217029"><ele>103.0</ele><time>2026-04-26T16:34:13.999Z</time></trkpt><trkpt lat="47.237339829254765" lon="0.9316417286731625"><ele>103.0</ele><time>2026-04-26T16:34:14.999Z</time></trkpt><trkpt lat="47.23721367840733" lon="0.9318136905934319"><ele>102.33333333333334</ele><time>2026-04-26T16:34:15.999Z</time></trkpt><trkpt lat="47.23708577227447" lon="0.9319851172271784"><ele>101.66666666666666</ele><time>2026-04-26T16:34:16.999Z</time></trkpt><trkpt lat="47.23695816611979" lon="0.9321563526794429"><ele>101.0</ele><time>2026-04-26T16:34:17.999Z</time></trkpt><trkpt lat="47.236853481498905" lon="0.9323015511080596"><ele>101.0</ele><time>2026-04-26T16:34:18.999Z</time></trkpt><trkpt lat="47.23675916065821" lon="0.9324414206106582"><ele>101.0</ele><time>2026-04-26T16:34:19.999Z</time></trkpt><trkpt lat="47.23668880573367" lon="0.9325725158779401"><ele>101.0</ele><time>2026-04-26T16:34:20.999Z</time></trkpt><trkpt lat="47.236646884401985" lon="0.9327024271915567"><ele>101.0</ele><time>2026-04-26T16:34:21.999Z</time></trkpt><trkpt lat="47.23664023510793" lon="0.9328474079538133"><ele>101.0</ele><time>2026-04-26T16:34:22.999Z</time></trkpt><trkpt lat="47.236679718761664" lon="0.9329982804211042"><ele>101.5</ele><time>2026-04-26T16:34:23.999Z</time></trkpt><trkpt lat="47.236759673348175" lon="0.9331478352785193"><ele>102.0</ele><time>2026-04-26T16:34:24.999Z</time></trkpt><trkpt lat="47.236841945437426" lon="0.9333140787868293"><ele>102.5</ele><time>2026-04-26T16:34:25.999Z</time></trkpt><trkpt lat="47.23691215376844" lon="0.9335003378414766"><ele>103.0</ele><time>2026-04-26T16:34:26.999Z</time></trkpt><trkpt lat="47.23698283508776" lon="0.9336901048816616"><ele>103.5</ele><time>2026-04-26T16:34:27.999Z</time></trkpt><trkpt lat="47.237050379817894" lon="0.933878629666645"><ele>104.0</ele><time>2026-04-26T16:34:28.999Z</time></trkpt><trkpt lat="47.23712447597429" lon="0.9340718300920994"><ele>104.5</ele><time>2026-04-26T16:34:29.999Z</time></trkpt><trkpt lat="47.237196888989374" lon="0.934267087021139"><ele>105.0</ele><time>2026-04-26T16:34:30.999Z</time></trkpt><trkpt lat="47.23726857076119" lon="0.9344623307622304"><ele>104.75</ele><time>2026-04-26T16:34:31.999Z</time></trkpt><trkpt lat="47.237342044316314" lon="0.9346593228405158"><ele>104.5</ele><time>2026-04-26T16:34:32.999Z</time></trkpt><trkpt lat="47.237413324008266" lon="0.9348441117781139"><ele>104.25</ele><time>2026-04-26T16:34:33.999Z</time></trkpt><trkpt lat="47.23748173071803" lon="0.9350358712302096"><ele>104.0</ele><time>2026-04-26T16:34:34.999Z</time></trkpt><trkpt lat="47.23755978623126" lon="0.9352334073012242"><ele>104.0</ele><time>2026-04-26T16:34:35.999Z</time></trkpt><trkpt lat="47.23763797846565" lon="0.9354515804575884"><ele>104.0</ele><time>2026-04-26T16:34:36.999Z</time></trkpt><trkpt lat="47.23771571055493" lon="0.9356802556656721"><ele>104.0</ele><time>2026-04-26T16:34:37.999Z</time></trkpt><trkpt lat="47.237803623762865" lon="0.9358941003814093"><ele>103.5</ele><time>2026-04-26T16:34:38.999Z</time></trkpt><trkpt lat="47.23786562221463" lon="0.936113158633154"><ele>103.0</ele><time>2026-04-26T16:34:39.999Z</time></trkpt><trkpt lat="47.23793522901935" lon="0.9363021227283186"><ele>102.5</ele><time>2026-04-26T16:34:40.999Z</time></trkpt><trkpt lat="47.238010589341705" lon="0.936459759850978"><ele>102.0</ele><time>2026-04-26T16:34:41.999Z</time></trkpt><trkpt lat="47.238067925299674" lon="0.9366166410873994"><ele>101.6</ele><time>2026-04-26T16:34:42.999Z</time></trkpt><trkpt lat="47.23810401049184" lon="0.9367673106169625"><ele>101.19999999999999</ele><time>2026-04-26T16:34:43.999Z</time></trkpt><trkpt lat="47.238147528252995" lon="0.9368874153971777"><ele>100.8</ele><time>2026-04-26T16:34:44.999Z</time></trkpt><trkpt lat="47.23818881216146" lon="0.9370013549963484"><ele>100.4</ele><time>2026-04-26T16:34:45.999Z</time></trkpt><trkpt lat="47.23822806061996" lon="0.937109676936569"><ele>100.0</ele><time>2026-04-26T16:34:46.999Z</time></trkpt><trkpt lat="47.23827822936402" lon="0.9372481378096997"><ele>99.25</ele><time>2026-04-26T16:34:47.999Z</time></trkpt><trkpt lat="47.238337451207286" lon="0.9374115843792356"><ele>98.5</ele><time>2026-04-26T16:34:48.999Z</time></trkpt><trkpt lat="47.2384150374656" lon="0.9375866985174913"><ele>97.75</ele><time>2026-04-26T16:34:50Z</time></trkpt><trkpt lat="47.23848654655572" lon="0.9377897783009568"><ele>97.0</ele><time>2026-04-26T16:34:51Z</time></trkpt><trkpt lat="47.238559984124414" lon="0.9380071413066103"><ele>95.66666666666667</ele><time>2026-04-26T16:34:52Z</time></trkpt><trkpt lat="47.238644143391504" lon="0.9382256001352111"><ele>94.33333333333334</ele><time>2026-04-26T16:34:53Z</time></trkpt><trkpt lat="47.23872625400319" lon="0.938455143986912"><ele>93.0</ele><time>2026-04-26T16:34:54Z</time></trkpt><trkpt lat="47.23880811876946" lon="0.9386908481492158"><ele>93.0</ele><time>2026-04-26T16:34:55Z</time></trkpt><trkpt lat="47.23890048138225" lon="0.9389271018981219"><ele>93.0</ele><time>2026-04-26T16:34:56Z</time></trkpt><trkpt lat="47.23899023484624" lon="0.9391715812604942"><ele>93.0</ele><time>2026-04-26T16:34:57Z</time></trkpt><trkpt lat="47.2390765418289" lon="0.9394144951724834"><ele>93.0</ele><time>2026-04-26T16:34:58Z</time></trkpt><trkpt lat="47.23915260748003" lon="0.9396359031409288"><ele>93.0</ele><time>2026-04-26T16:34:59Z</time></trkpt><trkpt lat="47.23921880258039" lon="0.9398350405502288"><ele>93.0</ele><time>2026-04-26T16:35:00Z</time></trkpt><trkpt lat="47.23928075728288" lon="0.9400047191310403"><ele>93.0</ele><time>2026-04-26T16:35:01Z</time></trkpt><trkpt lat="47.23934030312301" lon="0.9401522530685272"><ele>93.0</ele><time>2026-04-26T16:35:02Z</time></trkpt><trkpt lat="47.23938788489616" lon="0.9402871431586101"><ele>93.0</ele><time>2026-04-26T16:35:03Z</time></trkpt><trkpt lat="47.23943032101415" lon="0.9404021795533339"><ele>93.0</ele><time>2026-04-26T16:35:04Z</time></trkpt><trkpt lat="47.239468010840056" lon="0.9405035959956203"><ele>93.0</ele><time>2026-04-26T16:35:05Z</time></trkpt><trkpt lat="47.239513695439484" lon="0.940618818743942"><ele>93.0</ele><time>2026-04-26T16:35:06Z</time></trkpt><trkpt lat="47.23953637607043" lon="0.9407399403483732"><ele>93.0</ele><time>2026-04-26T16:35:07Z</time></trkpt><trkpt lat="47.23956077172915" lon="0.940847548899075"><ele>93.0</ele><time>2026-04-26T16:35:08Z</time></trkpt><trkpt lat="47.239585289824085" lon="0.9409520293691264"><ele>93.0</ele><time>2026-04-26T16:35:09Z</time></trkpt><trkpt lat="47.239613318438295" lon="0.9410595239964085"><ele>93.0</ele><time>2026-04-26T16:35:10Z</time></trkpt><trkpt lat="47.23962530995878" lon="0.9411714508452367"><ele>93.0</ele><time>2026-04-26T16:35:11Z</time></trkpt><trkpt lat="47.239728119411105" lon="0.9413068130724973"><ele>94.0</ele><time>2026-04-26T16:35:12Z</time></trkpt><trkpt lat="47.23971925101484" lon="0.9414029941097655"><ele>95.0</ele><time>2026-04-26T16:35:13Z</time></trkpt><trkpt lat="47.24010958380406" lon="0.9413308575847665"><ele>95.25</ele><time>2026-04-26T16:35:14Z</time></trkpt><trkpt lat="47.24023556643553" lon="0.9413956972488952"><ele>95.5</ele><time>2026-04-26T16:35:15Z</time></trkpt><trkpt lat="47.24035962601203" lon="0.9414690681271772"><ele>95.75</ele><time>2026-04-26T16:35:16Z</time></trkpt><trkpt lat="47.24048013683852" lon="0.9415571288728198"><ele>96.0</ele><time>2026-04-26T16:35:17Z</time></trkpt><trkpt lat="47.2405910604112" lon="0.9416250396381326"><ele>96.83333333333333</ele><time>2026-04-26T16:35:18Z</time></trkpt><trkpt lat="47.24067670286035" lon="0.941674314468068"><ele>97.66666666666666</ele><time>2026-04-26T16:35:19Z</time></trkpt><trkpt lat="47.24075444766642" lon="0.9417633167479327"><ele>98.5</ele><time>2026-04-26T16:35:21Z</time></trkpt><trkpt lat="47.24074272052621" lon="0.9418634145524429"><ele>99.33333333333333</ele><time>2026-04-26T16:35:22Z</time></trkpt><trkpt lat="47.24070906050235" lon="0.941989919913949"><ele>100.16666666666666</ele><time>2026-04-26T16:35:23Z</time></trkpt><trkpt lat="47.240666871179485" lon="0.9420992035364292"><ele>101.0</ele><time>2026-04-26T16:35:24Z</time></trkpt><trkpt lat="47.2406391287519" lon="0.9422340208365968"><ele>100.33333333333333</ele><time>2026-04-26T16:35:25Z</time></trkpt><trkpt lat="47.24061931072795" lon="0.942349662490218"><ele>99.66666666666666</ele><time>2026-04-26T16:35:26Z</time></trkpt><trkpt lat="47.24060071784045" lon="0.9424623929946419"><ele>99.0</ele><time>2026-04-26T16:35:27Z</time></trkpt><trkpt lat="47.24058331078876" lon="0.9425770310759368"><ele>98.33333333333334</ele><time>2026-04-26T16:35:28Z</time></trkpt><trkpt lat="47.240560054468276" lon="0.942686193618326"><ele>97.66666666666667</ele><time>2026-04-26T16:35:29Z</time></trkpt><trkpt lat="47.24053943913465" lon="0.9427828335079598"><ele>97.0</ele><time>2026-04-26T16:35:30Z</time></trkpt><trkpt lat="47.24052722612455" lon="0.9428842763740118"><ele>96.83333333333334</ele><time>2026-04-26T16:35:31Z</time></trkpt><trkpt lat="47.24051224961891" lon="0.9429869046295954"><ele>96.66666666666667</ele><time>2026-04-26T16:35:32Z</time></trkpt><trkpt lat="47.24050150854848" lon="0.9430904016658103"><ele>96.5</ele><time>2026-04-26T16:35:33Z</time></trkpt><trkpt lat="47.24048676615917" lon="0.943182792533591"><ele>96.33333333333334</ele><time>2026-04-26T16:35:34Z</time></trkpt><trkpt lat="47.24047299665728" lon="0.943276703224982"><ele>96.16666666666667</ele><time>2026-04-26T16:35:35Z</time></trkpt><trkpt lat="47.24044236898189" lon="0.9434709376349724"><ele>96.0</ele><time>2026-04-26T16:35:37Z</time></trkpt><trkpt lat="47.24041881580292" lon="0.9435879914761579"><ele>96.33333333333333</ele><time>2026-04-26T16:35:38Z</time></trkpt><trkpt lat="47.24039692375686" lon="0.9437084806177733"><ele>96.66666666666666</ele><time>2026-04-26T16:35:39Z</time></trkpt><trkpt lat="47.2403759678796" lon="0.9438186899540718"><ele>97.0</ele><time>2026-04-26T16:35:40Z</time></trkpt><trkpt lat="47.24035708931733" lon="0.9439285346569213"><ele>97.33333333333333</ele><time>2026-04-26T16:35:41Z</time></trkpt><trkpt lat="47.240339879110984" lon="0.9440265223286205"><ele>97.66666666666666</ele><time>2026-04-26T16:35:42Z</time></trkpt><trkpt lat="47.24032132199928" lon="0.9441323850332437"><ele>98.0</ele><time>2026-04-26T16:35:43Z</time></trkpt><trkpt lat="47.2403163679367" lon="0.9442471269434992"><ele>97.99999999999999</ele><time>2026-04-26T16:35:44Z</time></trkpt><trkpt lat="47.240330675446586" lon="0.9443585247191217"><ele>98.0</ele><time>2026-04-26T16:35:45Z</time></trkpt><trkpt lat="47.24035982631067" lon="0.9444553048409479"><ele>98.0</ele><time>2026-04-26T16:35:46Z</time></trkpt><trkpt lat="47.24040082998542" lon="0.9445562267203724"><ele>98.0</ele><time>2026-04-26T16:35:47Z</time></trkpt><trkpt lat="47.240446349677875" lon="0.9446814151160332"><ele>97.99999999999999</ele><time>2026-04-26T16:35:48Z</time></trkpt><trkpt lat="47.240488488706454" lon="0.9448288911926578"><ele>98.0</ele><time>2026-04-26T16:35:49Z</time></trkpt><trkpt lat="47.240522697402994" lon="0.9449945141393643"><ele>98.25</ele><time>2026-04-26T16:35:50Z</time></trkpt><trkpt lat="47.240571892128514" lon="0.9451508420229351"><ele>98.5</ele><time>2026-04-26T16:35:51Z</time></trkpt><trkpt lat="47.24063309706476" lon="0.9453076059265391"><ele>98.75</ele><time>2026-04-26T16:35:52Z</time></trkpt><trkpt lat="47.24068787439149" lon="0.945504165746773"><ele>99.0</ele><time>2026-04-26T16:35:53Z</time></trkpt><trkpt lat="47.24073729708474" lon="0.9457060669972261"><ele>98.33333333333334</ele><time>2026-04-26T16:35:54Z</time></trkpt><trkpt lat="47.240793687082714" lon="0.9459258807852196"><ele>97.66666666666667</ele><time>2026-04-26T16:35:55Z</time></trkpt><trkpt lat="47.24085084118761" lon="0.9461401370573295"><ele>97.0</ele><time>2026-04-26T16:35:56Z</time></trkpt><trkpt lat="47.24091376361916" lon="0.9463518732812396"><ele>97.0</ele><time>2026-04-26T16:35:57Z</time></trkpt><trkpt lat="47.24096103551206" lon="0.9465517269577514"><ele>97.0</ele><time>2026-04-26T16:35:58Z</time></trkpt><trkpt lat="47.24100193306232" lon="0.9467227723129378"><ele>97.0</ele><time>2026-04-26T16:35:59Z</time></trkpt><trkpt lat="47.241038325390704" lon="0.9468883797969918"><ele>97.0</ele><time>2026-04-26T16:36:00Z</time></trkpt><trkpt lat="47.241090079320635" lon="0.9470550985692706"><ele>95.5</ele><time>2026-04-26T16:36:01Z</time></trkpt><trkpt lat="47.24116475172041" lon="0.9471960161581087"><ele>94.0</ele><time>2026-04-26T16:36:02Z</time></trkpt><trkpt lat="47.24126770267674" lon="0.9473128979001961"><ele>92.5</ele><time>2026-04-26T16:36:03Z</time></trkpt><trkpt lat="47.241366430575425" lon="0.9474526454502844"><ele>91.0</ele><time>2026-04-26T16:36:04Z</time></trkpt><trkpt lat="47.24144705079404" lon="0.9476215147558822"><ele>90.33333333333333</ele><time>2026-04-26T16:36:05Z</time></trkpt><trkpt lat="47.24152063083345" lon="0.9478219524818329"><ele>89.66666666666667</ele><time>2026-04-26T16:36:06Z</time></trkpt><trkpt lat="47.24160229088403" lon="0.948029278940654"><ele>89.0</ele><time>2026-04-26T16:36:07Z</time></trkpt><trkpt lat="47.24166885920735" lon="0.9482350970537895"><ele>89.33333333333334</ele><time>2026-04-26T16:36:08Z</time></trkpt><trkpt lat="47.24174353499122" lon="0.9484408055616116"><ele>89.66666666666667</ele><time>2026-04-26T16:36:09Z</time></trkpt><trkpt lat="47.241832336172514" lon="0.9486379493280126"><ele>90.0</ele><time>2026-04-26T16:36:10Z</time></trkpt><trkpt lat="47.24190933805513" lon="0.9488386233192381"><ele>90.0</ele><time>2026-04-26T16:36:10.999Z</time></trkpt><trkpt lat="47.24198135129343" lon="0.9490455798461582"><ele>90.0</ele><time>2026-04-26T16:36:11.999Z</time></trkpt><trkpt lat="47.242050834530474" lon="0.9492477112795977"><ele>90.0</ele><time>2026-04-26T16:36:12.999Z</time></trkpt><trkpt lat="47.24211317458236" lon="0.9494365303937022"><ele>89.75</ele><time>2026-04-26T16:36:13.999Z</time></trkpt><trkpt lat="47.24218648372963" lon="0.9496098242596741"><ele>89.5</ele><time>2026-04-26T16:36:14.999Z</time></trkpt><trkpt lat="47.24228302734366" lon="0.949739054280361"><ele>89.25</ele><time>2026-04-26T16:36:15.999Z</time></trkpt><trkpt lat="47.24236723364338" lon="0.9499017349440019"><ele>89.0</ele><time>2026-04-26T16:36:16.999Z</time></trkpt><trkpt lat="47.242451165410664" lon="0.9500649643034114"><ele>89.75</ele><time>2026-04-26T16:36:17.999Z</time></trkpt><trkpt lat="47.24254229770279" lon="0.9502198751489835"><ele>90.5</ele><time>2026-04-26T16:36:18.999Z</time></trkpt><trkpt lat="47.2426398631249" lon="0.9503670567060291"><ele>91.25</ele><time>2026-04-26T16:36:19.999Z</time></trkpt><trkpt lat="47.24272659814817" lon="0.9505282390500073"><ele>92.0</ele><time>2026-04-26T16:36:20.999Z</time></trkpt><trkpt lat="47.24281687989438" lon="0.9506993030570923"><ele>92.0</ele><time>2026-04-26T16:36:21.999Z</time></trkpt><trkpt lat="47.242922637521616" lon="0.9508590476018974"><ele>92.0</ele><time>2026-04-26T16:36:22.999Z</time></trkpt><trkpt lat="47.24303741608902" lon="0.9509963418012453"><ele>92.0</ele><time>2026-04-26T16:36:23.999Z</time></trkpt><trkpt lat="47.24315374817932" lon="0.951126082613861"><ele>92.0</ele><time>2026-04-26T16:36:24.999Z</time></trkpt><trkpt lat="47.243274156600094" lon="0.9512688622888701"><ele>92.66666666666667</ele><time>2026-04-26T16:36:25.999Z</time></trkpt><trkpt lat="47.243385911761784" lon="0.9514176014114474"><ele>93.33333333333333</ele><time>2026-04-26T16:36:26.999Z</time></trkpt><trkpt lat="47.24350009582115" lon="0.9515712439920366"><ele>94.0</ele><time>2026-04-26T16:36:27.999Z</time></trkpt><trkpt lat="47.24362138097947" lon="0.9517120166908037"><ele>94.0</ele><time>2026-04-26T16:36:28.999Z</time></trkpt><trkpt lat="47.2437433130551" lon="0.951861143982748"><ele>94.0</ele><time>2026-04-26T16:36:29.999Z</time></trkpt><trkpt lat="47.24385925777601" lon="0.9520091397485195"><ele>94.0</ele><time>2026-04-26T16:36:30.999Z</time></trkpt><trkpt lat="47.24397926027935" lon="0.9521557074310352"><ele>94.25</ele><time>2026-04-26T16:36:31.999Z</time></trkpt><trkpt lat="47.244094266105385" lon="0.9523069703192474"><ele>94.5</ele><time>2026-04-26T16:36:32.999Z</time></trkpt><trkpt lat="47.24419266493781" lon="0.9524335814805944"><ele>94.75</ele><time>2026-04-26T16:36:33.999Z</time></trkpt><trkpt lat="47.24424090911445" lon="0.9525686062570121"><ele>95.0</ele><time>2026-04-26T16:36:34.999Z</time></trkpt><trkpt lat="47.244278589172666" lon="0.9527459989077214"><ele>95.0</ele><time>2026-04-26T16:36:35.999Z</time></trkpt><trkpt lat="47.24434323743597" lon="0.9529457553462766"><ele>95.0</ele><time>2026-04-26T16:36:36.999Z</time></trkpt><trkpt lat="47.24444237154282" lon="0.9531301112673229"><ele>95.0</ele><time>2026-04-26T16:36:37.999Z</time></trkpt><trkpt lat="47.244535395917396" lon="0.9533303322925994"><ele>94.8</ele><time>2026-04-26T16:36:38.999Z</time></trkpt><trkpt lat="47.24462374709288" lon="0.953494321409713"><ele>94.6</ele><time>2026-04-26T16:36:39.999Z</time></trkpt><trkpt lat="47.24470318713775" lon="0.9536195096101266"><ele>94.4</ele><time>2026-04-26T16:36:40.999Z</time></trkpt><trkpt lat="47.244757598162636" lon="0.9536694259696741"><ele>94.2</ele><time>2026-04-26T16:36:41.999Z</time></trkpt><trkpt lat="47.24480552544153" lon="0.9537478196974462"><ele>94.0</ele><time>2026-04-26T16:36:45.999Z</time></trkpt><trkpt lat="47.244891895746214" lon="0.9539398759454127"><ele>93.5</ele><time>2026-04-26T16:36:47.999Z</time></trkpt><trkpt lat="47.24497559399444" lon="0.9540917020147439"><ele>93.0</ele><time>2026-04-26T16:36:48.999Z</time></trkpt><trkpt lat="47.24505415454835" lon="0.9542702612454123"><ele>92.5</ele><time>2026-04-26T16:36:49.999Z</time></trkpt><trkpt lat="47.245136153140464" lon="0.9544649180320565"><ele>92.0</ele><time>2026-04-26T16:36:50.999Z</time></trkpt><trkpt lat="47.24522437252399" lon="0.9546617845712966"><ele>91.33333333333334</ele><time>2026-04-26T16:36:51.999Z</time></trkpt><trkpt lat="47.24531119332136" lon="0.9548686053433711"><ele>90.66666666666667</ele><time>2026-04-26T16:36:52.999Z</time></trkpt><trkpt lat="47.24540231250504" lon="0.9550869415575833"><ele>90.0</ele><time>2026-04-26T16:36:53.999Z</time></trkpt><trkpt lat="47.24549941251077" lon="0.9553043359921627"><ele>90.0</ele><time>2026-04-26T16:36:55Z</time></trkpt><trkpt lat="47.245602404217685" lon="0.9555206402484911"><ele>90.0</ele><time>2026-04-26T16:36:56Z</time></trkpt><trkpt lat="47.245707928657694" lon="0.9557344933222149"><ele>90.0</ele><time>2026-04-26T16:36:57Z</time></trkpt><trkpt lat="47.24580373673921" lon="0.955967748736042"><ele>89.33333333333333</ele><time>2026-04-26T16:36:58Z</time></trkpt><trkpt lat="47.245908177976" lon="0.9561972694839064"><ele>88.66666666666666</ele><time>2026-04-26T16:36:59Z</time></trkpt><trkpt lat="47.246011180221416" lon="0.956417314504186"><ele>88.0</ele><time>2026-04-26T16:37:00Z</time></trkpt><trkpt lat="47.246098022440854" lon="0.9566131107706201"><ele>87.66666666666666</ele><time>2026-04-26T16:37:01Z</time></trkpt><trkpt lat="47.24618145877852" lon="0.9568014730679453"><ele>87.33333333333333</ele><time>2026-04-26T16:37:02Z</time></trkpt><trkpt lat="47.24626855954577" lon="0.9569937471295624"><ele>87.0</ele><time>2026-04-26T16:37:03Z</time></trkpt><trkpt lat="47.24635210871085" lon="0.9571784618160634"><ele>87.0</ele><time>2026-04-26T16:37:04Z</time></trkpt><trkpt lat="47.24643412408031" lon="0.9573705864689837"><ele>87.0</ele><time>2026-04-26T16:37:05Z</time></trkpt><trkpt lat="47.24651473949153" lon="0.9575572093540633"><ele>87.0</ele><time>2026-04-26T16:37:06Z</time></trkpt><trkpt lat="47.246578762433" lon="0.9577463397628468"><ele>87.0</ele><time>2026-04-26T16:37:07Z</time></trkpt><trkpt lat="47.24663745810191" lon="0.9579260502591448"><ele>87.0</ele><time>2026-04-26T16:37:08Z</time></trkpt><trkpt lat="47.246717263425374" lon="0.9581158687011467"><ele>87.0</ele><time>2026-04-26T16:37:09Z</time></trkpt><trkpt lat="47.24679240371406" lon="0.9582977083323628"><ele>87.0</ele><time>2026-04-26T16:37:10Z</time></trkpt><trkpt lat="47.246856317873245" lon="0.9584828862752194"><ele>87.0</ele><time>2026-04-26T16:37:11Z</time></trkpt><trkpt lat="47.24692159246129" lon="0.9586486357725416"><ele>87.25</ele><time>2026-04-26T16:37:12Z</time></trkpt><trkpt lat="47.247002734181386" lon="0.9588007377971671"><ele>87.5</ele><time>2026-04-26T16:37:13Z</time></trkpt><trkpt lat="47.24709336413299" lon="0.9589103876694803"><ele>87.75</ele><time>2026-04-26T16:37:14Z</time></trkpt><trkpt lat="47.24715788617452" lon="0.9590285410632807"><ele>88.0</ele><time>2026-04-26T16:37:15Z</time></trkpt><trkpt lat="47.24722236205979" lon="0.9591604327503926"><ele>88.0</ele><time>2026-04-26T16:37:16Z</time></trkpt><trkpt lat="47.247280787819435" lon="0.9592798552337569"><ele>88.0</ele><time>2026-04-26T16:37:17Z</time></trkpt><trkpt lat="47.2473507987066" lon="0.9594120407615966"><ele>88.0</ele><time>2026-04-26T16:37:18Z</time></trkpt><trkpt lat="47.24741485872195" lon="0.9595755768709837"><ele>88.0</ele><time>2026-04-26T16:37:19Z</time></trkpt><trkpt lat="47.24748529091132" lon="0.9597316941642017"><ele>88.80000000000001</ele><time>2026-04-26T16:37:20Z</time></trkpt><trkpt lat="47.24755785483472" lon="0.9598766207839038"><ele>89.6</ele><time>2026-04-26T16:37:21Z</time></trkpt><trkpt lat="47.24762643939799" lon="0.9600175870383052"><ele>90.4</ele><time>2026-04-26T16:37:22Z</time></trkpt><trkpt lat="47.24767485294213" lon="0.9601362471008876"><ele>91.19999999999999</ele><time>2026-04-26T16:37:23Z</time></trkpt><trkpt lat="47.247701872815" lon="0.9602407904975429"><ele>92.0</ele><time>2026-04-26T16:37:24Z</time></trkpt><trkpt lat="47.24774085378936" lon="0.960331826111195"><ele>92.25</ele><time>2026-04-26T16:37:25Z</time></trkpt><trkpt lat="47.24778913488484" lon="0.9604694512114752"><ele>92.5</ele><time>2026-04-26T16:37:26Z</time></trkpt><trkpt lat="47.2478449444646" lon="0.9606378171633665"><ele>92.75</ele><time>2026-04-26T16:37:27Z</time></trkpt><trkpt lat="47.2479097965387" lon="0.9607963250713465"><ele>93.0</ele><time>2026-04-26T16:37:28Z</time></trkpt><trkpt lat="47.24797960544549" lon="0.9609514511378701"><ele>93.25</ele><time>2026-04-26T16:37:29Z</time></trkpt><trkpt lat="47.24803557025232" lon="0.9611088834067663"><ele>93.5</ele><time>2026-04-26T16:37:30Z</time></trkpt><trkpt lat="47.24808510043929" lon="0.9612762443794608"><ele>93.75</ele><time>2026-04-26T16:37:31Z</time></trkpt><trkpt lat="47.24814723795584" lon="0.9614404481403839"><ele>94.0</ele><time>2026-04-26T16:37:32Z</time></trkpt><trkpt lat="47.2481906192995" lon="0.9616104164581143"><ele>94.5</ele><time>2026-04-26T16:37:33Z</time></trkpt><trkpt lat="47.24822897934115" lon="0.96177841671688"><ele>95.0</ele><time>2026-04-26T16:37:34Z</time></trkpt><trkpt lat="47.24828223699913" lon="0.9619480593205417"><ele>95.5</ele><time>2026-04-26T16:37:35Z</time></trkpt><trkpt lat="47.24833318854416" lon="0.9621195310738183"><ele>96.0</ele><time>2026-04-26T16:37:36Z</time></trkpt><trkpt lat="47.24838011022141" lon="0.9622800724069919"><ele>96.0</ele><time>2026-04-26T16:37:37Z</time></trkpt><trkpt lat="47.24842874769783" lon="0.9624648793062581"><ele>96.0</ele><time>2026-04-26T16:37:38Z</time></trkpt><trkpt lat="47.24849089870647" lon="0.962652404211773"><ele>96.0</ele><time>2026-04-26T16:37:39Z</time></trkpt><trkpt lat="47.24856926787084" lon="0.9628396317801334"><ele>96.0</ele><time>2026-04-26T16:37:40Z</time></trkpt><trkpt lat="47.24864597361659" lon="0.9630235227722461"><ele>95.75</ele><time>2026-04-26T16:37:41Z</time></trkpt><trkpt lat="47.24872848837852" lon="0.963199181463023"><ele>95.5</ele><time>2026-04-26T16:37:42Z</time></trkpt><trkpt lat="47.24880569885696" lon="0.9633657046114023"><ele>95.25</ele><time>2026-04-26T16:37:43Z</time></trkpt><trkpt lat="47.24888824418965" lon="0.9635294716288216"><ele>95.0</ele><time>2026-04-26T16:37:44Z</time></trkpt><trkpt lat="47.24896252861529" lon="0.9636946478093386"><ele>95.0</ele><time>2026-04-26T16:37:45Z</time></trkpt><trkpt lat="47.249031288164524" lon="0.9638584183304426"><ele>95.0</ele><time>2026-04-26T16:37:46Z</time></trkpt><trkpt lat="47.249094272143296" lon="0.9640263670288756"><ele>95.0</ele><time>2026-04-26T16:37:47Z</time></trkpt><trkpt lat="47.249164114798305" lon="0.9641944964561293"><ele>95.0</ele><time>2026-04-26T16:37:48Z</time></trkpt><trkpt lat="47.249234520143965" lon="0.964359889557936"><ele>94.75</ele><time>2026-04-26T16:37:49Z</time></trkpt><trkpt lat="47.24930254506269" lon="0.9645279633549732"><ele>94.5</ele><time>2026-04-26T16:37:50Z</time></trkpt><trkpt lat="47.2493678388033" lon="0.9646952991359858"><ele>94.25</ele><time>2026-04-26T16:37:51Z</time></trkpt><trkpt lat="47.24942865889491" lon="0.9648600824179513"><ele>94.0</ele><time>2026-04-26T16:37:52Z</time></trkpt><trkpt lat="47.24949644180619" lon="0.9650073304933586"><ele>94.25</ele><time>2026-04-26T16:37:53Z</time></trkpt><trkpt lat="47.24956034763362" lon="0.965145381561131"><ele>94.5</ele><time>2026-04-26T16:37:54Z</time></trkpt><trkpt lat="47.24961483557782" lon="0.9652789944214847"><ele>94.75</ele><time>2026-04-26T16:37:55Z</time></trkpt><trkpt lat="47.24966510260419" lon="0.965422310022494"><ele>95.0</ele><time>2026-04-26T16:37:56Z</time></trkpt><trkpt lat="47.24973108523651" lon="0.9655889473857368"><ele>95.0</ele><time>2026-04-26T16:37:57Z</time></trkpt><trkpt lat="47.24980390748425" lon="0.9657703751689639"><ele>95.0</ele><time>2026-04-26T16:37:58Z</time></trkpt><trkpt lat="47.24987508008287" lon="0.9659553390496098"><ele>95.0</ele><time>2026-04-26T16:37:59Z</time></trkpt><trkpt lat="47.24995331134655" lon="0.966133708760657"><ele>95.0</ele><time>2026-04-26T16:38:00Z</time></trkpt><trkpt lat="47.250024315989606" lon="0.966315849844864"><ele>95.0</ele><time>2026-04-26T16:38:01Z</time></trkpt><trkpt lat="47.250097271649246" lon="0.9664971799061405"><ele>95.0</ele><time>2026-04-26T16:38:02Z</time></trkpt><trkpt lat="47.25016122713514" lon="0.9666621699495793"><ele>95.0</ele><time>2026-04-26T16:38:03Z</time></trkpt><trkpt lat="47.25022648551289" lon="0.9668148017234425"><ele>95.0</ele><time>2026-04-26T16:38:04Z</time></trkpt><trkpt lat="47.250284033185245" lon="0.9669358279245257"><ele>95.0</ele><time>2026-04-26T16:38:05Z</time></trkpt><trkpt lat="47.25033306794296" lon="0.967039858225846"><ele>95.0</ele><time>2026-04-26T16:38:05.999Z</time></trkpt><trkpt lat="47.25038369107011" lon="0.9671437285371258"><ele>95.0</ele><time>2026-04-26T16:38:06.999Z</time></trkpt><trkpt lat="47.25044464144685" lon="0.967263009221135"><ele>95.0</ele><time>2026-04-26T16:38:07.999Z</time></trkpt><trkpt lat="47.25051803816575" lon="0.9674048962011601"><ele>95.0</ele><time>2026-04-26T16:38:08.999Z</time></trkpt><trkpt lat="47.25059381277055" lon="0.9675648276561257"><ele>95.25</ele><time>2026-04-26T16:38:09.999Z</time></trkpt><trkpt lat="47.250671531759004" lon="0.9677355795334553"><ele>95.5</ele><time>2026-04-26T16:38:10.999Z</time></trkpt><trkpt lat="47.25075358197251" lon="0.967896620757261"><ele>95.75</ele><time>2026-04-26T16:38:11.999Z</time></trkpt><trkpt lat="47.250829426393196" lon="0.9680705717073685"><ele>96.0</ele><time>2026-04-26T16:38:12.999Z</time></trkpt><trkpt lat="47.250910424760214" lon="0.9682520082371073"><ele>95.75</ele><time>2026-04-26T16:38:13.999Z</time></trkpt><trkpt lat="47.25099534379463" lon="0.9684294016378949"><ele>95.5</ele><time>2026-04-26T16:38:14.999Z</time></trkpt><trkpt lat="47.25108420344675" lon="0.9686065257604247"><ele>95.25</ele><time>2026-04-26T16:38:15.999Z</time></trkpt><trkpt lat="47.251172942351076" lon="0.968784565317107"><ele>95.0</ele><time>2026-04-26T16:38:16.999Z</time></trkpt><trkpt lat="47.251260043230204" lon="0.9689667265199519"><ele>95.0</ele><time>2026-04-26T16:38:17.999Z</time></trkpt><trkpt lat="47.2513465887603" lon="0.9691398766637114"><ele>95.0</ele><time>2026-04-26T16:38:18.999Z</time></trkpt><trkpt lat="47.25142759890701" lon="0.9693230993940752"><ele>95.0</ele><time>2026-04-26T16:38:19.999Z</time></trkpt><trkpt lat="47.25151164858805" lon="0.9695002305202388"><ele>95.0</ele><time>2026-04-26T16:38:20.999Z</time></trkpt><trkpt lat="47.2515989216997" lon="0.9696716417567175"><ele>95.0</ele><time>2026-04-26T16:38:21.999Z</time></trkpt><trkpt lat="47.25168447686632" lon="0.9698386208828488"><ele>95.0</ele><time>2026-04-26T16:38:22.999Z</time></trkpt><trkpt lat="47.25175641105412" lon="0.9700193298226709"><ele>95.0</ele><time>2026-04-26T16:38:23.999Z</time></trkpt><trkpt lat="47.25183832535947" lon="0.9701815507956262"><ele>95.0</ele><time>2026-04-26T16:38:24.999Z</time></trkpt><trkpt lat="47.25192031284262" lon="0.9703420024338452"><ele>95.0</ele><time>2026-04-26T16:38:25.999Z</time></trkpt><trkpt lat="47.25199435822123" lon="0.9705095907083272"><ele>95.0</ele><time>2026-04-26T16:38:26.999Z</time></trkpt><trkpt lat="47.25207223376813" lon="0.9706860798207547"><ele>95.0</ele><time>2026-04-26T16:38:27.999Z</time></trkpt><trkpt lat="47.25215281163857" lon="0.970850412310629"><ele>95.0</ele><time>2026-04-26T16:38:28.999Z</time></trkpt><trkpt lat="47.25222693228325" lon="0.9710280818160331"><ele>95.0</ele><time>2026-04-26T16:38:29.999Z</time></trkpt><trkpt lat="47.252311002765985" lon="0.9712018739943885"><ele>95.0</ele><time>2026-04-26T16:38:30.999Z</time></trkpt><trkpt lat="47.25240833123169" lon="0.9713649150832563"><ele>95.0</ele><time>2026-04-26T16:38:31.999Z</time></trkpt><trkpt lat="47.252486996978256" lon="0.9715080256271035"><ele>95.0</ele><time>2026-04-26T16:38:32.999Z</time></trkpt><trkpt lat="47.25255471607401" lon="0.9716374118500398"><ele>94.8</ele><time>2026-04-26T16:38:33.999Z</time></trkpt><trkpt lat="47.25261278709125" lon="0.9717487161979883"><ele>94.6</ele><time>2026-04-26T16:38:34.999Z</time></trkpt><trkpt lat="47.2526754416427" lon="0.971846795145593"><ele>94.4</ele><time>2026-04-26T16:38:35.999Z</time></trkpt><trkpt lat="47.25274241123008" lon="0.9719444700078785"><ele>94.2</ele><time>2026-04-26T16:38:36.999Z</time></trkpt><trkpt lat="47.25281173467747" lon="0.9720500370761564"><ele>94.0</ele><time>2026-04-26T16:38:37.999Z</time></trkpt><trkpt lat="47.252890959470605" lon="0.9721511291203225"><ele>94.0</ele><time>2026-04-26T16:38:38.999Z</time></trkpt><trkpt lat="47.25297092488881" lon="0.972271374631923"><ele>94.0</ele><time>2026-04-26T16:38:39.999Z</time></trkpt><trkpt lat="47.25306233005098" lon="0.9724013232777364"><ele>94.0</ele><time>2026-04-26T16:38:40.999Z</time></trkpt><trkpt lat="47.25315779261535" lon="0.9725487856801328"><ele>94.0</ele><time>2026-04-26T16:38:41.999Z</time></trkpt><trkpt lat="47.253261242163546" lon="0.9727022115917546"><ele>95.0</ele><time>2026-04-26T16:38:42.999Z</time></trkpt><trkpt lat="47.25335657758872" lon="0.972874480014046"><ele>96.0</ele><time>2026-04-26T16:38:43.999Z</time></trkpt><trkpt lat="47.25346322187316" lon="0.9730337245841321"><ele>97.0</ele><time>2026-04-26T16:38:44.999Z</time></trkpt><trkpt lat="47.253577566362836" lon="0.9732015251504099"><ele>96.33333333333334</ele><time>2026-04-26T16:38:45.999Z</time></trkpt><trkpt lat="47.25370450232334" lon="0.9733581403823698"><ele>95.66666666666667</ele><time>2026-04-26T16:38:46.999Z</time></trkpt><trkpt lat="47.25382348041298" lon="0.9735288614453707"><ele>95.0</ele><time>2026-04-26T16:38:47.999Z</time></trkpt><trkpt lat="47.25393028031617" lon="0.9737191329903152"><ele>95.0</ele><time>2026-04-26T16:38:48.999Z</time></trkpt><trkpt lat="47.25405088357167" lon="0.9738961182817065"><ele>95.0</ele><time>2026-04-26T16:38:49.999Z</time></trkpt><trkpt lat="47.254169772583126" lon="0.9740705879249202"><ele>95.0</ele><time>2026-04-26T16:38:50.999Z</time></trkpt><trkpt lat="47.25429318834869" lon="0.9742517006047972"><ele>95.0</ele><time>2026-04-26T16:38:51.999Z</time></trkpt><trkpt lat="47.254414488885615" lon="0.9744309445970771"><ele>95.0</ele><time>2026-04-26T16:38:52.999Z</time></trkpt><trkpt lat="47.25454827641139" lon="0.9745952053534438"><ele>95.0</ele><time>2026-04-26T16:38:53.999Z</time></trkpt><trkpt lat="47.254660332801365" lon="0.9747964085915273"><ele>95.66666666666667</ele><time>2026-04-26T16:38:54.999Z</time></trkpt><trkpt lat="47.25479517267151" lon="0.9749647641603576"><ele>96.33333333333334</ele><time>2026-04-26T16:38:55.999Z</time></trkpt><trkpt lat="47.2549197387199" lon="0.975147688469552"><ele>97.0</ele><time>2026-04-26T16:38:56.999Z</time></trkpt><trkpt lat="47.25503058736139" lon="0.9753468175659479"><ele>97.0</ele><time>2026-04-26T16:38:57.999Z</time></trkpt><trkpt lat="47.25515443660168" lon="0.9755309280106643"><ele>97.0</ele><time>2026-04-26T16:38:58.999Z</time></trkpt><trkpt lat="47.25527695435566" lon="0.9757129561715779"><ele>97.0</ele><time>2026-04-26T16:38:59.999Z</time></trkpt><trkpt lat="47.25540295172937" lon="0.9758991298757409"><ele>96.66666666666667</ele><time>2026-04-26T16:39:01Z</time></trkpt><trkpt lat="47.25552489458077" lon="0.9760793125537469"><ele>96.33333333333334</ele><time>2026-04-26T16:39:02Z</time></trkpt><trkpt lat="47.25564663375761" lon="0.976259194279917"><ele>96.0</ele><time>2026-04-26T16:39:03Z</time></trkpt><trkpt lat="47.25576728882601" lon="0.9764374740879871"><ele>97.0</ele><time>2026-04-26T16:39:04Z</time></trkpt><trkpt lat="47.255887807831584" lon="0.9766155529440751"><ele>98.0</ele><time>2026-04-26T16:39:05Z</time></trkpt><trkpt lat="47.25600835686031" lon="0.9767936761584304"><ele>99.0</ele><time>2026-04-26T16:39:06Z</time></trkpt><trkpt lat="47.25612644815106" lon="0.9769681677764714"><ele>99.0</ele><time>2026-04-26T16:39:07Z</time></trkpt><trkpt lat="47.256246952196435" lon="0.9771466745787364"><ele>99.0</ele><time>2026-04-26T16:39:08Z</time></trkpt><trkpt lat="47.256365165486535" lon="0.9773232209284822"><ele>99.0</ele><time>2026-04-26T16:39:09Z</time></trkpt><trkpt lat="47.25648068577584" lon="0.977495746987286"><ele>99.33333333333334</ele><time>2026-04-26T16:39:10Z</time></trkpt><trkpt lat="47.25659733141404" lon="0.9776699525077033"><ele>99.66666666666667</ele><time>2026-04-26T16:39:11Z</time></trkpt><trkpt lat="47.256715187625495" lon="0.9778453546268194"><ele>100.0</ele><time>2026-04-26T16:39:12Z</time></trkpt><trkpt lat="47.25683263089022" lon="0.9780183990953372"><ele>100.0</ele><time>2026-04-26T16:39:13Z</time></trkpt><trkpt lat="47.2569500992939" lon="0.9781914369927905"><ele>100.0</ele><time>2026-04-26T16:39:14Z</time></trkpt><trkpt lat="47.257066172557245" lon="0.9783679909128101"><ele>100.0</ele><time>2026-04-26T16:39:15Z</time></trkpt><trkpt lat="47.257180085699886" lon="0.978542066207798"><ele>101.0</ele><time>2026-04-26T16:39:16Z</time></trkpt><trkpt lat="47.257297291124694" lon="0.9787210471260417"><ele>102.0</ele><time>2026-04-26T16:39:17Z</time></trkpt><trkpt lat="47.25741114492348" lon="0.978894960728411"><ele>103.0</ele><time>2026-04-26T16:39:18Z</time></trkpt><trkpt lat="47.25752326286865" lon="0.9790694512616746"><ele>102.66666666666667</ele><time>2026-04-26T16:39:19Z</time></trkpt><trkpt lat="47.257638830152175" lon="0.9792493100132713"><ele>102.33333333333334</ele><time>2026-04-26T16:39:20Z</time></trkpt><trkpt lat="47.25775325861971" lon="0.9794273968682861"><ele>102.0</ele><time>2026-04-26T16:39:21Z</time></trkpt><trkpt lat="47.257864399094245" lon="0.9796003663971754"><ele>102.0</ele><time>2026-04-26T16:39:22Z</time></trkpt><trkpt lat="47.257985784508854" lon="0.9797578903275534"><ele>102.0</ele><time>2026-04-26T16:39:23Z</time></trkpt><trkpt lat="47.258080857479335" lon="0.979943255436538"><ele>102.0</ele><time>2026-04-26T16:39:24Z</time></trkpt><trkpt lat="47.2581897422258" lon="0.9801159386702497"><ele>102.33333333333334</ele><time>2026-04-26T16:39:25Z</time></trkpt><trkpt lat="47.25829732068271" lon="0.9802861497898604"><ele>102.66666666666667</ele><time>2026-04-26T16:39:26Z</time></trkpt><trkpt lat="47.25840274967703" lon="0.9804522176279283"><ele>103.0</ele><time>2026-04-26T16:39:27Z</time></trkpt><trkpt lat="47.25850882311141" lon="0.9806193007046685"><ele>103.0</ele><time>2026-04-26T16:39:28Z</time></trkpt><trkpt lat="47.25861585005478" lon="0.9807878856256198"><ele>103.0</ele><time>2026-04-26T16:39:29Z</time></trkpt><trkpt lat="47.25872120392922" lon="0.9809538352039834"><ele>103.0</ele><time>2026-04-26T16:39:30Z</time></trkpt><trkpt lat="47.25882628446989" lon="0.981119354168599"><ele>103.33333333333334</ele><time>2026-04-26T16:39:31Z</time></trkpt><trkpt lat="47.258931652108245" lon="0.9812853253944462"><ele>103.66666666666666</ele><time>2026-04-26T16:39:32Z</time></trkpt><trkpt lat="47.25903806871221" lon="0.9814529489074078"><ele>104.0</ele><time>2026-04-26T16:39:33Z</time></trkpt><trkpt lat="47.25914378861593" lon="0.9816194749390131"><ele>103.5</ele><time>2026-04-26T16:39:34Z</time></trkpt><trkpt lat="47.25923554721101" lon="0.9817594676155877"><ele>103.0</ele><time>2026-04-26T16:39:35Z</time></trkpt><trkpt lat="47.259325187557764" lon="0.9818610801310539"><ele>102.5</ele><time>2026-04-26T16:39:36Z</time></trkpt><trkpt lat="47.25939457229834" lon="0.9819708098430572"><ele>102.0</ele><time>2026-04-26T16:39:37Z</time></trkpt><trkpt lat="47.25947006707544" lon="0.9820921374556433"><ele>102.0</ele><time>2026-04-26T16:39:38Z</time></trkpt><trkpt lat="47.25953902970222" lon="0.9822384101225659"><ele>102.0</ele><time>2026-04-26T16:39:39Z</time></trkpt><trkpt lat="47.25962860848189" lon="0.9823813232948344"><ele>102.0</ele><time>2026-04-26T16:39:40Z</time></trkpt><trkpt lat="47.25972172411241" lon="0.9825422500745989"><ele>102.0</ele><time>2026-04-26T16:39:41Z</time></trkpt><trkpt lat="47.25981006018892" lon="0.98272796402616"><ele>102.33333333333334</ele><time>2026-04-26T16:39:42Z</time></trkpt><trkpt lat="47.25989866083108" lon="0.9829212822755746"><ele>102.66666666666667</ele><time>2026-04-26T16:39:43Z</time></trkpt><trkpt lat="47.259980914254356" lon="0.98312469597973"><ele>103.0</ele><time>2026-04-26T16:39:44Z</time></trkpt><trkpt lat="47.26006011816804" lon="0.9833305238468453"><ele>102.66666666666667</ele><time>2026-04-26T16:39:45Z</time></trkpt><trkpt lat="47.26014048936795" lon="0.9835416454995667"><ele>102.33333333333334</ele><time>2026-04-26T16:39:46Z</time></trkpt><trkpt lat="47.2602202538057" lon="0.9837513121416865"><ele>102.0</ele><time>2026-04-26T16:39:47Z</time></trkpt><trkpt lat="47.26029989883109" lon="0.9839606647559619"><ele>102.0</ele><time>2026-04-26T16:39:48Z</time></trkpt><trkpt lat="47.26038190714385" lon="0.9841738970327433"><ele>102.0</ele><time>2026-04-26T16:39:49Z</time></trkpt><trkpt lat="47.26046272495486" lon="0.9843815679316409"><ele>102.0</ele><time>2026-04-26T16:39:50Z</time></trkpt><trkpt lat="47.260562431723386" lon="0.9845693107007072"><ele>102.66666666666666</ele><time>2026-04-26T16:39:51Z</time></trkpt><trkpt lat="47.260653681579655" lon="0.984769865028818"><ele>103.33333333333333</ele><time>2026-04-26T16:39:52Z</time></trkpt><trkpt lat="47.2607571247002" lon="0.9849575770428832"><ele>104.0</ele><time>2026-04-26T16:39:53Z</time></trkpt><trkpt lat="47.260869184590845" lon="0.9851380291047919"><ele>104.0</ele><time>2026-04-26T16:39:54Z</time></trkpt><trkpt lat="47.260985584728644" lon="0.9853129123712024"><ele>104.0</ele><time>2026-04-26T16:39:55Z</time></trkpt><trkpt lat="47.261104968899275" lon="0.985488187652288"><ele>104.0</ele><time>2026-04-26T16:39:56Z</time></trkpt><trkpt lat="47.26121001355037" lon="0.9856902157213112"><ele>103.66666666666666</ele><time>2026-04-26T16:39:57Z</time></trkpt><trkpt lat="47.26132611893559" lon="0.9858739420711276"><ele>103.33333333333334</ele><time>2026-04-26T16:39:58Z</time></trkpt><trkpt lat="47.261443552369826" lon="0.9860560844912357"><ele>103.0</ele><time>2026-04-26T16:39:59Z</time></trkpt><trkpt lat="47.26155982138161" lon="0.986234339477316"><ele>103.0</ele><time>2026-04-26T16:40:00Z</time></trkpt><trkpt lat="47.26167628373096" lon="0.9864125185864165"><ele>103.0</ele><time>2026-04-26T16:40:01Z</time></trkpt><trkpt lat="47.26179160207774" lon="0.9865886011659926"><ele>103.0</ele><time>2026-04-26T16:40:02Z</time></trkpt><trkpt lat="47.26191795375423" lon="0.9867551374612552"><ele>103.0</ele><time>2026-04-26T16:40:03Z</time></trkpt><trkpt lat="47.26203415961486" lon="0.986934150171071"><ele>103.0</ele><time>2026-04-26T16:40:04Z</time></trkpt><trkpt lat="47.2621430752099" lon="0.9871204266637906"><ele>103.0</ele><time>2026-04-26T16:40:05Z</time></trkpt><trkpt lat="47.262252569646144" lon="0.9873094262986236"><ele>103.66666666666667</ele><time>2026-04-26T16:40:06Z</time></trkpt><trkpt lat="47.2623695785649" lon="0.9874869965706841"><ele>104.33333333333334</ele><time>2026-04-26T16:40:07Z</time></trkpt><trkpt lat="47.2624655523635" lon="0.9876770131700965"><ele>105.0</ele><time>2026-04-26T16:40:07.999Z</time></trkpt><trkpt lat="47.26257196628484" lon="0.987861922305485"><ele>105.33333333333334</ele><time>2026-04-26T16:40:08.999Z</time></trkpt><trkpt lat="47.262675385103215" lon="0.9880416272420887"><ele>105.66666666666667</ele><time>2026-04-26T16:40:09.999Z</time></trkpt><trkpt lat="47.26277996710757" lon="0.9882251062242747"><ele>106.0</ele><time>2026-04-26T16:40:10.999Z</time></trkpt><trkpt lat="47.262878916360606" lon="0.9884147547733132"><ele>106.0</ele><time>2026-04-26T16:40:11.999Z</time></trkpt><trkpt lat="47.26296383096962" lon="0.9886078972251682"><ele>106.0</ele><time>2026-04-26T16:40:12.999Z</time></trkpt><trkpt lat="47.26303892043813" lon="0.9888128373712881"><ele>106.0</ele><time>2026-04-26T16:40:13.999Z</time></trkpt><trkpt lat="47.2631214324278" lon="0.9890264073553273"><ele>106.66666666666667</ele><time>2026-04-26T16:40:14.999Z</time></trkpt><trkpt lat="47.26320213407463" lon="0.9892391043198285"><ele>107.33333333333334</ele><time>2026-04-26T16:40:15.999Z</time></trkpt><trkpt lat="47.2632771800418" lon="0.9894553314698205"><ele>108.0</ele><time>2026-04-26T16:40:16.999Z</time></trkpt><trkpt lat="47.26335058820594" lon="0.9896651879900978"><ele>108.0</ele><time>2026-04-26T16:40:17.999Z</time></trkpt><trkpt lat="47.263435843046196" lon="0.9898608105050083"><ele>108.0</ele><time>2026-04-26T16:40:18.999Z</time></trkpt><trkpt lat="47.26350381106465" lon="0.990053074902655"><ele>108.0</ele><time>2026-04-26T16:40:19.999Z</time></trkpt><trkpt lat="47.2635609874561" lon="0.9902165039922055"><ele>108.0</ele><time>2026-04-26T16:40:20.999Z</time></trkpt><trkpt lat="47.26362145262797" lon="0.9903544247648999"><ele>108.2</ele><time>2026-04-26T16:40:21.999Z</time></trkpt><trkpt lat="47.26369332744537" lon="0.9904900896855556"><ele>108.4</ele><time>2026-04-26T16:40:22.999Z</time></trkpt><trkpt lat="47.263759551554855" lon="0.9906148609953348"><ele>108.60000000000001</ele><time>2026-04-26T16:40:23.999Z</time></trkpt><trkpt lat="47.263834087406686" lon="0.990688152220893"><ele>108.80000000000001</ele><time>2026-04-26T16:40:24.999Z</time></trkpt><trkpt lat="47.26392664018516" lon="0.9907185729592324"><ele>109.0</ele><time>2026-04-26T16:40:25.999Z</time></trkpt><trkpt lat="47.26403430648982" lon="0.9907463029428918"><ele>109.4</ele><time>2026-04-26T16:40:26.999Z</time></trkpt><trkpt lat="47.264142106036644" lon="0.9907779916063231"><ele>109.80000000000001</ele><time>2026-04-26T16:40:27.999Z</time></trkpt><trkpt lat="47.26423117992909" lon="0.9907859442491739"><ele>110.19999999999999</ele><time>2026-04-26T16:40:28.999Z</time></trkpt><trkpt lat="47.264321586900685" lon="0.9907487238301041"><ele>110.6</ele><time>2026-04-26T16:40:29.999Z</time></trkpt><trkpt lat="47.26441599004183" lon="0.9906875827782977"><ele>111.0</ele><time>2026-04-26T16:40:30.999Z</time></trkpt><trkpt lat="47.264525894443416" lon="0.9906583241245108"><ele>111.0</ele><time>2026-04-26T16:40:31.999Z</time></trkpt><trkpt lat="47.26463599021597" lon="0.9906489761869375"><ele>111.0</ele><time>2026-04-26T16:40:32.999Z</time></trkpt><trkpt lat="47.264749704901675" lon="0.9906531489813784"><ele>111.0</ele><time>2026-04-26T16:40:33.999Z</time></trkpt><trkpt lat="47.26486200950039" lon="0.9906784876878696"><ele>111.0</ele><time>2026-04-26T16:40:34.999Z</time></trkpt><trkpt lat="47.26495827249756" lon="0.9907430077203723"><ele>111.0</ele><time>2026-04-26T16:40:35.999Z</time></trkpt><trkpt lat="47.265037989168995" lon="0.9908194652065516"><ele>111.0</ele><time>2026-04-26T16:40:36.999Z</time></trkpt><trkpt lat="47.26509189927062" lon="0.9909088048357085"><ele>111.0</ele><time>2026-04-26T16:40:37.999Z</time></trkpt><trkpt lat="47.264999356362125" lon="0.9911050654969669"><ele>111.0</ele><time>2026-04-26T16:40:56.999Z</time></trkpt><trkpt lat="47.26491997353322" lon="0.9911731146561179"><ele>111.0</ele><time>2026-04-26T16:40:57.999Z</time></trkpt><trkpt lat="47.26483131287787" lon="0.9912448377598925"><ele>111.0</ele><time>2026-04-26T16:40:58.999Z</time></trkpt><trkpt lat="47.264742186350745" lon="0.9913137914461237"><ele>111.0</ele><time>2026-04-26T16:40:59.999Z</time></trkpt><trkpt lat="47.26467204652965" lon="0.9913627140293625"><ele>111.0</ele><time>2026-04-26T16:41:00.999Z</time></trkpt><trkpt lat="47.264696515909" lon="0.9915536009920207"><ele>111.0</ele><time>2026-04-26T16:41:02.999Z</time></trkpt><trkpt lat="47.26475021809748" lon="0.9916851515755474"><ele>111.0</ele><time>2026-04-26T16:41:03.999Z</time></trkpt><trkpt lat="47.26480713385763" lon="0.9918384791818641"><ele>111.0</ele><time>2026-04-26T16:41:04.999Z</time></trkpt><trkpt lat="47.264862664664015" lon="0.992000524972915"><ele>111.25</ele><time>2026-04-26T16:41:05.999Z</time></trkpt><trkpt lat="47.2649108699467" lon="0.9921773896531562"><ele>111.5</ele><time>2026-04-26T16:41:07Z</time></trkpt><trkpt lat="47.264965786532834" lon="0.9923598608446331"><ele>111.75</ele><time>2026-04-26T16:41:08Z</time></trkpt><trkpt lat="47.26502982000026" lon="0.9925442358088364"><ele>112.0</ele><time>2026-04-26T16:41:09Z</time></trkpt><trkpt lat="47.265080930071484" lon="0.9927522206480953"><ele>112.0</ele><time>2026-04-26T16:41:10Z</time></trkpt><trkpt lat="47.26514576250115" lon="0.992955925021041"><ele>112.0</ele><time>2026-04-26T16:41:11Z</time></trkpt><trkpt lat="47.265216444781196" lon="0.9931571266967713"><ele>112.0</ele><time>2026-04-26T16:41:12Z</time></trkpt><trkpt lat="47.265290598279385" lon="0.9933641289362739"><ele>111.75</ele><time>2026-04-26T16:41:13Z</time></trkpt><trkpt lat="47.2653620777964" lon="0.993571775893047"><ele>111.5</ele><time>2026-04-26T16:41:14Z</time></trkpt><trkpt lat="47.26542857132152" lon="0.9937649381961478"><ele>111.25</ele><time>2026-04-26T16:41:15Z</time></trkpt><trkpt lat="47.265490302482796" lon="0.9939442659383381"><ele>111.0</ele><time>2026-04-26T16:41:16Z</time></trkpt><trkpt lat="47.265591489304214" lon="0.9940655349046442"><ele>111.0</ele><time>2026-04-26T16:41:17Z</time></trkpt><trkpt lat="47.265674938729866" lon="0.9941783605924477"><ele>111.0</ele><time>2026-04-26T16:41:18Z</time></trkpt><trkpt lat="47.26578063498408" lon="0.9942083813731772"><ele>111.0</ele><time>2026-04-26T16:41:19Z</time></trkpt><trkpt lat="47.26586990588346" lon="0.9941650533903393"><ele>111.0</ele><time>2026-04-26T16:41:20Z</time></trkpt><trkpt lat="47.26597247724091" lon="0.9941530771204434"><ele>111.0</ele><time>2026-04-26T16:41:21Z</time></trkpt><trkpt lat="47.26607788310557" lon="0.9942079423776933"><ele>111.0</ele><time>2026-04-26T16:41:22Z</time></trkpt><trkpt lat="47.26616384593221" lon="0.9943114166369531"><ele>111.0</ele><time>2026-04-26T16:41:23Z</time></trkpt><trkpt lat="47.26623111543811" lon="0.9944623608104993"><ele>111.0</ele><time>2026-04-26T16:41:24Z</time></trkpt><trkpt lat="47.26630841122079" lon="0.9945977988624528"><ele>111.0</ele><time>2026-04-26T16:41:25Z</time></trkpt><trkpt lat="47.26638813292777" lon="0.9947472077785217"><ele>110.5</ele><time>2026-04-26T16:41:26Z</time></trkpt><trkpt lat="47.266464024490496" lon="0.9949178557206007"><ele>110.0</ele><time>2026-04-26T16:41:27Z</time></trkpt><trkpt lat="47.26654128131897" lon="0.9950965827989318"><ele>109.5</ele><time>2026-04-26T16:41:28Z</time></trkpt><trkpt lat="47.26660640371958" lon="0.9952915613235538"><ele>109.0</ele><time>2026-04-26T16:41:29Z</time></trkpt><trkpt lat="47.266671728362496" lon="0.9954953755329996"><ele>108.75</ele><time>2026-04-26T16:41:30Z</time></trkpt><trkpt lat="47.2667492052782" lon="0.9956869432702516"><ele>108.5</ele><time>2026-04-26T16:41:31Z</time></trkpt><trkpt lat="47.26681241765576" lon="0.9958859103515477"><ele>108.25</ele><time>2026-04-26T16:41:32Z</time></trkpt><trkpt lat="47.266890053516235" lon="0.9960685143701392"><ele>108.0</ele><time>2026-04-26T16:41:33Z</time></trkpt><trkpt lat="47.266958328968784" lon="0.9962581813650017"><ele>108.0</ele><time>2026-04-26T16:41:34Z</time></trkpt><trkpt lat="47.26701339383154" lon="0.996433083130964"><ele>108.0</ele><time>2026-04-26T16:41:35Z</time></trkpt><trkpt lat="47.267058547472125" lon="0.9965901362898801"><ele>108.0</ele><time>2026-04-26T16:41:36Z</time></trkpt><trkpt lat="47.267089051751825" lon="0.9967465589970811"><ele>108.0</ele><time>2026-04-26T16:41:37Z</time></trkpt><trkpt lat="47.26710373572706" lon="0.9969025782982147"><ele>108.0</ele><time>2026-04-26T16:41:38Z</time></trkpt><trkpt lat="47.26712110698149" lon="0.9970305018864047"><ele>108.0</ele><time>2026-04-26T16:41:39Z</time></trkpt><trkpt lat="47.26710140091844" lon="0.99716186077294"><ele>108.0</ele><time>2026-04-26T16:41:41Z</time></trkpt><trkpt lat="47.26704161887256" lon="0.9971959600726256"><ele>108.0</ele><time>2026-04-26T16:41:42Z</time></trkpt><trkpt lat="47.26694352709738" lon="0.9971672052213081"><ele>108.0</ele><time>2026-04-26T16:41:43Z</time></trkpt><trkpt lat="47.26686266873055" lon="0.9972559219461903"><ele>108.0</ele><time>2026-04-26T16:41:44Z</time></trkpt><trkpt lat="47.266773580619905" lon="0.9973576065254602"><ele>108.0</ele><time>2026-04-26T16:41:45Z</time></trkpt><trkpt lat="47.26668119986405" lon="0.9974790585101875"><ele>108.0</ele><time>2026-04-26T16:41:46Z</time></trkpt><trkpt lat="47.26659609987521" lon="0.9976287821677616"><ele>108.0</ele><time>2026-04-26T16:41:47Z</time></trkpt><trkpt lat="47.26651312260094" lon="0.9977842003112147"><ele>108.0</ele><time>2026-04-26T16:41:48Z</time></trkpt><trkpt lat="47.26642384466143" lon="0.9979564479114228"><ele>107.5</ele><time>2026-04-26T16:41:49Z</time></trkpt><trkpt lat="47.266333686258186" lon="0.9981312911844987"><ele>107.0</ele><time>2026-04-26T16:41:50Z</time></trkpt><trkpt lat="47.266249052764316" lon="0.9983014956492628"><ele>106.5</ele><time>2026-04-26T16:41:51Z</time></trkpt><trkpt lat="47.26615320395917" lon="0.9984704465422085"><ele>106.0</ele><time>2026-04-26T16:41:52Z</time></trkpt><trkpt lat="47.26604655879558" lon="0.998623010452767"><ele>105.33333333333334</ele><time>2026-04-26T16:41:53Z</time></trkpt><trkpt lat="47.26592443785848" lon="0.9987551251659215"><ele>104.66666666666666</ele><time>2026-04-26T16:41:54Z</time></trkpt><trkpt lat="47.26579555778369" lon="0.9988847265288783"><ele>104.0</ele><time>2026-04-26T16:41:55Z</time></trkpt><trkpt lat="47.265662895481945" lon="0.9990155799846953"><ele>104.4</ele><time>2026-04-26T16:41:56Z</time></trkpt><trkpt lat="47.265543524385215" lon="0.9991311294382749"><ele>104.80000000000001</ele><time>2026-04-26T16:41:57Z</time></trkpt><trkpt lat="47.26544948772073" lon="0.9992203692407259"><ele>105.19999999999999</ele><time>2026-04-26T16:41:58Z</time></trkpt><trkpt lat="47.26538815031323" lon="0.9992781422389829"><ele>105.6</ele><time>2026-04-26T16:41:59Z</time></trkpt><trkpt lat="47.26532927119537" lon="0.9993336008247948"><ele>106.0</ele><time>2026-04-26T16:42:01Z</time></trkpt><trkpt lat="47.2654431130143" lon="0.9996187339743253"><ele>106.0</ele><time>2026-04-26T16:42:03Z</time></trkpt><trkpt lat="47.265490923974774" lon="0.9997562501694015"><ele>106.0</ele><time>2026-04-26T16:42:04Z</time></trkpt><trkpt lat="47.26554595595389" lon="0.9999053376623138"><ele>106.0</ele><time>2026-04-26T16:42:05Z</time></trkpt><trkpt lat="47.26560728353805" lon="1.0000714024651436"><ele>106.0</ele><time>2026-04-26T16:42:06Z</time></trkpt><trkpt lat="47.26567239833194" lon="1.0002482459738375"><ele>105.75</ele><time>2026-04-26T16:42:07Z</time></trkpt><trkpt lat="47.26573909941034" lon="1.0004327491879226"><ele>105.5</ele><time>2026-04-26T16:42:07.999Z</time></trkpt><trkpt lat="47.26579999465876" lon="1.000601192861205"><ele>105.25</ele><time>2026-04-26T16:42:08.999Z</time></trkpt><trkpt lat="47.26585417190017" lon="1.0007534265272546"><ele>105.0</ele><time>2026-04-26T16:42:09.999Z</time></trkpt><trkpt lat="47.26591079466483" lon="1.0009221900898164"><ele>104.75</ele><time>2026-04-26T16:42:10.999Z</time></trkpt><trkpt lat="47.265959280044534" lon="1.0011038203285514"><ele>104.5</ele><time>2026-04-26T16:42:11.999Z</time></trkpt><trkpt lat="47.26600674198156" lon="1.0012832586457934"><ele>104.25</ele><time>2026-04-26T16:42:12.999Z</time></trkpt><trkpt lat="47.26605176604537" lon="1.001453482722545"><ele>104.0</ele><time>2026-04-26T16:42:13.999Z</time></trkpt><trkpt lat="47.26610073533643" lon="1.001638622210648"><ele>104.33333333333333</ele><time>2026-04-26T16:42:14.999Z</time></trkpt><trkpt lat="47.266209112387195" lon="1.0018048351998292"><ele>104.66666666666666</ele><time>2026-04-26T16:42:15.999Z</time></trkpt><trkpt lat="47.26624166524207" lon="1.0020093060718307"><ele>105.0</ele><time>2026-04-26T16:42:16.999Z</time></trkpt><trkpt lat="47.26628427676" lon="1.0022276304257514"><ele>105.0</ele><time>2026-04-26T16:42:17.999Z</time></trkpt><trkpt lat="47.26632710955392" lon="1.0024484000542169"><ele>105.0</ele><time>2026-04-26T16:42:18.999Z</time></trkpt><trkpt lat="47.26637774260366" lon="1.002670573880869"><ele>105.0</ele><time>2026-04-26T16:42:19.999Z</time></trkpt><trkpt lat="47.266425784597935" lon="1.0029011983338592"><ele>104.33333333333334</ele><time>2026-04-26T16:42:20.999Z</time></trkpt><trkpt lat="47.26647106559759" lon="1.0031295254350894"><ele>103.66666666666667</ele><time>2026-04-26T16:42:21.999Z</time></trkpt><trkpt lat="47.26652312465349" lon="1.0033645897968515"><ele>103.0</ele><time>2026-04-26T16:42:22.999Z</time></trkpt><trkpt lat="47.26657089223664" lon="1.0036035386561866"><ele>103.0</ele><time>2026-04-26T16:42:23.999Z</time></trkpt><trkpt lat="47.26660929915049" lon="1.0038303382416531"><ele>103.0</ele><time>2026-04-26T16:42:24.999Z</time></trkpt><trkpt lat="47.26666129418875" lon="1.0040486330418585"><ele>103.0</ele><time>2026-04-26T16:42:25.999Z</time></trkpt><trkpt lat="47.266705050584925" lon="1.0042711453023228"><ele>102.66666666666667</ele><time>2026-04-26T16:42:26.999Z</time></trkpt><trkpt lat="47.26674703976784" lon="1.004498913632109"><ele>102.33333333333334</ele><time>2026-04-26T16:42:27.999Z</time></trkpt><trkpt lat="47.26679854537842" lon="1.0047220569135662"><ele>102.0</ele><time>2026-04-26T16:42:28.999Z</time></trkpt><trkpt lat="47.26684196032993" lon="1.0049415057820634"><ele>102.0</ele><time>2026-04-26T16:42:29.999Z</time></trkpt><trkpt lat="47.26688649177296" lon="1.0051662730565751"><ele>102.0</ele><time>2026-04-26T16:42:30.999Z</time></trkpt><trkpt lat="47.266933576678674" lon="1.0053852373969387"><ele>102.0</ele><time>2026-04-26T16:42:31.999Z</time></trkpt><trkpt lat="47.266975447210136" lon="1.0056028265067682"><ele>102.0</ele><time>2026-04-26T16:42:32.999Z</time></trkpt><trkpt lat="47.26701426425498" lon="1.0058155327915355"><ele>102.0</ele><time>2026-04-26T16:42:33.999Z</time></trkpt><trkpt lat="47.26705857381489" lon="1.0060265340078254"><ele>102.0</ele><time>2026-04-26T16:42:34.999Z</time></trkpt><trkpt lat="47.26710638908081" lon="1.0062341446536762"><ele>102.0</ele><time>2026-04-26T16:42:35.999Z</time></trkpt><trkpt lat="47.26714815420785" lon="1.0064401823116844"><ele>102.0</ele><time>2026-04-26T16:42:36.999Z</time></trkpt><trkpt lat="47.26719040663287" lon="1.0066446320055318"><ele>102.0</ele><time>2026-04-26T16:42:37.999Z</time></trkpt><trkpt lat="47.26722995763157" lon="1.0068535530920042"><ele>102.0</ele><time>2026-04-26T16:42:38.999Z</time></trkpt><trkpt lat="47.26727304660983" lon="1.0070548763964884"><ele>102.0</ele><time>2026-04-26T16:42:39.999Z</time></trkpt><trkpt lat="47.26731787854805" lon="1.0072651499225123"><ele>101.66666666666666</ele><time>2026-04-26T16:42:40.999Z</time></trkpt><trkpt lat="47.26736143505265" lon="1.0074796752276893"><ele>101.33333333333333</ele><time>2026-04-26T16:42:41.999Z</time></trkpt><trkpt lat="47.267405825087046" lon="1.0076913338908624"><ele>101.0</ele><time>2026-04-26T16:42:42.999Z</time></trkpt><trkpt lat="47.26744961816837" lon="1.007908413840014"><ele>101.0</ele><time>2026-04-26T16:42:43.999Z</time></trkpt><trkpt lat="47.267494348995484" lon="1.0081186654260672"><ele>101.0</ele><time>2026-04-26T16:42:44.999Z</time></trkpt><trkpt lat="47.267543332587856" lon="1.008323928050209"><ele>101.0</ele><time>2026-04-26T16:42:45.999Z</time></trkpt><trkpt lat="47.26759090235926" lon="1.0085277129059644"><ele>101.0</ele><time>2026-04-26T16:42:46.999Z</time></trkpt><trkpt lat="47.267624156954966" lon="1.0087310840402308"><ele>101.0</ele><time>2026-04-26T16:42:47.999Z</time></trkpt><trkpt lat="47.267664834135644" lon="1.0089338049476244"><ele>101.0</ele><time>2026-04-26T16:42:48.999Z</time></trkpt><trkpt lat="47.267714298266924" lon="1.0091407922093285"><ele>101.0</ele><time>2026-04-26T16:42:49.999Z</time></trkpt><trkpt lat="47.2677527485461" lon="1.009350042891213"><ele>101.0</ele><time>2026-04-26T16:42:50.999Z</time></trkpt><trkpt lat="47.26780248528747" lon="1.0095505339637805"><ele>101.0</ele><time>2026-04-26T16:42:51.999Z</time></trkpt><trkpt lat="47.26784238276409" lon="1.0097663532653947"><ele>101.0</ele><time>2026-04-26T16:42:52.999Z</time></trkpt><trkpt lat="47.267891925153826" lon="1.0099742571471664"><ele>101.0</ele><time>2026-04-26T16:42:53.999Z</time></trkpt><trkpt lat="47.26793700596396" lon="1.0101781922527782"><ele>101.0</ele><time>2026-04-26T16:42:54.999Z</time></trkpt><trkpt lat="47.267979784923185" lon="1.0103856004111087"><ele>101.0</ele><time>2026-04-26T16:42:55.999Z</time></trkpt><trkpt lat="47.268023786079226" lon="1.010594018753643"><ele>101.0</ele><time>2026-04-26T16:42:56.999Z</time></trkpt><trkpt lat="47.268065479410005" lon="1.0107942911358088"><ele>101.0</ele><time>2026-04-26T16:42:57.999Z</time></trkpt><trkpt lat="47.268108895709396" lon="1.0109947674557664"><ele>101.0</ele><time>2026-04-26T16:42:58.999Z</time></trkpt><trkpt lat="47.26814827056674" lon="1.0111819476571229"><ele>101.0</ele><time>2026-04-26T16:42:59.999Z</time></trkpt><trkpt lat="47.26818511993757" lon="1.011369295953921"><ele>101.0</ele><time>2026-04-26T16:43:00.999Z</time></trkpt><trkpt lat="47.268223956401684" lon="1.0115365301880614"><ele>101.0</ele><time>2026-04-26T16:43:01.999Z</time></trkpt><trkpt lat="47.26825437805466" lon="1.0116930282531564"><ele>101.0</ele><time>2026-04-26T16:43:02.999Z</time></trkpt><trkpt lat="47.26828985946323" lon="1.01186424313119"><ele>101.75</ele><time>2026-04-26T16:43:03.999Z</time></trkpt><trkpt lat="47.26831129798566" lon="1.0120370634944864"><ele>102.5</ele><time>2026-04-26T16:43:04.999Z</time></trkpt><trkpt lat="47.26834564975584" lon="1.012224098836615"><ele>103.25</ele><time>2026-04-26T16:43:05.999Z</time></trkpt><trkpt lat="47.26837782282335" lon="1.0124195724114995"><ele>104.0</ele><time>2026-04-26T16:43:06.999Z</time></trkpt><trkpt lat="47.26841149196019" lon="1.01261837047314"><ele>104.0</ele><time>2026-04-26T16:43:07.999Z</time></trkpt><trkpt lat="47.268449719821184" lon="1.012814220812294"><ele>104.0</ele><time>2026-04-26T16:43:08.999Z</time></trkpt><trkpt lat="47.26848315786019" lon="1.0130085411278218"><ele>104.0</ele><time>2026-04-26T16:43:09.999Z</time></trkpt><trkpt lat="47.268516426845416" lon="1.0131981590213925"><ele>104.0</ele><time>2026-04-26T16:43:10.999Z</time></trkpt><trkpt lat="47.2685406207047" lon="1.0134044141357867"><ele>104.0</ele><time>2026-04-26T16:43:11.999Z</time></trkpt><trkpt lat="47.26857250967862" lon="1.0136024025218033"><ele>104.0</ele><time>2026-04-26T16:43:13Z</time></trkpt><trkpt lat="47.268603826157566" lon="1.0138063550271597"><ele>104.0</ele><time>2026-04-26T16:43:14Z</time></trkpt><trkpt lat="47.26863825819154" lon="1.0140087304068885"><ele>104.0</ele><time>2026-04-26T16:43:15Z</time></trkpt><trkpt lat="47.2686608076208" lon="1.0142090461974187"><ele>104.0</ele><time>2026-04-26T16:43:16Z</time></trkpt><trkpt lat="47.268689382046915" lon="1.0144082564438173"><ele>104.0</ele><time>2026-04-26T16:43:17Z</time></trkpt><trkpt lat="47.26871534410662" lon="1.0146175815315452"><ele>104.0</ele><time>2026-04-26T16:43:18Z</time></trkpt><trkpt lat="47.268736992051956" lon="1.0148224010971276"><ele>104.0</ele><time>2026-04-26T16:43:19Z</time></trkpt><trkpt lat="47.2687578659809" lon="1.0150241715165156"><ele>104.0</ele><time>2026-04-26T16:43:20Z</time></trkpt><trkpt lat="47.26876882184411" lon="1.015234940635707"><ele>104.0</ele><time>2026-04-26T16:43:21Z</time></trkpt><trkpt lat="47.268775200897124" lon="1.0154405939819395"><ele>104.0</ele><time>2026-04-26T16:43:22Z</time></trkpt><trkpt lat="47.26879629880737" lon="1.015656052618594"><ele>104.0</ele><time>2026-04-26T16:43:23Z</time></trkpt><trkpt lat="47.26881118042884" lon="1.0158754436431803"><ele>104.0</ele><time>2026-04-26T16:43:24Z</time></trkpt><trkpt lat="47.26883429330357" lon="1.0160870449725583"><ele>104.0</ele><time>2026-04-26T16:43:25Z</time></trkpt><trkpt lat="47.26885698617444" lon="1.0163035069922453"><ele>104.0</ele><time>2026-04-26T16:43:26Z</time></trkpt><trkpt lat="47.268881985702436" lon="1.016528905712794"><ele>104.0</ele><time>2026-04-26T16:43:27Z</time></trkpt><trkpt lat="47.26891853769304" lon="1.0167478913360033"><ele>104.33333333333333</ele><time>2026-04-26T16:43:28Z</time></trkpt><trkpt lat="47.26895329898985" lon="1.0169746052279722"><ele>104.66666666666666</ele><time>2026-04-26T16:43:29Z</time></trkpt><trkpt lat="47.2689948863152" lon="1.0171845281678986"><ele>105.0</ele><time>2026-04-26T16:43:30Z</time></trkpt><trkpt lat="47.26903332148275" lon="1.0173962626616933"><ele>104.33333333333334</ele><time>2026-04-26T16:43:31Z</time></trkpt><trkpt lat="47.26909796833878" lon="1.0176092555406182"><ele>103.66666666666667</ele><time>2026-04-26T16:43:32Z</time></trkpt><trkpt lat="47.26917195102979" lon="1.0178042171194388"><ele>103.0</ele><time>2026-04-26T16:43:33Z</time></trkpt><trkpt lat="47.269251730990106" lon="1.0180066067126987"><ele>103.0</ele><time>2026-04-26T16:43:34Z</time></trkpt><trkpt lat="47.269338537765734" lon="1.0181899086299417"><ele>103.0</ele><time>2026-04-26T16:43:35Z</time></trkpt><trkpt lat="47.26943142055733" lon="1.0183735837222652"><ele>103.0</ele><time>2026-04-26T16:43:36Z</time></trkpt><trkpt lat="47.269528549883674" lon="1.0185497030787694"><ele>102.66666666666667</ele><time>2026-04-26T16:43:37Z</time></trkpt><trkpt lat="47.26963031010419" lon="1.0187229343771949"><ele>102.33333333333334</ele><time>2026-04-26T16:43:38Z</time></trkpt><trkpt lat="47.26973284468154" lon="1.0188963046711712"><ele>102.0</ele><time>2026-04-26T16:43:39Z</time></trkpt><trkpt lat="47.26984479259408" lon="1.0190712791606322"><ele>101.66666666666666</ele><time>2026-04-26T16:43:40Z</time></trkpt><trkpt lat="47.26994749237642" lon="1.0192516888538288"><ele>101.33333333333333</ele><time>2026-04-26T16:43:41Z</time></trkpt><trkpt lat="47.2700486517521" lon="1.0194247335174818"><ele>101.0</ele><time>2026-04-26T16:43:42Z</time></trkpt><trkpt lat="47.270144397421674" lon="1.0196206216565025"><ele>101.0</ele><time>2026-04-26T16:43:43Z</time></trkpt><trkpt lat="47.27023008076199" lon="1.0198176143791522"><ele>101.0</ele><time>2026-04-26T16:43:44Z</time></trkpt><trkpt lat="47.27032873140412" lon="1.020006674009974"><ele>101.0</ele><time>2026-04-26T16:43:45Z</time></trkpt><trkpt lat="47.27044312643386" lon="1.0201763059483697"><ele>101.33333333333333</ele><time>2026-04-26T16:43:46Z</time></trkpt><trkpt lat="47.27055216357113" lon="1.0203507851326619"><ele>101.66666666666666</ele><time>2026-04-26T16:43:47Z</time></trkpt><trkpt lat="47.27065917926159" lon="1.020527059171723"><ele>102.0</ele><time>2026-04-26T16:43:48Z</time></trkpt><trkpt lat="47.27076234418335" lon="1.0207018993868562"><ele>101.0</ele><time>2026-04-26T16:43:49Z</time></trkpt><trkpt lat="47.27086627503771" lon="1.020875689832676"><ele>100.0</ele><time>2026-04-26T16:43:50Z</time></trkpt><trkpt lat="47.27097024830695" lon="1.0210487623190116"><ele>99.0</ele><time>2026-04-26T16:43:51Z</time></trkpt><trkpt lat="47.27107427413277" lon="1.021211203766853"><ele>99.0</ele><time>2026-04-26T16:43:52Z</time></trkpt><trkpt lat="47.27117719936528" lon="1.0213811298079223"><ele>99.0</ele><time>2026-04-26T16:43:53Z</time></trkpt><trkpt lat="47.27128445375505" lon="1.0215423912103034"><ele>99.0</ele><time>2026-04-26T16:43:54Z</time></trkpt><trkpt lat="47.271385712755674" lon="1.021705476239823"><ele>98.66666666666666</ele><time>2026-04-26T16:43:55Z</time></trkpt><trkpt lat="47.27148940968366" lon="1.0218718976035777"><ele>98.33333333333333</ele><time>2026-04-26T16:43:56Z</time></trkpt><trkpt lat="47.27159232607107" lon="1.0220407801875864"><ele>98.0</ele><time>2026-04-26T16:43:57Z</time></trkpt><trkpt lat="47.271699503218834" lon="1.022207059865172"><ele>98.0</ele><time>2026-04-26T16:43:58Z</time></trkpt><trkpt lat="47.27179742750575" lon="1.0223776142659848"><ele>98.0</ele><time>2026-04-26T16:43:59Z</time></trkpt><trkpt lat="47.27189893007072" lon="1.0225500288567528"><ele>98.0</ele><time>2026-04-26T16:44:00Z</time></trkpt><trkpt lat="47.272005659759095" lon="1.0227123018613695"><ele>97.66666666666666</ele><time>2026-04-26T16:44:01Z</time></trkpt><trkpt lat="47.27211056494559" lon="1.0228785059538104"><ele>97.33333333333334</ele><time>2026-04-26T16:44:02Z</time></trkpt><trkpt lat="47.27222430419723" lon="1.0230537392817376"><ele>97.0</ele><time>2026-04-26T16:44:03Z</time></trkpt><trkpt lat="47.27232955677102" lon="1.0232383166610886"><ele>96.0</ele><time>2026-04-26T16:44:04Z</time></trkpt><trkpt lat="47.2724457857917" lon="1.0234169245124907"><ele>95.0</ele><time>2026-04-26T16:44:05Z</time></trkpt><trkpt lat="47.27256216614116" lon="1.0236016924714513"><ele>94.0</ele><time>2026-04-26T16:44:06Z</time></trkpt><trkpt lat="47.272674940496614" lon="1.0237770341064523"><ele>94.0</ele><time>2026-04-26T16:44:07Z</time></trkpt><trkpt lat="47.272787081862845" lon="1.0239470503002255"><ele>94.0</ele><time>2026-04-26T16:44:08Z</time></trkpt><trkpt lat="47.272897968006575" lon="1.0241289456988467"><ele>94.0</ele><time>2026-04-26T16:44:09Z</time></trkpt><trkpt lat="47.27300406335961" lon="1.0243121118785892"><ele>94.0</ele><time>2026-04-26T16:44:10Z</time></trkpt><trkpt lat="47.27310939238101" lon="1.0244958939568496"><ele>94.0</ele><time>2026-04-26T16:44:10.999Z</time></trkpt><trkpt lat="47.27320974764501" lon="1.0246773584190385"><ele>94.0</ele><time>2026-04-26T16:44:11.999Z</time></trkpt><trkpt lat="47.27332087902869" lon="1.02484396616798"><ele>93.66666666666666</ele><time>2026-04-26T16:44:12.999Z</time></trkpt><trkpt lat="47.273433964278944" lon="1.0250034309044693"><ele>93.33333333333333</ele><time>2026-04-26T16:44:13.999Z</time></trkpt><trkpt lat="47.27354652011184" lon="1.0251724459488645"><ele>93.0</ele><time>2026-04-26T16:44:14.999Z</time></trkpt><trkpt lat="47.2736543798904" lon="1.0253380302711401"><ele>93.0</ele><time>2026-04-26T16:44:15.999Z</time></trkpt><trkpt lat="47.27375391988416" lon="1.0255108126513195"><ele>93.0</ele><time>2026-04-26T16:44:16.999Z</time></trkpt><trkpt lat="47.27385586644776" lon="1.0256799960327954"><ele>93.0</ele><time>2026-04-26T16:44:17.999Z</time></trkpt><trkpt lat="47.27396206130142" lon="1.0258478858000402"><ele>92.0</ele><time>2026-04-26T16:44:18.999Z</time></trkpt><trkpt lat="47.274077495049994" lon="1.0260153533102008"><ele>91.0</ele><time>2026-04-26T16:44:19.999Z</time></trkpt><trkpt lat="47.27419436123736" lon="1.0261756917148772"><ele>90.0</ele><time>2026-04-26T16:44:20.999Z</time></trkpt><trkpt lat="47.27431556715181" lon="1.026339541996195"><ele>90.0</ele><time>2026-04-26T16:44:21.999Z</time></trkpt><trkpt lat="47.27442677173208" lon="1.0264960900215723"><ele>90.0</ele><time>2026-04-26T16:44:22.999Z</time></trkpt><trkpt lat="47.27452393596588" lon="1.0266462648416375"><ele>90.0</ele><time>2026-04-26T16:44:23.999Z</time></trkpt><trkpt lat="47.274621501977876" lon="1.026786762522225"><ele>90.0</ele><time>2026-04-26T16:44:24.999Z</time></trkpt><trkpt lat="47.27473085174213" lon="1.026931488866256"><ele>90.25</ele><time>2026-04-26T16:44:25.999Z</time></trkpt><trkpt lat="47.27484333010805" lon="1.0270742242652677"><ele>90.5</ele><time>2026-04-26T16:44:26.999Z</time></trkpt><trkpt lat="47.274956540212" lon="1.027221451182408"><ele>90.75</ele><time>2026-04-26T16:44:27.999Z</time></trkpt><trkpt lat="47.27506508057259" lon="1.0273605376891817"><ele>91.0</ele><time>2026-04-26T16:44:28.999Z</time></trkpt><trkpt lat="47.275176031091554" lon="1.0275040608235282"><ele>91.0</ele><time>2026-04-26T16:44:29.999Z</time></trkpt><trkpt lat="47.27528111525814" lon="1.0276551185682647"><ele>91.0</ele><time>2026-04-26T16:44:30.999Z</time></trkpt><trkpt lat="47.27538618309659" lon="1.0277987058985147"><ele>91.0</ele><time>2026-04-26T16:44:31.999Z</time></trkpt><trkpt lat="47.27549019645405" lon="1.0279459286777204"><ele>91.0</ele><time>2026-04-26T16:44:32.999Z</time></trkpt><trkpt lat="47.27559081172254" lon="1.0280882203075543"><ele>91.5</ele><time>2026-04-26T16:44:33.999Z</time></trkpt><trkpt lat="47.275692844829315" lon="1.0282305554265092"><ele>92.0</ele><time>2026-04-26T16:44:34.999Z</time></trkpt><trkpt lat="47.27580115760191" lon="1.0283652527759761"><ele>92.5</ele><time>2026-04-26T16:44:35.999Z</time></trkpt><trkpt lat="47.27590662868786" lon="1.0285055740629707"><ele>93.0</ele><time>2026-04-26T16:44:36.999Z</time></trkpt><trkpt lat="47.27601550882695" lon="1.0286516235070684"><ele>93.0</ele><time>2026-04-26T16:44:37.999Z</time></trkpt><trkpt lat="47.276123281257405" lon="1.0287897722399917"><ele>93.0</ele><time>2026-04-26T16:44:38.999Z</time></trkpt><trkpt lat="47.276228640289894" lon="1.0289334180456136"><ele>93.0</ele><time>2026-04-26T16:44:39.999Z</time></trkpt><trkpt lat="47.276335531928076" lon="1.0290790884441028"><ele>93.0</ele><time>2026-04-26T16:44:40.999Z</time></trkpt><trkpt lat="47.27644136903945" lon="1.0292302408737766"><ele>93.0</ele><time>2026-04-26T16:44:41.999Z</time></trkpt><trkpt lat="47.276545588103154" lon="1.0293806295817984"><ele>93.0</ele><time>2026-04-26T16:44:42.999Z</time></trkpt><trkpt lat="47.2766506142689" lon="1.0295295111802514"><ele>93.0</ele><time>2026-04-26T16:44:43.999Z</time></trkpt><trkpt lat="47.27675156924099" lon="1.0296795409075186"><ele>93.0</ele><time>2026-04-26T16:44:44.999Z</time></trkpt><trkpt lat="47.2768605515672" lon="1.0298209945071795"><ele>93.0</ele><time>2026-04-26T16:44:45.999Z</time></trkpt><trkpt lat="47.27696685658197" lon="1.0299610487846704"><ele>93.0</ele><time>2026-04-26T16:44:46.999Z</time></trkpt><trkpt lat="47.27708273372383" lon="1.030086622957619"><ele>93.0</ele><time>2026-04-26T16:44:47.999Z</time></trkpt><trkpt lat="47.277190466778684" lon="1.030208682459965"><ele>93.0</ele><time>2026-04-26T16:44:48.999Z</time></trkpt><trkpt lat="47.2772789230509" lon="1.0303420779130856"><ele>92.75</ele><time>2026-04-26T16:44:49.999Z</time></trkpt><trkpt lat="47.27735762001003" lon="1.0304694223936057"><ele>92.5</ele><time>2026-04-26T16:44:50.999Z</time></trkpt><trkpt lat="47.277445016600886" lon="1.0305861221340897"><ele>92.25</ele><time>2026-04-26T16:44:51.999Z</time></trkpt><trkpt lat="47.277561533432404" lon="1.030654155288479"><ele>92.0</ele><time>2026-04-26T16:44:52.999Z</time></trkpt><trkpt lat="47.277689229399385" lon="1.0307022078880737"><ele>92.0</ele><time>2026-04-26T16:44:53.999Z</time></trkpt><trkpt lat="47.277815471295455" lon="1.0307654676299078"><ele>92.0</ele><time>2026-04-26T16:44:54.999Z</time></trkpt><trkpt lat="47.27794171885388" lon="1.030828646912025"><ele>92.0</ele><time>2026-04-26T16:44:55.999Z</time></trkpt><trkpt lat="47.27805779658378" lon="1.030904001408666"><ele>92.0</ele><time>2026-04-26T16:44:56.999Z</time></trkpt><trkpt lat="47.27817815216419" lon="1.0309571186308473"><ele>92.39999999999999</ele><time>2026-04-26T16:44:57.999Z</time></trkpt><trkpt lat="47.27827065533509" lon="1.030964700361273"><ele>92.8</ele><time>2026-04-26T16:44:58.999Z</time></trkpt><trkpt lat="47.27833322611381" lon="1.0309942966342154"><ele>93.2</ele><time>2026-04-26T16:44:59.999Z</time></trkpt><trkpt lat="47.27841899102275" lon="1.0310675859731169"><ele>93.6</ele><time>2026-04-26T16:45:00.999Z</time></trkpt><trkpt lat="47.278524494259614" lon="1.0311310941588083"><ele>94.0</ele><time>2026-04-26T16:45:01.999Z</time></trkpt><trkpt lat="47.27863069092411" lon="1.031195078055694"><ele>94.0</ele><time>2026-04-26T16:45:02.999Z</time></trkpt><trkpt lat="47.27875020829809" lon="1.03125539705799"><ele>94.0</ele><time>2026-04-26T16:45:03.999Z</time></trkpt><trkpt lat="47.27887285925721" lon="1.0313445685807094"><ele>94.0</ele><time>2026-04-26T16:45:04.999Z</time></trkpt><trkpt lat="47.27900228623825" lon="1.0314355849905918"><ele>94.0</ele><time>2026-04-26T16:45:05.999Z</time></trkpt><trkpt lat="47.27912848522581" lon="1.0315490422249736"><ele>94.0</ele><time>2026-04-26T16:45:06.999Z</time></trkpt><trkpt lat="47.27924811678572" lon="1.031689962518152"><ele>94.0</ele><time>2026-04-26T16:45:07.999Z</time></trkpt><trkpt lat="47.279360553634675" lon="1.0318329868122447"><ele>94.0</ele><time>2026-04-26T16:45:08.999Z</time></trkpt><trkpt lat="47.27947440717174" lon="1.031971040394517"><ele>94.0</ele><time>2026-04-26T16:45:09.999Z</time></trkpt><trkpt lat="47.279593751243" lon="1.0321015475347686"><ele>94.0</ele><time>2026-04-26T16:45:10.999Z</time></trkpt><trkpt lat="47.27971157683849" lon="1.0322492239607806"><ele>94.0</ele><time>2026-04-26T16:45:11.999Z</time></trkpt><trkpt lat="47.279833521212275" lon="1.0323968132695789"><ele>94.0</ele><time>2026-04-26T16:45:12.999Z</time></trkpt><trkpt lat="47.27995916230291" lon="1.0325335798661195"><ele>94.25</ele><time>2026-04-26T16:45:13.999Z</time></trkpt><trkpt lat="47.28008495593481" lon="1.0326814068863295"><ele>94.5</ele><time>2026-04-26T16:45:14.999Z</time></trkpt><trkpt lat="47.280203485954395" lon="1.0328213230590924"><ele>94.75</ele><time>2026-04-26T16:45:15.999Z</time></trkpt><trkpt lat="47.2803012967472" lon="1.03294114331713"><ele>95.0</ele><time>2026-04-26T16:45:16.999Z</time></trkpt><trkpt lat="47.28039114001006" lon="1.0330378375372193"><ele>95.0</ele><time>2026-04-26T16:45:17.999Z</time></trkpt><trkpt lat="47.28047666635398" lon="1.033130067889176"><ele>95.0</ele><time>2026-04-26T16:45:19Z</time></trkpt><trkpt lat="47.28054919154372" lon="1.0332264121956654"><ele>95.0</ele><time>2026-04-26T16:45:20Z</time></trkpt><trkpt lat="47.28061645867727" lon="1.0332960229128154"><ele>95.0</ele><time>2026-04-26T16:45:21Z</time></trkpt><trkpt lat="47.28067623325147" lon="1.0333505144706594"><ele>95.0</ele><time>2026-04-26T16:45:22Z</time></trkpt><trkpt lat="47.2807618609677" lon="1.0334352605542287"><ele>95.2</ele><time>2026-04-26T16:45:24Z</time></trkpt><trkpt lat="47.28081582131403" lon="1.0335179374204007"><ele>95.4</ele><time>2026-04-26T16:45:25Z</time></trkpt><trkpt lat="47.280897682125506" lon="1.0336199820621448"><ele>95.6</ele><time>2026-04-26T16:45:26Z</time></trkpt><trkpt lat="47.28098619281815" lon="1.0337370486446675"><ele>95.8</ele><time>2026-04-26T16:45:27Z</time></trkpt><trkpt lat="47.2810827610288" lon="1.0338443418544914"><ele>96.0</ele><time>2026-04-26T16:45:28Z</time></trkpt><trkpt lat="47.28118709207494" lon="1.0339557678912696"><ele>96.0</ele><time>2026-04-26T16:45:29Z</time></trkpt><trkpt lat="47.28128588259667" lon="1.0340724783261503"><ele>96.0</ele><time>2026-04-26T16:45:30Z</time></trkpt><trkpt lat="47.281388580729576" lon="1.0341992462756615"><ele>96.0</ele><time>2026-04-26T16:45:31Z</time></trkpt><trkpt lat="47.28148559830795" lon="1.0343433796615031"><ele>96.0</ele><time>2026-04-26T16:45:32Z</time></trkpt><trkpt lat="47.281595592431756" lon="1.0344853522764483"><ele>96.25</ele><time>2026-04-26T16:45:33Z</time></trkpt><trkpt lat="47.281707419272024" lon="1.0346190931165684"><ele>96.5</ele><time>2026-04-26T16:45:34Z</time></trkpt><trkpt lat="47.28181872949226" lon="1.034742679539791"><ele>96.75</ele><time>2026-04-26T16:45:35Z</time></trkpt><trkpt lat="47.28191640880305" lon="1.0348387094905125"><ele>97.0</ele><time>2026-04-26T16:45:36Z</time></trkpt><trkpt lat="47.28199898544632" lon="1.0349174554573768"><ele>97.00000000000001</ele><time>2026-04-26T16:45:37Z</time></trkpt><trkpt lat="47.28206188719201" lon="1.0349969033321451"><ele>97.0</ele><time>2026-04-26T16:45:38Z</time></trkpt><trkpt lat="47.282119241338734" lon="1.0350667340228958"><ele>97.0</ele><time>2026-04-26T16:45:39Z</time></trkpt><trkpt lat="47.282171828595835" lon="1.0351288408634753"><ele>97.0</ele><time>2026-04-26T16:45:40Z</time></trkpt><trkpt lat="47.2822068693069" lon="1.035214824005657"><ele>97.00000000000001</ele><time>2026-04-26T16:45:41Z</time></trkpt><trkpt lat="47.282264815274615" lon="1.0353037310092532"><ele>97.0</ele><time>2026-04-26T16:45:42Z</time></trkpt><trkpt lat="47.28234218294796" lon="1.0354094620745964"><ele>97.5</ele><time>2026-04-26T16:45:43Z</time></trkpt><trkpt lat="47.282433844818485" lon="1.0355304551715343"><ele>98.0</ele><time>2026-04-26T16:45:44Z</time></trkpt><trkpt lat="47.282531039193834" lon="1.0356631173371063"><ele>98.5</ele><time>2026-04-26T16:45:45Z</time></trkpt><trkpt lat="47.282635193403436" lon="1.0357835364418657"><ele>99.0</ele><time>2026-04-26T16:45:46Z</time></trkpt><trkpt lat="47.28273507483085" lon="1.03591929717372"><ele>99.0</ele><time>2026-04-26T16:45:47Z</time></trkpt><trkpt lat="47.28283053883097" lon="1.0360624362346007"><ele>99.0</ele><time>2026-04-26T16:45:48Z</time></trkpt><trkpt lat="47.28290755312856" lon="1.03623572424177"><ele>99.0</ele><time>2026-04-26T16:45:49Z</time></trkpt><trkpt lat="47.28298189015201" lon="1.0364132659357674"><ele>99.0</ele><time>2026-04-26T16:45:50Z</time></trkpt><trkpt lat="47.28302422336103" lon="1.0366139763769282"><ele>99.33333333333334</ele><time>2026-04-26T16:45:51Z</time></trkpt><trkpt lat="47.28305752152808" lon="1.0368230558355522"><ele>99.66666666666667</ele><time>2026-04-26T16:45:52Z</time></trkpt><trkpt lat="47.28307193559061" lon="1.0370498778357873"><ele>100.0</ele><time>2026-04-26T16:45:53Z</time></trkpt><trkpt lat="47.28307604007973" lon="1.0372835667161262"><ele>99.66666666666667</ele><time>2026-04-26T16:45:54Z</time></trkpt><trkpt lat="47.28307731833471" lon="1.0375140789168456"><ele>99.33333333333334</ele><time>2026-04-26T16:45:55Z</time></trkpt><trkpt lat="47.283071751762805" lon="1.03774918975079"><ele>99.0</ele><time>2026-04-26T16:45:56Z</time></trkpt><trkpt lat="47.28305544931926" lon="1.0379836670145701"><ele>99.0</ele><time>2026-04-26T16:45:57Z</time></trkpt><trkpt lat="47.283031749140605" lon="1.0382191467026292"><ele>99.0</ele><time>2026-04-26T16:45:58Z</time></trkpt><trkpt lat="47.28300204135305" lon="1.0384436211989365"><ele>99.0</ele><time>2026-04-26T16:45:59Z</time></trkpt><trkpt lat="47.28298758629733" lon="1.0386745485664892"><ele>99.25</ele><time>2026-04-26T16:46:00Z</time></trkpt><trkpt lat="47.28295697242506" lon="1.0388953697581693"><ele>99.5</ele><time>2026-04-26T16:46:01Z</time></trkpt><trkpt lat="47.28293757495267" lon="1.0391100456940168"><ele>99.75</ele><time>2026-04-26T16:46:02Z</time></trkpt><trkpt lat="47.282915632204926" lon="1.039319608865627"><ele>100.0</ele><time>2026-04-26T16:46:03Z</time></trkpt><trkpt lat="47.28291299052738" lon="1.039519566157726"><ele>100.0</ele><time>2026-04-26T16:46:04Z</time></trkpt><trkpt lat="47.28296161452612" lon="1.0397049222404349"><ele>100.0</ele><time>2026-04-26T16:46:05Z</time></trkpt><trkpt lat="47.283041422512945" lon="1.0398777388539384"><ele>100.0</ele><time>2026-04-26T16:46:06Z</time></trkpt><trkpt lat="47.283139508319316" lon="1.040038284306794"><ele>100.0</ele><time>2026-04-26T16:46:07Z</time></trkpt><trkpt lat="47.28324001975765" lon="1.0401880271797057"><ele>100.5</ele><time>2026-04-26T16:46:08Z</time></trkpt><trkpt lat="47.283327754881334" lon="1.0403513393591073"><ele>101.0</ele><time>2026-04-26T16:46:09Z</time></trkpt><trkpt lat="47.283405237981704" lon="1.0405305861752552"><ele>101.5</ele><time>2026-04-26T16:46:10Z</time></trkpt><trkpt lat="47.283501921122124" lon="1.0406899413609663"><ele>102.0</ele><time>2026-04-26T16:46:11Z</time></trkpt><trkpt lat="47.28358592849603" lon="1.0408604110567146"><ele>102.19999999999999</ele><time>2026-04-26T16:46:12Z</time></trkpt><trkpt lat="47.283672275273" lon="1.0410318654636306"><ele>102.4</ele><time>2026-04-26T16:46:13Z</time></trkpt><trkpt lat="47.28374732691739" lon="1.0411785830636633"><ele>102.6</ele><time>2026-04-26T16:46:14Z</time></trkpt><trkpt lat="47.283818001502745" lon="1.04128621540055"><ele>102.80000000000001</ele><time>2026-04-26T16:46:14.999Z</time></trkpt><trkpt lat="47.28387122056072" lon="1.0413370050555741"><ele>103.0</ele><time>2026-04-26T16:46:15.999Z</time></trkpt><trkpt lat="47.28391389062159" lon="1.0414303144180614"><ele>103.0</ele><time>2026-04-26T16:46:17.999Z</time></trkpt><trkpt lat="47.2838285069544" lon="1.0415036626709386"><ele>103.0</ele><time>2026-04-26T16:46:18.999Z</time></trkpt><trkpt lat="47.283767274831945" lon="1.0416014486123215"><ele>103.0</ele><time>2026-04-26T16:46:19.999Z</time></trkpt><trkpt lat="47.283688917297" lon="1.0417217581069238"><ele>103.0</ele><time>2026-04-26T16:46:20.999Z</time></trkpt><trkpt lat="47.28359787055735" lon="1.0418559106407703"><ele>103.0</ele><time>2026-04-26T16:46:21.999Z</time></trkpt><trkpt lat="47.283499051943224" lon="1.0419985506001945"><ele>103.25</ele><time>2026-04-26T16:46:22.999Z</time></trkpt><trkpt lat="47.28339573303126" lon="1.0421467740936408"><ele>103.5</ele><time>2026-04-26T16:46:23.999Z</time></trkpt><trkpt lat="47.28330162604128" lon="1.0423115309017033"><ele>103.75</ele><time>2026-04-26T16:46:24.999Z</time></trkpt><trkpt lat="47.28318951413912" lon="1.042467190976128"><ele>104.0</ele><time>2026-04-26T16:46:25.999Z</time></trkpt><trkpt lat="47.283085035733485" lon="1.042646218948693"><ele>103.33333333333333</ele><time>2026-04-26T16:46:26.999Z</time></trkpt><trkpt lat="47.282993686816766" lon="1.0428355590962617"><ele>102.66666666666666</ele><time>2026-04-26T16:46:27.999Z</time></trkpt><trkpt lat="47.282912239204876" lon="1.0430404608617045"><ele>102.0</ele><time>2026-04-26T16:46:28.999Z</time></trkpt><trkpt lat="47.28282672964278" lon="1.0432409083908587"><ele>101.0</ele><time>2026-04-26T16:46:29.999Z</time></trkpt><trkpt lat="47.282719365154264" lon="1.0434063636754471"><ele>100.0</ele><time>2026-04-26T16:46:30.999Z</time></trkpt><trkpt lat="47.28261507397593" lon="1.0435754131580364"><ele>99.0</ele><time>2026-04-26T16:46:31.999Z</time></trkpt><trkpt lat="47.28252017226687" lon="1.043757558736675"><ele>99.0</ele><time>2026-04-26T16:46:32.999Z</time></trkpt><trkpt lat="47.282425810838525" lon="1.0439336268991413"><ele>99.0</ele><time>2026-04-26T16:46:33.999Z</time></trkpt><trkpt lat="47.28235577165785" lon="1.044125687449065"><ele>99.0</ele><time>2026-04-26T16:46:34.999Z</time></trkpt><trkpt lat="47.28230290836125" lon="1.044334229278867"><ele>99.0</ele><time>2026-04-26T16:46:35.999Z</time></trkpt><trkpt lat="47.28226266696681" lon="1.0445350866126335"><ele>99.0</ele><time>2026-04-26T16:46:36.999Z</time></trkpt><trkpt lat="47.28222461348595" lon="1.0447328358097037"><ele>99.0</ele><time>2026-04-26T16:46:37.999Z</time></trkpt><trkpt lat="47.28218336255761" lon="1.0449134592094849"><ele>99.0</ele><time>2026-04-26T16:46:38.999Z</time></trkpt><trkpt lat="47.28211551977079" lon="1.0450584567283379"><ele>99.0</ele><time>2026-04-26T16:46:39.999Z</time></trkpt><trkpt lat="47.28207262178098" lon="1.045192741757308"><ele>99.0</ele><time>2026-04-26T16:46:40.999Z</time></trkpt><trkpt lat="47.28202085192555" lon="1.0452802043401828"><ele>99.0</ele><time>2026-04-26T16:46:41.999Z</time></trkpt><trkpt lat="47.28198046565362" lon="1.0453612956439904"><ele>99.0</ele><time>2026-04-26T16:46:42.999Z</time></trkpt><trkpt lat="47.28190783432666" lon="1.0454816237437339"><ele>99.0</ele><time>2026-04-26T16:46:44.999Z</time></trkpt><trkpt lat="47.28202060313564" lon="1.0456070270704345"><ele>99.0</ele><time>2026-04-26T16:46:45.999Z</time></trkpt><trkpt lat="47.28210454343123" lon="1.045662874678541"><ele>99.0</ele><time>2026-04-26T16:46:46.999Z</time></trkpt><trkpt lat="47.282195135603835" lon="1.0457354316587593"><ele>99.0</ele><time>2026-04-26T16:46:47.999Z</time></trkpt><trkpt lat="47.28229796912227" lon="1.0458156275528145"><ele>99.0</ele><time>2026-04-26T16:46:48.999Z</time></trkpt><trkpt lat="47.28241956432177" lon="1.0458923258449364"><ele>99.0</ele><time>2026-04-26T16:46:49.999Z</time></trkpt><trkpt lat="47.28254154496762" lon="1.0459771641566256"><ele>99.66666666666666</ele><time>2026-04-26T16:46:50.999Z</time></trkpt><trkpt lat="47.282679604011946" lon="1.046042150026049"><ele>100.33333333333333</ele><time>2026-04-26T16:46:51.999Z</time></trkpt><trkpt lat="47.28282373600466" lon="1.0461098967538256"><ele>101.0</ele><time>2026-04-26T16:46:52.999Z</time></trkpt><trkpt lat="47.282979819903034" lon="1.0461530495769316"><ele>102.0</ele><time>2026-04-26T16:46:53.999Z</time></trkpt><trkpt lat="47.28313650434061" lon="1.0461926578978098"><ele>103.0</ele><time>2026-04-26T16:46:54.999Z</time></trkpt><trkpt lat="47.283298355584265" lon="1.0462120663733552"><ele>104.0</ele><time>2026-04-26T16:46:55.999Z</time></trkpt><trkpt lat="47.28347044645022" lon="1.0462151287437558"><ele>104.0</ele><time>2026-04-26T16:46:56.999Z</time></trkpt><trkpt lat="47.28364398615102" lon="1.0462264778482533"><ele>104.0</ele><time>2026-04-26T16:46:57.999Z</time></trkpt><trkpt lat="47.28382119851418" lon="1.0462290485711239"><ele>104.0</ele><time>2026-04-26T16:46:58.999Z</time></trkpt><trkpt lat="47.28399413341397" lon="1.0462628595397205"><ele>105.0</ele><time>2026-04-26T16:46:59.999Z</time></trkpt><trkpt lat="47.28417202265384" lon="1.046253015459308"><ele>106.0</ele><time>2026-04-26T16:47:00.999Z</time></trkpt><trkpt lat="47.284354630057706" lon="1.0462856284058535"><ele>107.0</ele><time>2026-04-26T16:47:01.999Z</time></trkpt><trkpt lat="47.284537169184865" lon="1.0462937893608246"><ele>107.0</ele><time>2026-04-26T16:47:02.999Z</time></trkpt><trkpt lat="47.28471745328333" lon="1.046279323903898"><ele>107.0</ele><time>2026-04-26T16:47:03.999Z</time></trkpt><trkpt lat="47.28489987369804" lon="1.0462899993872412"><ele>107.0</ele><time>2026-04-26T16:47:04.999Z</time></trkpt><trkpt lat="47.28507498807553" lon="1.0463187976976345"><ele>107.66666666666666</ele><time>2026-04-26T16:47:05.999Z</time></trkpt><trkpt lat="47.28526733390547" lon="1.046333776520203"><ele>108.33333333333334</ele><time>2026-04-26T16:47:06.999Z</time></trkpt><trkpt lat="47.28543046916214" lon="1.046359565951077"><ele>109.0</ele><time>2026-04-26T16:47:07.999Z</time></trkpt><trkpt lat="47.28560435242056" lon="1.0464063804159758"><ele>109.33333333333334</ele><time>2026-04-26T16:47:08.999Z</time></trkpt><trkpt lat="47.285775263270814" lon="1.0464571987604019"><ele>109.66666666666666</ele><time>2026-04-26T16:47:09.999Z</time></trkpt><trkpt lat="47.285939913212715" lon="1.0465242705280813"><ele>110.0</ele><time>2026-04-26T16:47:10.999Z</time></trkpt><trkpt lat="47.28610549885827" lon="1.0465960709318751"><ele>109.66666666666666</ele><time>2026-04-26T16:47:11.999Z</time></trkpt><trkpt lat="47.28627348656805" lon="1.0466877959646639"><ele>109.33333333333334</ele><time>2026-04-26T16:47:12.999Z</time></trkpt><trkpt lat="47.28642716911963" lon="1.0467729670338528"><ele>109.0</ele><time>2026-04-26T16:47:13.999Z</time></trkpt><trkpt lat="47.28659452060503" lon="1.0468657111568684"><ele>109.0</ele><time>2026-04-26T16:47:14.999Z</time></trkpt><trkpt lat="47.28675739388639" lon="1.046958609137456"><ele>109.0</ele><time>2026-04-26T16:47:15.999Z</time></trkpt><trkpt lat="47.28691828166813" lon="1.0470528722297625"><ele>109.0</ele><time>2026-04-26T16:47:16.999Z</time></trkpt><trkpt lat="47.287082442672684" lon="1.0471477069075101"><ele>109.0</ele><time>2026-04-26T16:47:17.999Z</time></trkpt><trkpt lat="47.28724440860316" lon="1.0472395081967392"><ele>109.0</ele><time>2026-04-26T16:47:18.999Z</time></trkpt><trkpt lat="47.28740466890733" lon="1.0473283469041783"><ele>109.0</ele><time>2026-04-26T16:47:19.999Z</time></trkpt><trkpt lat="47.28757613192826" lon="1.0474213247467408"><ele>109.0</ele><time>2026-04-26T16:47:20.999Z</time></trkpt><trkpt lat="47.28775007468335" lon="1.0475102825837965"><ele>109.0</ele><time>2026-04-26T16:47:21.999Z</time></trkpt><trkpt lat="47.28793549260973" lon="1.0475664273527756"><ele>109.0</ele><time>2026-04-26T16:47:22.999Z</time></trkpt><trkpt lat="47.28811027329068" lon="1.047633064256039"><ele>109.33333333333334</ele><time>2026-04-26T16:47:24Z</time></trkpt><trkpt lat="47.28829262447945" lon="1.0477094220137235"><ele>109.66666666666666</ele><time>2026-04-26T16:47:25Z</time></trkpt><trkpt lat="47.28848778779585" lon="1.0477303161697822"><ele>110.0</ele><time>2026-04-26T16:47:26Z</time></trkpt><trkpt lat="47.28867334247775" lon="1.0477788434047146"><ele>110.0</ele><time>2026-04-26T16:47:27Z</time></trkpt><trkpt lat="47.28885702208308" lon="1.0478370143232676"><ele>110.0</ele><time>2026-04-26T16:47:28Z</time></trkpt><trkpt lat="47.28904106919283" lon="1.0478958455116862"><ele>110.0</ele><time>2026-04-26T16:47:29Z</time></trkpt><trkpt lat="47.28921830672329" lon="1.0479895165759812"><ele>111.33333333333333</ele><time>2026-04-26T16:47:30Z</time></trkpt><trkpt lat="47.28938655405922" lon="1.0480804448476955"><ele>112.66666666666666</ele><time>2026-04-26T16:47:31Z</time></trkpt><trkpt lat="47.28955466156" lon="1.0481887661138443"><ele>114.0</ele><time>2026-04-26T16:47:32Z</time></trkpt><trkpt lat="47.28971974232673" lon="1.0482750058775772"><ele>112.66666666666666</ele><time>2026-04-26T16:47:33Z</time></trkpt><trkpt lat="47.28989502699215" lon="1.0483916278202197"><ele>111.33333333333333</ele><time>2026-04-26T16:47:34Z</time></trkpt><trkpt lat="47.29004648125891" lon="1.0485121714913765"><ele>110.0</ele><time>2026-04-26T16:47:35Z</time></trkpt><trkpt lat="47.29020978543731" lon="1.0486365791673746"><ele>110.0</ele><time>2026-04-26T16:47:36Z</time></trkpt><trkpt lat="47.290360251339486" lon="1.0487530476683153"><ele>110.0</ele><time>2026-04-26T16:47:37Z</time></trkpt><trkpt lat="47.29051949757455" lon="1.0488654052970443"><ele>110.0</ele><time>2026-04-26T16:47:38Z</time></trkpt><trkpt lat="47.290676664530835" lon="1.0490093360276669"><ele>110.33333333333333</ele><time>2026-04-26T16:47:39Z</time></trkpt><trkpt lat="47.29082904496302" lon="1.0491525142120743"><ele>110.66666666666666</ele><time>2026-04-26T16:47:40Z</time></trkpt><trkpt lat="47.29098481109061" lon="1.049285961064118"><ele>111.0</ele><time>2026-04-26T16:47:41Z</time></trkpt><trkpt lat="47.29114021159521" lon="1.0494313560570512"><ele>111.0</ele><time>2026-04-26T16:47:42Z</time></trkpt><trkpt lat="47.29127971521602" lon="1.0495798593809307"><ele>111.0</ele><time>2026-04-26T16:47:43Z</time></trkpt><trkpt lat="47.29143045957891" lon="1.0497294734925995"><ele>111.0</ele><time>2026-04-26T16:47:44Z</time></trkpt><trkpt lat="47.291591520619306" lon="1.049868666365798"><ele>110.66666666666666</ele><time>2026-04-26T16:47:45Z</time></trkpt><trkpt lat="47.291751577833075" lon="1.0499928246605148"><ele>110.33333333333333</ele><time>2026-04-26T16:47:46Z</time></trkpt><trkpt lat="47.29191486953122" lon="1.0501207018284549"><ele>110.0</ele><time>2026-04-26T16:47:47Z</time></trkpt><trkpt lat="47.29208529600598" lon="1.050224594515245"><ele>109.33333333333333</ele><time>2026-04-26T16:47:48Z</time></trkpt><trkpt lat="47.29225864411114" lon="1.050322756935082"><ele>108.66666666666666</ele><time>2026-04-26T16:47:49Z</time></trkpt><trkpt lat="47.29243893209008" lon="1.050424047586409"><ele>108.0</ele><time>2026-04-26T16:47:50Z</time></trkpt><trkpt lat="47.292603429904496" lon="1.050525115071695"><ele>108.0</ele><time>2026-04-26T16:47:51Z</time></trkpt><trkpt lat="47.292767212542614" lon="1.050644354792153"><ele>108.0</ele><time>2026-04-26T16:47:52Z</time></trkpt><trkpt lat="47.29293798099088" lon="1.0507396146084291"><ele>108.0</ele><time>2026-04-26T16:47:53Z</time></trkpt><trkpt lat="47.29311536498042" lon="1.0508498283390213"><ele>107.33333333333334</ele><time>2026-04-26T16:47:54Z</time></trkpt><trkpt lat="47.29327781037315" lon="1.0509704936794766"><ele>106.66666666666667</ele><time>2026-04-26T16:47:55Z</time></trkpt><trkpt lat="47.29345277732535" lon="1.0510528292099275"><ele>106.0</ele><time>2026-04-26T16:47:56Z</time></trkpt><trkpt lat="47.293629066197084" lon="1.051144653743271"><ele>106.0</ele><time>2026-04-26T16:47:57Z</time></trkpt><trkpt lat="47.293796704348146" lon="1.0512559905303536"><ele>106.0</ele><time>2026-04-26T16:47:58Z</time></trkpt><trkpt lat="47.29397421702769" lon="1.051348580291614"><ele>106.0</ele><time>2026-04-26T16:47:59Z</time></trkpt><trkpt lat="47.294146141140594" lon="1.0514210498505459"><ele>105.66666666666667</ele><time>2026-04-26T16:48:00Z</time></trkpt><trkpt lat="47.29431053892494" lon="1.0515219121938624"><ele>105.33333333333334</ele><time>2026-04-26T16:48:01Z</time></trkpt><trkpt lat="47.29447928100245" lon="1.0516009003936722"><ele>105.0</ele><time>2026-04-26T16:48:02Z</time></trkpt><trkpt lat="47.29463402535615" lon="1.0517463901126565"><ele>105.33333333333334</ele><time>2026-04-26T16:48:03Z</time></trkpt><trkpt lat="47.29478619997871" lon="1.0518711775633063"><ele>105.66666666666667</ele><time>2026-04-26T16:48:04Z</time></trkpt><trkpt lat="47.29492445556163" lon="1.0520462036451204"><ele>106.0</ele><time>2026-04-26T16:48:05Z</time></trkpt><trkpt lat="47.29508720196483" lon="1.0521608001014353"><ele>106.0</ele><time>2026-04-26T16:48:06Z</time></trkpt><trkpt lat="47.29524890642415" lon="1.0522661569811134"><ele>106.0</ele><time>2026-04-26T16:48:07Z</time></trkpt><trkpt lat="47.29540868491218" lon="1.052376506867014"><ele>106.0</ele><time>2026-04-26T16:48:08Z</time></trkpt><trkpt lat="47.29557251353666" lon="1.0524626583370742"><ele>106.33333333333334</ele><time>2026-04-26T16:48:09Z</time></trkpt><trkpt lat="47.295738790056724" lon="1.0525364946185372"><ele>106.66666666666666</ele><time>2026-04-26T16:48:10Z</time></trkpt><trkpt lat="47.295900683797946" lon="1.0526052083727018"><ele>107.0</ele><time>2026-04-26T16:48:11Z</time></trkpt><trkpt lat="47.29605891733446" lon="1.0526885214398627"><ele>107.0</ele><time>2026-04-26T16:48:12Z</time></trkpt><trkpt lat="47.296214845925" lon="1.0527852471271342"><ele>107.0</ele><time>2026-04-26T16:48:13Z</time></trkpt><trkpt lat="47.29635676048689" lon="1.0528343150727106"><ele>107.0</ele><time>2026-04-26T16:48:14Z</time></trkpt><trkpt lat="47.296475328017884" lon="1.0529214767348756"><ele>107.0</ele><time>2026-04-26T16:48:15Z</time></trkpt><trkpt lat="47.29657514636714" lon="1.0529546651235486"><ele>107.19999999999999</ele><time>2026-04-26T16:48:16Z</time></trkpt><trkpt lat="47.29665459784656" lon="1.0529926572836747"><ele>107.39999999999999</ele><time>2026-04-26T16:48:17Z</time></trkpt><trkpt lat="47.29673902906376" lon="1.053046042495297"><ele>107.60000000000001</ele><time>2026-04-26T16:48:18.999Z</time></trkpt><trkpt lat="47.29684572037075" lon="1.0530930887377317"><ele>107.80000000000001</ele><time>2026-04-26T16:48:20.999Z</time></trkpt><trkpt lat="47.29692795721197" lon="1.0531447514544914"><ele>108.0</ele><time>2026-04-26T16:48:21.999Z</time></trkpt><trkpt lat="47.29702924707303" lon="1.0532373607904915"><ele>108.0</ele><time>2026-04-26T16:48:22.999Z</time></trkpt><trkpt lat="47.297149975899224" lon="1.0533154164525436"><ele>108.0</ele><time>2026-04-26T16:48:23.999Z</time></trkpt><trkpt lat="47.29727538266216" lon="1.0533960350419584"><ele>108.0</ele><time>2026-04-26T16:48:24.999Z</time></trkpt><trkpt lat="47.297406393061785" lon="1.0534802560323397"><ele>108.0</ele><time>2026-04-26T16:48:25.999Z</time></trkpt><trkpt lat="47.29754741091302" lon="1.0535438529391608"><ele>108.0</ele><time>2026-04-26T16:48:26.999Z</time></trkpt><trkpt lat="47.297676295980544" lon="1.053647719437181"><ele>108.0</ele><time>2026-04-26T16:48:27.999Z</time></trkpt><trkpt lat="47.29782083813167" lon="1.0537355014048468"><ele>108.0</ele><time>2026-04-26T16:48:28.999Z</time></trkpt><trkpt lat="47.29795291853712" lon="1.0538427800445354"><ele>108.0</ele><time>2026-04-26T16:48:29.999Z</time></trkpt><trkpt lat="47.29808108554973" lon="1.0539731567039632"><ele>108.0</ele><time>2026-04-26T16:48:30.999Z</time></trkpt><trkpt lat="47.298199791291786" lon="1.0541079077533546"><ele>108.0</ele><time>2026-04-26T16:48:31.999Z</time></trkpt><trkpt lat="47.29835934264189" lon="1.0541873865120686"><ele>108.0</ele><time>2026-04-26T16:48:32.999Z</time></trkpt><trkpt lat="47.29850174979875" lon="1.054283582822054"><ele>108.0</ele><time>2026-04-26T16:48:33.999Z</time></trkpt><trkpt lat="47.298646412369436" lon="1.0543902329621004"><ele>108.0</ele><time>2026-04-26T16:48:34.999Z</time></trkpt><trkpt lat="47.298779171491525" lon="1.05449208334593"><ele>108.0</ele><time>2026-04-26T16:48:35.999Z</time></trkpt><trkpt lat="47.29890392949943" lon="1.05462401529003"><ele>108.0</ele><time>2026-04-26T16:48:36.999Z</time></trkpt><trkpt lat="47.29901039050803" lon="1.0547946196950697"><ele>108.0</ele><time>2026-04-26T16:48:37.999Z</time></trkpt><trkpt lat="47.29911316981845" lon="1.0549631385654263"><ele>108.25</ele><time>2026-04-26T16:48:38.999Z</time></trkpt><trkpt lat="47.29923716272115" lon="1.0550898712991088"><ele>108.5</ele><time>2026-04-26T16:48:39.999Z</time></trkpt><trkpt lat="47.29933780723435" lon="1.0552185136903853"><ele>108.75</ele><time>2026-04-26T16:48:40.999Z</time></trkpt><trkpt lat="47.29942126604853" lon="1.0552905694984136"><ele>109.0</ele><time>2026-04-26T16:48:41.999Z</time></trkpt><trkpt lat="47.299513279732786" lon="1.0553197080630994"><ele>109.0</ele><time>2026-04-26T16:48:42.999Z</time></trkpt><trkpt lat="47.2995930597325" lon="1.055307060385184"><ele>109.0</ele><time>2026-04-26T16:48:43.999Z</time></trkpt><trkpt lat="47.29968583377167" lon="1.0553193305826163"><ele>109.0</ele><time>2026-04-26T16:48:44.999Z</time></trkpt><trkpt lat="47.299722627683956" lon="1.0557654620994603"><ele>109.33333333333334</ele><time>2026-04-26T16:48:45.999Z</time></trkpt><trkpt lat="47.29979840171446" lon="1.0559522824578549"><ele>109.66666666666666</ele><time>2026-04-26T16:48:46.999Z</time></trkpt><trkpt lat="47.299882685831044" lon="1.0561417627193261"><ele>110.0</ele><time>2026-04-26T16:48:47.999Z</time></trkpt><trkpt lat="47.29997323812606" lon="1.0563362567083143"><ele>110.0</ele><time>2026-04-26T16:48:48.999Z</time></trkpt><trkpt lat="47.30008129204739" lon="1.0565242714430347"><ele>110.0</ele><time>2026-04-26T16:48:49.999Z</time></trkpt><trkpt lat="47.30020613131794" lon="1.0566981738696448"><ele>110.0</ele><time>2026-04-26T16:48:50.999Z</time></trkpt><trkpt lat="47.300345382214495" lon="1.0568514846646215"><ele>110.0</ele><time>2026-04-26T16:48:51.999Z</time></trkpt><trkpt lat="47.30049597890036" lon="1.0569973388830394"><ele>110.0</ele><time>2026-04-26T16:48:52.999Z</time></trkpt><trkpt lat="47.300649941913434" lon="1.0571403640288972"><ele>110.0</ele><time>2026-04-26T16:48:53.999Z</time></trkpt><trkpt lat="47.3008056479866" lon="1.057278013330481"><ele>110.0</ele><time>2026-04-26T16:48:54.999Z</time></trkpt><trkpt lat="47.30095753937245" lon="1.0574294711319274"><ele>110.0</ele><time>2026-04-26T16:48:55.999Z</time></trkpt><trkpt lat="47.30111386695094" lon="1.0575802300950952"><ele>110.0</ele><time>2026-04-26T16:48:56.999Z</time></trkpt><trkpt lat="47.30127041831898" lon="1.0577333865080456"><ele>109.33333333333333</ele><time>2026-04-26T16:48:57.999Z</time></trkpt><trkpt lat="47.301421703367495" lon="1.0578872985048045"><ele>108.66666666666666</ele><time>2026-04-26T16:48:58.999Z</time></trkpt><trkpt lat="47.301573902475056" lon="1.0580454670269686"><ele>108.0</ele><time>2026-04-26T16:48:59.999Z</time></trkpt><trkpt lat="47.301708437054685" lon="1.0582357219888001"><ele>108.66666666666666</ele><time>2026-04-26T16:49:00.999Z</time></trkpt><trkpt lat="47.301846349334426" lon="1.0584094039780934"><ele>109.33333333333333</ele><time>2026-04-26T16:49:01.999Z</time></trkpt><trkpt lat="47.301974572085776" lon="1.0586024678962287"><ele>110.0</ele><time>2026-04-26T16:49:02.999Z</time></trkpt><trkpt lat="47.30210679488777" lon="1.0588052210586187"><ele>110.0</ele><time>2026-04-26T16:49:03.999Z</time></trkpt><trkpt lat="47.302232035528625" lon="1.05899673984144"><ele>110.0</ele><time>2026-04-26T16:49:04.999Z</time></trkpt><trkpt lat="47.30236213959847" lon="1.059192340217461"><ele>110.0</ele><time>2026-04-26T16:49:05.999Z</time></trkpt><trkpt lat="47.30250179014763" lon="1.0593671690964515"><ele>111.33333333333333</ele><time>2026-04-26T16:49:06.999Z</time></trkpt><trkpt lat="47.30263330242022" lon="1.0595642473759148"><ele>112.66666666666666</ele><time>2026-04-26T16:49:07.999Z</time></trkpt><trkpt lat="47.30276576378497" lon="1.0597489444929629"><ele>114.0</ele><time>2026-04-26T16:49:08.999Z</time></trkpt><trkpt lat="47.30289337297578" lon="1.059941141704522"><ele>114.0</ele><time>2026-04-26T16:49:09.999Z</time></trkpt><trkpt lat="47.30303204360443" lon="1.0601278512383987"><ele>114.0</ele><time>2026-04-26T16:49:10.999Z</time></trkpt><trkpt lat="47.30317565193359" lon="1.0603106714013286"><ele>114.0</ele><time>2026-04-26T16:49:11.999Z</time></trkpt><trkpt lat="47.30333066119494" lon="1.0604696543882288"><ele>114.0</ele><time>2026-04-26T16:49:12.999Z</time></trkpt><trkpt lat="47.303495305085" lon="1.0606060817243617"><ele>114.0</ele><time>2026-04-26T16:49:13.999Z</time></trkpt><trkpt lat="47.3036500808912" lon="1.0607802578179957"><ele>114.0</ele><time>2026-04-26T16:49:14.999Z</time></trkpt><trkpt lat="47.30381448513648" lon="1.0609098536167911"><ele>113.33333333333334</ele><time>2026-04-26T16:49:15.999Z</time></trkpt><trkpt lat="47.303974682842714" lon="1.0610595293971223"><ele>112.66666666666667</ele><time>2026-04-26T16:49:16.999Z</time></trkpt><trkpt lat="47.30412787879632" lon="1.0612252602634238"><ele>112.0</ele><time>2026-04-26T16:49:17.999Z</time></trkpt><trkpt lat="47.30429789214014" lon="1.061356742683979"><ele>112.0</ele><time>2026-04-26T16:49:18.999Z</time></trkpt><trkpt lat="47.3044406247728" lon="1.0615009548316419"><ele>112.0</ele><time>2026-04-26T16:49:19.999Z</time></trkpt><trkpt lat="47.3045633995924" lon="1.061618890516513"><ele>112.0</ele><time>2026-04-26T16:49:20.999Z</time></trkpt><trkpt lat="47.30465013153394" lon="1.061731332924454"><ele>112.0</ele><time>2026-04-26T16:49:21.999Z</time></trkpt><trkpt lat="47.304757893941265" lon="1.061841937589671"><ele>111.25</ele><time>2026-04-26T16:49:22.999Z</time></trkpt><trkpt lat="47.30487157082918" lon="1.0619376207470785"><ele>110.5</ele><time>2026-04-26T16:49:23.999Z</time></trkpt><trkpt lat="47.30497736244134" lon="1.0620395335229693"><ele>109.75</ele><time>2026-04-26T16:49:24.999Z</time></trkpt><trkpt lat="47.30510367387708" lon="1.0621748681736647"><ele>109.0</ele><time>2026-04-26T16:49:25.999Z</time></trkpt><trkpt lat="47.30523088081456" lon="1.0623184728280006"><ele>109.33333333333334</ele><time>2026-04-26T16:49:26.999Z</time></trkpt><trkpt lat="47.305366929797344" lon="1.0624704187505938"><ele>109.66666666666666</ele><time>2026-04-26T16:49:27.999Z</time></trkpt><trkpt lat="47.305503667345384" lon="1.062612777518286"><ele>110.0</ele><time>2026-04-26T16:49:28.999Z</time></trkpt><trkpt lat="47.30564732301828" lon="1.0627988490240095"><ele>110.0</ele><time>2026-04-26T16:49:30Z</time></trkpt><trkpt lat="47.30578839337748" lon="1.062994563147743"><ele>110.0</ele><time>2026-04-26T16:49:31Z</time></trkpt><trkpt lat="47.305903954834996" lon="1.0631723111000302"><ele>110.0</ele><time>2026-04-26T16:49:32Z</time></trkpt><trkpt lat="47.306039333592025" lon="1.0633656536386797"><ele>110.0</ele><time>2026-04-26T16:49:33Z</time></trkpt><trkpt lat="47.30616965496212" lon="1.0635750686835632"><ele>110.0</ele><time>2026-04-26T16:49:34Z</time></trkpt><trkpt lat="47.3063088895041" lon="1.0637737885516767"><ele>110.0</ele><time>2026-04-26T16:49:35Z</time></trkpt><trkpt lat="47.30644494250018" lon="1.063967865475062"><ele>109.66666666666666</ele><time>2026-04-26T16:49:36Z</time></trkpt><trkpt lat="47.30658263376068" lon="1.0641674510498507"><ele>109.33333333333334</ele><time>2026-04-26T16:49:37Z</time></trkpt><trkpt lat="47.306708998365174" lon="1.064390163125982"><ele>109.0</ele><time>2026-04-26T16:49:38Z</time></trkpt><trkpt lat="47.30684091693082" lon="1.064602323892924"><ele>109.0</ele><time>2026-04-26T16:49:39Z</time></trkpt><trkpt lat="47.30698300769843" lon="1.0648034967172266"><ele>109.0</ele><time>2026-04-26T16:49:40Z</time></trkpt><trkpt lat="47.30709391531729" lon="1.0650402137107116"><ele>109.0</ele><time>2026-04-26T16:49:41Z</time></trkpt><trkpt lat="47.3071985041941" lon="1.065277410708683"><ele>109.33333333333334</ele><time>2026-04-26T16:49:42Z</time></trkpt><trkpt lat="47.307313318857446" lon="1.0655113360010549"><ele>109.66666666666666</ele><time>2026-04-26T16:49:43Z</time></trkpt><trkpt lat="47.3074215632234" lon="1.06575513237341"><ele>110.0</ele><time>2026-04-26T16:49:44Z</time></trkpt><trkpt lat="47.307541032812104" lon="1.0659818302401665"><ele>110.0</ele><time>2026-04-26T16:49:45Z</time></trkpt><trkpt lat="47.307671945254164" lon="1.0661998724599737"><ele>110.0</ele><time>2026-04-26T16:49:46Z</time></trkpt><trkpt lat="47.30780825620277" lon="1.0664160911080407"><ele>110.0</ele><time>2026-04-26T16:49:47Z</time></trkpt><trkpt lat="47.30794304377915" lon="1.0666377364986739"><ele>110.0</ele><time>2026-04-26T16:49:48Z</time></trkpt><trkpt lat="47.30806959048556" lon="1.0668707454161521"><ele>110.0</ele><time>2026-04-26T16:49:49Z</time></trkpt><trkpt lat="47.30819692826011" lon="1.067101112442053"><ele>110.0</ele><time>2026-04-26T16:49:50Z</time></trkpt><trkpt lat="47.308316694798386" lon="1.0673453833792677"><ele>109.33333333333333</ele><time>2026-04-26T16:49:51Z</time></trkpt><trkpt lat="47.30843864359928" lon="1.0675886185956391"><ele>108.66666666666666</ele><time>2026-04-26T16:49:52Z</time></trkpt><trkpt lat="47.308559950767105" lon="1.0678338793580289"><ele>108.0</ele><time>2026-04-26T16:49:53Z</time></trkpt><trkpt lat="47.30867970142396" lon="1.0680806196958346"><ele>107.33333333333334</ele><time>2026-04-26T16:49:54Z</time></trkpt><trkpt lat="47.308799464776044" lon="1.068324737550594"><ele>106.66666666666667</ele><time>2026-04-26T16:49:55Z</time></trkpt><trkpt lat="47.3089238096013" lon="1.068572688396625"><ele>106.0</ele><time>2026-04-26T16:49:56Z</time></trkpt><trkpt lat="47.30906342229583" lon="1.068813852726793"><ele>105.33333333333334</ele><time>2026-04-26T16:49:57Z</time></trkpt><trkpt lat="47.30921392281148" lon="1.0690309694449407"><ele>104.66666666666666</ele><time>2026-04-26T16:49:58Z</time></trkpt><trkpt lat="47.30937705663951" lon="1.069242463590705"><ele>104.0</ele><time>2026-04-26T16:49:59Z</time></trkpt><trkpt lat="47.309548776722295" lon="1.0694325792616317"><ele>102.66666666666666</ele><time>2026-04-26T16:50:00Z</time></trkpt><trkpt lat="47.30972627196919" lon="1.0696061993522932"><ele>101.33333333333334</ele><time>2026-04-26T16:50:01Z</time></trkpt><trkpt lat="47.30989555527091" lon="1.0697854903863866"><ele>100.0</ele><time>2026-04-26T16:50:02Z</time></trkpt><trkpt lat="47.310066363869176" lon="1.0699636026893213"><ele>98.0</ele><time>2026-04-26T16:50:03Z</time></trkpt><trkpt lat="47.310232188867346" lon="1.0701448706982384"><ele>96.0</ele><time>2026-04-26T16:50:04Z</time></trkpt><trkpt lat="47.310389756326174" lon="1.0703064807003677"><ele>94.0</ele><time>2026-04-26T16:50:05Z</time></trkpt><trkpt lat="47.31053532221141" lon="1.070456616910225"><ele>92.66666666666666</ele><time>2026-04-26T16:50:06Z</time></trkpt><trkpt lat="47.31066427198678" lon="1.070624081080005"><ele>91.33333333333333</ele><time>2026-04-26T16:50:07Z</time></trkpt><trkpt lat="47.310787357499386" lon="1.0707776365769905"><ele>90.0</ele><time>2026-04-26T16:50:08Z</time></trkpt><trkpt lat="47.31091454996922" lon="1.070975247938955"><ele>90.0</ele><time>2026-04-26T16:50:09Z</time></trkpt><trkpt lat="47.311023847340316" lon="1.0711857066877732"><ele>90.0</ele><time>2026-04-26T16:50:10Z</time></trkpt><trkpt lat="47.31114420731361" lon="1.071398407668528"><ele>90.0</ele><time>2026-04-26T16:50:11Z</time></trkpt><trkpt lat="47.31123606226629" lon="1.0716276515180418"><ele>89.33333333333333</ele><time>2026-04-26T16:50:12Z</time></trkpt><trkpt lat="47.31133673592986" lon="1.0718406134467968"><ele>88.66666666666666</ele><time>2026-04-26T16:50:13Z</time></trkpt><trkpt lat="47.31143453837656" lon="1.0720437221214791"><ele>88.0</ele><time>2026-04-26T16:50:14Z</time></trkpt><trkpt lat="47.31154059555915" lon="1.0722284090042098"><ele>88.0</ele><time>2026-04-26T16:50:15Z</time></trkpt><trkpt lat="47.31163167761695" lon="1.0724099284198723"><ele>88.0</ele><time>2026-04-26T16:50:16Z</time></trkpt><trkpt lat="47.31169733651526" lon="1.0725967183691167"><ele>88.0</ele><time>2026-04-26T16:50:17Z</time></trkpt><trkpt lat="47.311727457310596" lon="1.0727804891108765"><ele>88.0</ele><time>2026-04-26T16:50:18Z</time></trkpt><trkpt lat="47.31177090600198" lon="1.0729752535858115"><ele>87.75</ele><time>2026-04-26T16:50:19Z</time></trkpt><trkpt lat="47.311769978049576" lon="1.073178148374278"><ele>87.5</ele><time>2026-04-26T16:50:20Z</time></trkpt><trkpt lat="47.31181034469239" lon="1.0733853501398536"><ele>87.25</ele><time>2026-04-26T16:50:21Z</time></trkpt><trkpt lat="47.3118443111762" lon="1.0735943070850467"><ele>87.0</ele><time>2026-04-26T16:50:22Z</time></trkpt><trkpt lat="47.31190177813334" lon="1.0737940244662774"><ele>86.33333333333333</ele><time>2026-04-26T16:50:22.999Z</time></trkpt><trkpt lat="47.31197682219901" lon="1.0739818316701306"><ele>85.66666666666666</ele><time>2026-04-26T16:50:23.999Z</time></trkpt><trkpt lat="47.31206162365389" lon="1.0741608900866584"><ele>85.0</ele><time>2026-04-26T16:50:24.999Z</time></trkpt><trkpt lat="47.31215232533039" lon="1.0743505673328517"><ele>85.0</ele><time>2026-04-26T16:50:25.999Z</time></trkpt><trkpt lat="47.312245770694744" lon="1.0745310752096102"><ele>85.0</ele><time>2026-04-26T16:50:26.999Z</time></trkpt><trkpt lat="47.31235010060815" lon="1.0747171747133781"><ele>85.0</ele><time>2026-04-26T16:50:27.999Z</time></trkpt><trkpt lat="47.31241471708046" lon="1.0749111579085069"><ele>84.0</ele><time>2026-04-26T16:50:28.999Z</time></trkpt><trkpt lat="47.31245442867079" lon="1.0750795724480957"><ele>83.0</ele><time>2026-04-26T16:50:29.999Z</time></trkpt><trkpt lat="47.31247735225857" lon="1.075248723186869"><ele>82.0</ele><time>2026-04-26T16:50:30.999Z</time></trkpt><trkpt lat="47.312491666313" lon="1.0754241989208522"><ele>81.0</ele><time>2026-04-26T16:50:31.999Z</time></trkpt><trkpt lat="47.31248542885849" lon="1.0755997997280922"><ele>80.2</ele><time>2026-04-26T16:50:32.999Z</time></trkpt><trkpt lat="47.312478864787" lon="1.0757737027350107"><ele>79.39999999999999</ele><time>2026-04-26T16:50:33.999Z</time></trkpt><trkpt lat="47.312490121235285" lon="1.0759462140820732"><ele>78.6</ele><time>2026-04-26T16:50:34.999Z</time></trkpt><trkpt lat="47.31248399754391" lon="1.0761109514853275"><ele>77.8</ele><time>2026-04-26T16:50:35.999Z</time></trkpt><trkpt lat="47.31247241932771" lon="1.0762447453104642"><ele>77.0</ele><time>2026-04-26T16:50:36.999Z</time></trkpt><trkpt lat="47.312503284066835" lon="1.076403602232523"><ele>77.0</ele><time>2026-04-26T16:50:38.999Z</time></trkpt><trkpt lat="47.312560191116916" lon="1.0765112820255458"><ele>77.0</ele><time>2026-04-26T16:50:39.999Z</time></trkpt><trkpt lat="47.3126100386287" lon="1.0766463033990097"><ele>77.0</ele><time>2026-04-26T16:50:40.999Z</time></trkpt><trkpt lat="47.3126502438629" lon="1.0768248888788663"><ele>77.0</ele><time>2026-04-26T16:50:41.999Z</time></trkpt><trkpt lat="47.31268536896223" lon="1.0770416491428152"><ele>76.66666666666667</ele><time>2026-04-26T16:50:42.999Z</time></trkpt><trkpt lat="47.31272013312552" lon="1.0772570547951972"><ele>76.33333333333333</ele><time>2026-04-26T16:50:43.999Z</time></trkpt><trkpt lat="47.3127744531973" lon="1.0774691027187964"><ele>76.0</ele><time>2026-04-26T16:50:44.999Z</time></trkpt><trkpt lat="47.31283875942924" lon="1.077673507195151"><ele>76.0</ele><time>2026-04-26T16:50:45.999Z</time></trkpt><trkpt lat="47.31293475614635" lon="1.0778453154839847"><ele>76.0</ele><time>2026-04-26T16:50:46.999Z</time></trkpt><trkpt lat="47.31302686107073" lon="1.078028415136042"><ele>76.0</ele><time>2026-04-26T16:50:47.999Z</time></trkpt><trkpt lat="47.31310676920832" lon="1.078195882404901"><ele>76.0</ele><time>2026-04-26T16:50:48.999Z</time></trkpt><trkpt lat="47.313132524814755" lon="1.0783746360998598"><ele>74.5</ele><time>2026-04-26T16:50:49.999Z</time></trkpt><trkpt lat="47.31315128558996" lon="1.0785498789207577"><ele>73.0</ele><time>2026-04-26T16:50:50.999Z</time></trkpt><trkpt lat="47.31316952603084" lon="1.0787200445827714"><ele>71.5</ele><time>2026-04-26T16:50:51.999Z</time></trkpt><trkpt lat="47.31323117204107" lon="1.0788872168387653"><ele>70.0</ele><time>2026-04-26T16:50:52.999Z</time></trkpt><trkpt lat="47.313302256666745" lon="1.0790673798422352"><ele>69.0</ele><time>2026-04-26T16:50:53.999Z</time></trkpt><trkpt lat="47.313380208379385" lon="1.0792511844098407"><ele>68.0</ele><time>2026-04-26T16:50:54.999Z</time></trkpt><trkpt lat="47.31345784238483" lon="1.0794438287184043"><ele>67.0</ele><time>2026-04-26T16:50:55.999Z</time></trkpt><trkpt lat="47.3135527226592" lon="1.0796349877422344"><ele>67.0</ele><time>2026-04-26T16:50:56.999Z</time></trkpt><trkpt lat="47.313664123526245" lon="1.079793128384085"><ele>67.0</ele><time>2026-04-26T16:50:57.999Z</time></trkpt><trkpt lat="47.313747720677085" lon="1.079954051026921"><ele>67.0</ele><time>2026-04-26T16:50:58.999Z</time></trkpt><trkpt lat="47.31382280258196" lon="1.0800303693102318"><ele>67.0</ele><time>2026-04-26T16:50:59.999Z</time></trkpt><trkpt lat="47.313861117056724" lon="1.0801156730232535"><ele>67.0</ele><time>2026-04-26T16:51:01.999Z</time></trkpt><trkpt lat="47.3138534681021" lon="1.0802087375901974"><ele>67.0</ele><time>2026-04-26T16:51:03.999Z</time></trkpt><trkpt lat="47.31382387874352" lon="1.080314872325153"><ele>67.0</ele><time>2026-04-26T16:51:04.999Z</time></trkpt><trkpt lat="47.313811184621485" lon="1.0804526822318232"><ele>67.0</ele><time>2026-04-26T16:51:05.999Z</time></trkpt><trkpt lat="47.3137636611079" lon="1.08059583667992"><ele>67.0</ele><time>2026-04-26T16:51:06.999Z</time></trkpt><trkpt lat="47.31372743827589" lon="1.0807701403114602"><ele>67.0</ele><time>2026-04-26T16:51:07.999Z</time></trkpt><trkpt lat="47.31368654709145" lon="1.0809582229843402"><ele>67.0</ele><time>2026-04-26T16:51:08.999Z</time></trkpt><trkpt lat="47.31364357061107" lon="1.0811604387483278"><ele>67.0</ele><time>2026-04-26T16:51:09.999Z</time></trkpt><trkpt lat="47.31360186591377" lon="1.08135275344567"><ele>67.0</ele><time>2026-04-26T16:51:10.999Z</time></trkpt><trkpt lat="47.31356056357001" lon="1.0815371605321922"><ele>68.0</ele><time>2026-04-26T16:51:11.999Z</time></trkpt><trkpt lat="47.31352037196778" lon="1.0817112841544891"><ele>69.0</ele><time>2026-04-26T16:51:12.999Z</time></trkpt><trkpt lat="47.313483136987855" lon="1.0818708462172275"><ele>70.0</ele><time>2026-04-26T16:51:13.999Z</time></trkpt><trkpt lat="47.31344719579598" lon="1.0820238953799026"><ele>71.0</ele><time>2026-04-26T16:51:14.999Z</time></trkpt><trkpt lat="47.31342569009108" lon="1.0821795011457054"><ele>71.0</ele><time>2026-04-26T16:51:15.999Z</time></trkpt><trkpt lat="47.3133900638223" lon="1.0823314200900005"><ele>71.0</ele><time>2026-04-26T16:51:16.999Z</time></trkpt><trkpt lat="47.31335160069859" lon="1.0824860742592497"><ele>71.0</ele><time>2026-04-26T16:51:17.999Z</time></trkpt><trkpt lat="47.31332138729448" lon="1.082639516062206"><ele>71.0</ele><time>2026-04-26T16:51:18.999Z</time></trkpt><trkpt lat="47.31328750476085" lon="1.0827874116300582"><ele>71.0</ele><time>2026-04-26T16:51:19.999Z</time></trkpt><trkpt lat="47.31325255369359" lon="1.0829191729917003"><ele>72.2</ele><time>2026-04-26T16:51:20.999Z</time></trkpt><trkpt lat="47.313206884616676" lon="1.0830066841716741"><ele>73.39999999999999</ele><time>2026-04-26T16:51:21.999Z</time></trkpt><trkpt lat="47.313223383155965" lon="1.0831874471874752"><ele>74.6</ele><time>2026-04-26T16:51:25.999Z</time></trkpt><trkpt lat="47.313275699564954" lon="1.0832737866060598"><ele>75.8</ele><time>2026-04-26T16:51:26.999Z</time></trkpt><trkpt lat="47.313312243210156" lon="1.0833854259013198"><ele>77.0</ele><time>2026-04-26T16:51:27.999Z</time></trkpt><trkpt lat="47.31337054012606" lon="1.083499375135958"><ele>78.6</ele><time>2026-04-26T16:51:28.999Z</time></trkpt><trkpt lat="47.313440058701495" lon="1.0836292881205951"><ele>80.2</ele><time>2026-04-26T16:51:29.999Z</time></trkpt><trkpt lat="47.313523725193704" lon="1.083739567414636"><ele>81.8</ele><time>2026-04-26T16:51:30.999Z</time></trkpt><trkpt lat="47.31358653039128" lon="1.0838637586405122"><ele>83.4</ele><time>2026-04-26T16:51:31.999Z</time></trkpt><trkpt lat="47.313639251380195" lon="1.0839921658664051"><ele>85.0</ele><time>2026-04-26T16:51:32.999Z</time></trkpt><trkpt lat="47.31369266004578" lon="1.0840925921603393"><ele>85.5</ele><time>2026-04-26T16:51:33.999Z</time></trkpt><trkpt lat="47.31375432732882" lon="1.0841836224473393"><ele>86.0</ele><time>2026-04-26T16:51:34.999Z</time></trkpt><trkpt lat="47.31378492600574" lon="1.0843041217242064"><ele>86.5</ele><time>2026-04-26T16:51:36Z</time></trkpt><trkpt lat="47.313831149741695" lon="1.0843859190440588"><ele>87.0</ele><time>2026-04-26T16:51:37Z</time></trkpt><trkpt lat="47.31390174113107" lon="1.0844117783162552"><ele>87.5</ele><time>2026-04-26T16:51:38Z</time></trkpt><trkpt lat="47.31396400578727" lon="1.0844631685210322"><ele>88.0</ele><time>2026-04-26T16:51:39Z</time></trkpt><trkpt lat="47.314022227417546" lon="1.0845744434589113"><ele>88.0</ele><time>2026-04-26T16:51:40Z</time></trkpt><trkpt lat="47.314072126048785" lon="1.0846747311728067"><ele>88.0</ele><time>2026-04-26T16:51:41Z</time></trkpt><trkpt lat="47.31412917041712" lon="1.0847521883948774"><ele>88.0</ele><time>2026-04-26T16:51:42Z</time></trkpt><trkpt lat="47.314181055091225" lon="1.0848532655440475"><ele>88.0</ele><time>2026-04-26T16:51:43Z</time></trkpt><trkpt lat="47.31423799365799" lon="1.0849691796045102"><ele>88.0</ele><time>2026-04-26T16:51:44Z</time></trkpt><trkpt lat="47.314274119386525" lon="1.0851044737537756"><ele>88.0</ele><time>2026-04-26T16:51:45Z</time></trkpt><trkpt lat="47.314299490372846" lon="1.0852811162688558"><ele>88.25</ele><time>2026-04-26T16:51:46Z</time></trkpt><trkpt lat="47.3143142441532" lon="1.0854871658519467"><ele>88.5</ele><time>2026-04-26T16:51:47Z</time></trkpt><trkpt lat="47.31433345509285" lon="1.0856994378598332"><ele>88.75</ele><time>2026-04-26T16:51:48Z</time></trkpt><trkpt lat="47.31435337196853" lon="1.0859057988677596"><ele>89.0</ele><time>2026-04-26T16:51:49Z</time></trkpt><trkpt lat="47.314398336501235" lon="1.0860726619026135"><ele>89.5</ele><time>2026-04-26T16:51:50Z</time></trkpt><trkpt lat="47.31448364519115" lon="1.0861914031956859"><ele>90.0</ele><time>2026-04-26T16:51:51Z</time></trkpt><trkpt lat="47.314581827833926" lon="1.0862860817132378"><ele>90.5</ele><time>2026-04-26T16:51:52Z</time></trkpt><trkpt lat="47.314636876430974" lon="1.086430006806107"><ele>91.0</ele><time>2026-04-26T16:51:53Z</time></trkpt><trkpt lat="47.31467148208391" lon="1.0866015858217928"><ele>91.25</ele><time>2026-04-26T16:51:54Z</time></trkpt><trkpt lat="47.314718384032126" lon="1.086771931738479"><ele>91.5</ele><time>2026-04-26T16:51:55Z</time></trkpt><trkpt lat="47.31475543717255" lon="1.0869497890509412"><ele>91.75</ele><time>2026-04-26T16:51:56Z</time></trkpt><trkpt lat="47.31476564929819" lon="1.0871148141085354"><ele>92.0</ele><time>2026-04-26T16:51:57Z</time></trkpt><trkpt lat="47.31473640422932" lon="1.087284408061863"><ele>92.39999999999999</ele><time>2026-04-26T16:51:58Z</time></trkpt><trkpt lat="47.31472681316171" lon="1.087460413165841"><ele>92.8</ele><time>2026-04-26T16:51:59Z</time></trkpt><trkpt lat="47.314725511275306" lon="1.0876402290621296"><ele>93.2</ele><time>2026-04-26T16:52:00Z</time></trkpt><trkpt lat="47.3147355272933" lon="1.0878072723757561"><ele>93.6</ele><time>2026-04-26T16:52:01Z</time></trkpt><trkpt lat="47.31474269886674" lon="1.0879257342699322"><ele>94.0</ele><time>2026-04-26T16:52:02Z</time></trkpt><trkpt lat="47.31475580373464" lon="1.0880619514092191"><ele>93.0</ele><time>2026-04-26T16:52:04Z</time></trkpt><trkpt lat="47.31476422791082" lon="1.088182741682462"><ele>92.0</ele><time>2026-04-26T16:52:07Z</time></trkpt><trkpt lat="47.314760108432175" lon="1.088304536807623"><ele>91.0</ele><time>2026-04-26T16:52:08Z</time></trkpt><trkpt lat="47.31477419465395" lon="1.088447460140097"><ele>90.0</ele><time>2026-04-26T16:52:09Z</time></trkpt><trkpt lat="47.31479755008319" lon="1.088634754251962"><ele>89.0</ele><time>2026-04-26T16:52:10Z</time></trkpt><trkpt lat="47.3148133402462" lon="1.0888123081653567"><ele>89.0</ele><time>2026-04-26T16:52:11Z</time></trkpt><trkpt lat="47.31482836778912" lon="1.0889819623935306"><ele>89.0</ele><time>2026-04-26T16:52:12Z</time></trkpt><trkpt lat="47.31484220948777" lon="1.0891571780815201"><ele>89.0</ele><time>2026-04-26T16:52:13Z</time></trkpt><trkpt lat="47.314851367513114" lon="1.0893284004391146"><ele>89.0</ele><time>2026-04-26T16:52:14Z</time></trkpt><trkpt lat="47.314859488620115" lon="1.0895382580229218"><ele>89.0</ele><time>2026-04-26T16:52:15Z</time></trkpt><trkpt lat="47.31485645554884" lon="1.0897538935213682"><ele>89.0</ele><time>2026-04-26T16:52:16Z</time></trkpt><trkpt lat="47.314851668632144" lon="1.0899847504715456"><ele>89.0</ele><time>2026-04-26T16:52:17Z</time></trkpt><trkpt lat="47.3148571475553" lon="1.0902147701687366"><ele>89.0</ele><time>2026-04-26T16:52:18Z</time></trkpt><trkpt lat="47.31483969556776" lon="1.0904531987279655"><ele>89.0</ele><time>2026-04-26T16:52:19Z</time></trkpt><trkpt lat="47.31482646510164" lon="1.0906915983130054"><ele>89.0</ele><time>2026-04-26T16:52:20Z</time></trkpt><trkpt lat="47.31481256132436" lon="1.090923197883704"><ele>89.0</ele><time>2026-04-26T16:52:21Z</time></trkpt><trkpt lat="47.31480019583344" lon="1.0911263892067293"><ele>89.0</ele><time>2026-04-26T16:52:22Z</time></trkpt><trkpt lat="47.3148024428545" lon="1.09131450981441"><ele>89.0</ele><time>2026-04-26T16:52:23Z</time></trkpt><trkpt lat="47.31481141633269" lon="1.0915149381658884"><ele>89.0</ele><time>2026-04-26T16:52:24Z</time></trkpt><trkpt lat="47.314828047282944" lon="1.091724216995377"><ele>89.0</ele><time>2026-04-26T16:52:25Z</time></trkpt><trkpt lat="47.31482620396543" lon="1.0919468841665654"><ele>89.0</ele><time>2026-04-26T16:52:26Z</time></trkpt><trkpt lat="47.314839731162785" lon="1.0921631272449377"><ele>89.0</ele><time>2026-04-26T16:52:27Z</time></trkpt><trkpt lat="47.314853573993595" lon="1.0923844158863252"><ele>89.0</ele><time>2026-04-26T16:52:28Z</time></trkpt><trkpt lat="47.31486708560751" lon="1.0926057201172839"><ele>89.0</ele><time>2026-04-26T16:52:29Z</time></trkpt><trkpt lat="47.31488012295973" lon="1.092822317964141"><ele>89.0</ele><time>2026-04-26T16:52:30Z</time></trkpt><trkpt lat="47.3148933412282" lon="1.0930347613216862"><ele>89.0</ele><time>2026-04-26T16:52:30.999Z</time></trkpt><trkpt lat="47.31490899634984" lon="1.093253108581615"><ele>89.0</ele><time>2026-04-26T16:52:31.999Z</time></trkpt><trkpt lat="47.31492227710094" lon="1.0934806367371084"><ele>89.0</ele><time>2026-04-26T16:52:32.999Z</time></trkpt><trkpt lat="47.31493533117721" lon="1.0937138408460993"><ele>89.0</ele><time>2026-04-26T16:52:33.999Z</time></trkpt><trkpt lat="47.314947300998604" lon="1.09394811812183"><ele>89.0</ele><time>2026-04-26T16:52:34.999Z</time></trkpt><trkpt lat="47.31495898027575" lon="1.0941767088599532"><ele>89.0</ele><time>2026-04-26T16:52:35.999Z</time></trkpt><trkpt lat="47.31497456268404" lon="1.0943952657909084"><ele>89.0</ele><time>2026-04-26T16:52:36.999Z</time></trkpt><trkpt lat="47.315013740349514" lon="1.0946234589344401"><ele>89.0</ele><time>2026-04-26T16:52:37.999Z</time></trkpt><trkpt lat="47.31504676059291" lon="1.0948554734480045"><ele>89.0</ele><time>2026-04-26T16:52:38.999Z</time></trkpt><trkpt lat="47.31510324709261" lon="1.0950907826572256"><ele>89.0</ele><time>2026-04-26T16:52:39.999Z</time></trkpt><trkpt lat="47.31515552800527" lon="1.0953318013695443"><ele>89.0</ele><time>2026-04-26T16:52:40.999Z</time></trkpt><trkpt lat="47.31521788369393" lon="1.0955745765138591"><ele>90.33333333333334</ele><time>2026-04-26T16:52:41.999Z</time></trkpt><trkpt lat="47.3152763359286" lon="1.0958160796244545"><ele>91.66666666666667</ele><time>2026-04-26T16:52:42.999Z</time></trkpt><trkpt lat="47.31531336126889" lon="1.096064192675596"><ele>93.0</ele><time>2026-04-26T16:52:43.999Z</time></trkpt><trkpt lat="47.315358746452034" lon="1.0963132638532964"><ele>93.0</ele><time>2026-04-26T16:52:44.999Z</time></trkpt><trkpt lat="47.31540125505418" lon="1.0965609469016848"><ele>93.0</ele><time>2026-04-26T16:52:45.999Z</time></trkpt><trkpt lat="47.31543807587026" lon="1.096816436361599"><ele>93.0</ele><time>2026-04-26T16:52:46.999Z</time></trkpt><trkpt lat="47.31547697707054" lon="1.0970576933164646"><ele>94.0</ele><time>2026-04-26T16:52:47.999Z</time></trkpt><trkpt lat="47.31551658976629" lon="1.0973123317172342"><ele>95.0</ele><time>2026-04-26T16:52:48.999Z</time></trkpt><trkpt lat="47.315551765369506" lon="1.097561609599775"><ele>96.0</ele><time>2026-04-26T16:52:49.999Z</time></trkpt><trkpt lat="47.31558854830398" lon="1.0978044878429556"><ele>93.0</ele><time>2026-04-26T16:52:50.999Z</time></trkpt><trkpt lat="47.315627674856174" lon="1.098050266127802"><ele>90.0</ele><time>2026-04-26T16:52:51.999Z</time></trkpt><trkpt lat="47.31568119619035" lon="1.0982751000107642"><ele>87.0</ele><time>2026-04-26T16:52:52.999Z</time></trkpt><trkpt lat="47.31571834931846" lon="1.0985077228145057"><ele>87.0</ele><time>2026-04-26T16:52:53.999Z</time></trkpt><trkpt lat="47.315756100933086" lon="1.098728598108894"><ele>87.0</ele><time>2026-04-26T16:52:54.999Z</time></trkpt><trkpt lat="47.31578997933658" lon="1.0989382083173937"><ele>87.0</ele><time>2026-04-26T16:52:55.999Z</time></trkpt><trkpt lat="47.31581793899009" lon="1.0991018578444334"><ele>87.0</ele><time>2026-04-26T16:52:56.999Z</time></trkpt><trkpt lat="47.31583230622181" lon="1.09921847069215"><ele>87.0</ele><time>2026-04-26T16:52:57.999Z</time></trkpt><trkpt lat="47.31584885752319" lon="1.099314213620078"><ele>87.0</ele><time>2026-04-26T16:52:58.999Z</time></trkpt><trkpt lat="47.315874655665645" lon="1.0994498023231243"><ele>87.0</ele><time>2026-04-26T16:53:00.999Z</time></trkpt><trkpt lat="47.316027117804296" lon="1.0993939671003115"><ele>87.0</ele><time>2026-04-26T16:53:01.999Z</time></trkpt><trkpt lat="47.316125996315286" lon="1.099315689681137"><ele>87.0</ele><time>2026-04-26T16:53:02.999Z</time></trkpt><trkpt lat="47.31623227157464" lon="1.0992504613756882"><ele>87.0</ele><time>2026-04-26T16:53:03.999Z</time></trkpt><trkpt lat="47.3163660040095" lon="1.0992010254548026"><ele>87.0</ele><time>2026-04-26T16:53:04.999Z</time></trkpt><trkpt lat="47.31652154478976" lon="1.0991558154576266"><ele>87.0</ele><time>2026-04-26T16:53:05.999Z</time></trkpt><trkpt lat="47.31668401677521" lon="1.0991038061614746"><ele>85.66666666666667</ele><time>2026-04-26T16:53:06.999Z</time></trkpt><trkpt lat="47.316859521029684" lon="1.0990766847861726"><ele>84.33333333333334</ele><time>2026-04-26T16:53:07.999Z</time></trkpt><trkpt lat="47.31703344861924" lon="1.0990297242994964"><ele>83.0</ele><time>2026-04-26T16:53:08.999Z</time></trkpt><trkpt lat="47.31720817964419" lon="1.0989948677713461"><ele>81.66666666666667</ele><time>2026-04-26T16:53:09.999Z</time></trkpt><trkpt lat="47.31739423709106" lon="1.098964484795161"><ele>80.33333333333333</ele><time>2026-04-26T16:53:10.999Z</time></trkpt><trkpt lat="47.31758424610843" lon="1.0989372487382427"><ele>79.0</ele><time>2026-04-26T16:53:11.999Z</time></trkpt><trkpt lat="47.31777120551203" lon="1.09888525912159"><ele>79.0</ele><time>2026-04-26T16:53:12.999Z</time></trkpt><trkpt lat="47.317963782441865" lon="1.098852125881725"><ele>79.0</ele><time>2026-04-26T16:53:13.999Z</time></trkpt><trkpt lat="47.31815392105565" lon="1.0988453502477944"><ele>79.0</ele><time>2026-04-26T16:53:14.999Z</time></trkpt><trkpt lat="47.318337046988155" lon="1.098816730455826"><ele>78.66666666666666</ele><time>2026-04-26T16:53:15.999Z</time></trkpt><trkpt lat="47.3185080957001" lon="1.0987911064989335"><ele>78.33333333333333</ele><time>2026-04-26T16:53:16.999Z</time></trkpt><trkpt lat="47.31867629745148" lon="1.098771656439133"><ele>78.0</ele><time>2026-04-26T16:53:17.999Z</time></trkpt><trkpt lat="47.31884748525724" lon="1.0987593925271306"><ele>77.66666666666667</ele><time>2026-04-26T16:53:18.999Z</time></trkpt><trkpt lat="47.31901294028418" lon="1.098757647463406"><ele>77.33333333333334</ele><time>2026-04-26T16:53:19.999Z</time></trkpt><trkpt lat="47.3191749245358" lon="1.0987561282690592"><ele>77.0</ele><time>2026-04-26T16:53:20.999Z</time></trkpt><trkpt lat="47.31933094147158" lon="1.0987298981225928"><ele>77.0</ele><time>2026-04-26T16:53:21.999Z</time></trkpt><trkpt lat="47.31948659438702" lon="1.0987234449655738"><ele>77.0</ele><time>2026-04-26T16:53:22.999Z</time></trkpt><trkpt lat="47.31963773057135" lon="1.098731719550293"><ele>77.0</ele><time>2026-04-26T16:53:23.999Z</time></trkpt><trkpt lat="47.319791893693235" lon="1.0987102654645282"><ele>77.0</ele><time>2026-04-26T16:53:24.999Z</time></trkpt><trkpt lat="47.31994543895141" lon="1.0986862906133328"><ele>77.0</ele><time>2026-04-26T16:53:25.999Z</time></trkpt><trkpt lat="47.3200963381956" lon="1.0986483763735673"><ele>77.0</ele><time>2026-04-26T16:53:26.999Z</time></trkpt><trkpt lat="47.32024256391715" lon="1.0986503104551235"><ele>77.0</ele><time>2026-04-26T16:53:27.999Z</time></trkpt><trkpt lat="47.320381043747226" lon="1.0986721628730711"><ele>77.0</ele><time>2026-04-26T16:53:28.999Z</time></trkpt><trkpt lat="47.320507097498364" lon="1.0987273698371176"><ele>77.0</ele><time>2026-04-26T16:53:29.999Z</time></trkpt><trkpt lat="47.32064267454047" lon="1.0987983031620634"><ele>77.0</ele><time>2026-04-26T16:53:30.999Z</time></trkpt><trkpt lat="47.32078823777991" lon="1.0988744632721217"><ele>76.0</ele><time>2026-04-26T16:53:31.999Z</time></trkpt><trkpt lat="47.320947048509474" lon="1.0989306790070101"><ele>75.0</ele><time>2026-04-26T16:53:32.999Z</time></trkpt><trkpt lat="47.321092109476744" lon="1.0990116083463863"><ele>74.0</ele><time>2026-04-26T16:53:33.999Z</time></trkpt><trkpt lat="47.32123870585095" lon="1.0990508209459489"><ele>74.0</ele><time>2026-04-26T16:53:34.999Z</time></trkpt><trkpt lat="47.32136964824271" lon="1.0991338474921446"><ele>74.0</ele><time>2026-04-26T16:53:35.999Z</time></trkpt><trkpt lat="47.32149261243793" lon="1.0992096764928279"><ele>74.0</ele><time>2026-04-26T16:53:36.999Z</time></trkpt><trkpt lat="47.32160124475518" lon="1.0993101919457207"><ele>74.0</ele><time>2026-04-26T16:53:37.999Z</time></trkpt><trkpt lat="47.321674907554865" lon="1.0994361272985314"><ele>74.0</ele><time>2026-04-26T16:53:38.999Z</time></trkpt><trkpt lat="47.32173907328562" lon="1.0995602473415882"><ele>74.0</ele><time>2026-04-26T16:53:39.999Z</time></trkpt><trkpt lat="47.321819791445115" lon="1.0996688473576577"><ele>74.0</ele><time>2026-04-26T16:53:40.999Z</time></trkpt><trkpt lat="47.3218906286561" lon="1.0997969722852494"><ele>74.0</ele><time>2026-04-26T16:53:42Z</time></trkpt><trkpt lat="47.32197829753248" lon="1.0998992298182344"><ele>74.0</ele><time>2026-04-26T16:53:43Z</time></trkpt><trkpt lat="47.32208293215691" lon="1.099958740527309"><ele>73.0</ele><time>2026-04-26T16:53:44Z</time></trkpt><trkpt lat="47.322183033384725" lon="1.099992513160445"><ele>72.0</ele><time>2026-04-26T16:53:45Z</time></trkpt><trkpt lat="47.322274683307896" lon="1.0999953146852857"><ele>71.0</ele><time>2026-04-26T16:53:46Z</time></trkpt><trkpt lat="47.32236189947565" lon="1.09997554668022"><ele>70.0</ele><time>2026-04-26T16:53:47Z</time></trkpt><trkpt lat="47.32244708718703" lon="1.0999280266950262"><ele>69.0</ele><time>2026-04-26T16:53:48Z</time></trkpt><trkpt lat="47.322518965966445" lon="1.0998637741334685"><ele>68.60000000000001</ele><time>2026-04-26T16:53:49Z</time></trkpt><trkpt lat="47.322589862111904" lon="1.0998074134647626"><ele>68.2</ele><time>2026-04-26T16:53:50Z</time></trkpt><trkpt lat="47.322657066733875" lon="1.0997586774614163"><ele>67.80000000000001</ele><time>2026-04-26T16:53:51Z</time></trkpt><trkpt lat="47.322745735530475" lon="1.0997636853250543"><ele>67.4</ele><time>2026-04-26T16:53:53Z</time></trkpt><trkpt lat="47.32273860572275" lon="1.09996002603188"><ele>67.0</ele><time>2026-04-26T16:53:55Z</time></trkpt><trkpt lat="47.32274391224263" lon="1.1000839580895219"><ele>66.6</ele><time>2026-04-26T16:53:56Z</time></trkpt><trkpt lat="47.322749317864314" lon="1.1002102041821675"><ele>66.2</ele><time>2026-04-26T16:53:57Z</time></trkpt><trkpt lat="47.32275526387632" lon="1.100349070961695"><ele>65.8</ele><time>2026-04-26T16:53:58Z</time></trkpt><trkpt lat="47.32276295427448" lon="1.1005286772311391"><ele>65.4</ele><time>2026-04-26T16:53:59Z</time></trkpt><trkpt lat="47.32277248197831" lon="1.1007368172899972"><ele>65.0</ele><time>2026-04-26T16:54:00Z</time></trkpt><trkpt lat="47.32279710168738" lon="1.1009302876632492"><ele>65.0</ele><time>2026-04-26T16:54:01Z</time></trkpt><trkpt lat="47.32278853979489" lon="1.10111093771837"><ele>65.0</ele><time>2026-04-26T16:54:02Z</time></trkpt><trkpt lat="47.32279624022004" lon="1.1012907653556954"><ele>65.0</ele><time>2026-04-26T16:54:03Z</time></trkpt><trkpt lat="47.32280560162505" lon="1.1015137814138456"><ele>65.0</ele><time>2026-04-26T16:54:04Z</time></trkpt><trkpt lat="47.32281564340402" lon="1.1017544170524731"><ele>65.66666666666667</ele><time>2026-04-26T16:54:05Z</time></trkpt><trkpt lat="47.322839817717345" lon="1.1020071819126913"><ele>66.33333333333333</ele><time>2026-04-26T16:54:06Z</time></trkpt><trkpt lat="47.32284791570128" lon="1.1022506095592637"><ele>67.0</ele><time>2026-04-26T16:54:07Z</time></trkpt><trkpt lat="47.322858550750524" lon="1.102487904177883"><ele>67.33333333333333</ele><time>2026-04-26T16:54:08Z</time></trkpt><trkpt lat="47.32286826052235" lon="1.1027187233960347"><ele>67.66666666666667</ele><time>2026-04-26T16:54:09Z</time></trkpt><trkpt lat="47.32288025885395" lon="1.1029434547713288"><ele>68.0</ele><time>2026-04-26T16:54:10Z</time></trkpt><trkpt lat="47.32289393713251" lon="1.1031606023457856"><ele>67.75</ele><time>2026-04-26T16:54:11Z</time></trkpt><trkpt lat="47.3228970859632" lon="1.103374486433348"><ele>67.5</ele><time>2026-04-26T16:54:12Z</time></trkpt><trkpt lat="47.322932528340566" lon="1.103594099087249"><ele>67.25</ele><time>2026-04-26T16:54:13Z</time></trkpt><trkpt lat="47.32295400833353" lon="1.1038068858942396"><ele>67.0</ele><time>2026-04-26T16:54:14Z</time></trkpt><trkpt lat="47.322976700236566" lon="1.1040210515414781"><ele>67.0</ele><time>2026-04-26T16:54:15Z</time></trkpt><trkpt lat="47.32298259590747" lon="1.1042215181384991"><ele>67.0</ele><time>2026-04-26T16:54:16Z</time></trkpt><trkpt lat="47.323006022185616" lon="1.104430992094221"><ele>67.0</ele><time>2026-04-26T16:54:17Z</time></trkpt><trkpt lat="47.3230288105615" lon="1.1046347620506642"><ele>67.0</ele><time>2026-04-26T16:54:18Z</time></trkpt><trkpt lat="47.32305074198729" lon="1.1048308692528723"><ele>66.0</ele><time>2026-04-26T16:54:19Z</time></trkpt><trkpt lat="47.32307279417898" lon="1.1050280564330255"><ele>65.0</ele><time>2026-04-26T16:54:20Z</time></trkpt><trkpt lat="47.32309419775203" lon="1.1052194436808322"><ele>64.0</ele><time>2026-04-26T16:54:21Z</time></trkpt><trkpt lat="47.32311493565807" lon="1.1054048787220287"><ele>63.0</ele><time>2026-04-26T16:54:22Z</time></trkpt><trkpt lat="47.32313701782029" lon="1.1056023338833028"><ele>63.0</ele><time>2026-04-26T16:54:23Z</time></trkpt><trkpt lat="47.32315752592087" lon="1.1057857139008282"><ele>63.0</ele><time>2026-04-26T16:54:24Z</time></trkpt><trkpt lat="47.32317976694594" lon="1.105984589485563"><ele>63.0</ele><time>2026-04-26T16:54:25Z</time></trkpt><trkpt lat="47.32320004223034" lon="1.1061697026252912"><ele>63.0</ele><time>2026-04-26T16:54:26Z</time></trkpt><trkpt lat="47.32323699225833" lon="1.1063600712561874"><ele>63.0</ele><time>2026-04-26T16:54:27Z</time></trkpt><trkpt lat="47.32324111366835" lon="1.1065414282522115"><ele>63.0</ele><time>2026-04-26T16:54:28Z</time></trkpt><trkpt lat="47.32327365454181" lon="1.1067365265527822"><ele>63.0</ele><time>2026-04-26T16:54:29Z</time></trkpt><trkpt lat="47.32328300105998" lon="1.1069231452535737"><ele>63.0</ele><time>2026-04-26T16:54:30Z</time></trkpt><trkpt lat="47.323302776803295" lon="1.1071031787015375"><ele>63.0</ele><time>2026-04-26T16:54:31Z</time></trkpt><trkpt lat="47.323323358450764" lon="1.1072905488223266"><ele>63.0</ele><time>2026-04-26T16:54:32Z</time></trkpt><trkpt lat="47.32334022512476" lon="1.1074440987727998"><ele>63.0</ele><time>2026-04-26T16:54:33Z</time></trkpt><trkpt lat="47.32335551944144" lon="1.107581540991599"><ele>63.0</ele><time>2026-04-26T16:54:34Z</time></trkpt><trkpt lat="47.323368455651895" lon="1.1076963496753212"><ele>63.0</ele><time>2026-04-26T16:54:35Z</time></trkpt><trkpt lat="47.32338086369409" lon="1.1078064710912259"><ele>63.0</ele><time>2026-04-26T16:54:36.999Z</time></trkpt><trkpt lat="47.323226680211896" lon="1.1079113872986408"><ele>63.0</ele><time>2026-04-26T16:55:17.999Z</time></trkpt><trkpt lat="47.323186476942915" lon="1.1079845990797095"><ele>63.0</ele><time>2026-04-26T16:55:22.999Z</time></trkpt><trkpt lat="47.32320804576918" lon="1.108075615986873"><ele>63.0</ele><time>2026-04-26T16:58:37Z</time></trkpt><trkpt lat="47.3232056964298" lon="1.1079802978314939"><ele>63.0</ele><time>2026-04-26T16:59:05.999Z</time></trkpt><trkpt lat="47.32321410528811" lon="1.1080976673474079"><ele>63.0</ele><time>2026-04-26T17:00:18Z</time></trkpt><trkpt lat="47.32320301937122" lon="1.1079956685089436"><ele>63.0</ele><time>2026-04-26T17:00:54.999Z</time></trkpt><trkpt lat="47.32326736802022" lon="1.1079436059755001"><ele>63.0</ele><time>2026-04-26T17:03:20.999Z</time></trkpt><trkpt lat="47.32320892336692" lon="1.1080174209369902"><ele>63.0</ele><time>2026-04-26T17:04:13.376Z</time></trkpt><trkpt lat="47.32322102997907" lon="1.1081152722103933"><ele>63.0</ele><time>2026-04-26T17:04:31Z</time></trkpt><trkpt lat="47.323184377749676" lon="1.1081913337948444"><ele>63.0</ele><time>2026-04-26T17:05:09Z</time></trkpt><trkpt lat="47.323243228534864" lon="1.1081528150804896"><ele>63.0</ele><time>2026-04-26T17:07:03Z</time></trkpt></trkseg></trk></gpx>